<?xml version="1.0" encoding="UTF-8" standalone="no" ?>
<gpx xmlns="http://www.topografix.com/GPX/1/1" xmlns:xsi="http://www.w3.org/2001/XMLSchema-instance" xsi:schemaLocation="http://www.topografix.com/GPX/1/1 http://www.topografix.com/GPX/1/1/gpx.xsd" version="1.1" creator="VisuGPX - https://www.visugpx.com">
  <metadata>
    <name>Rando du 10 10 2010 avec Jacques</name>
    <desc><![CDATA[Petite rando de 39 km et 895 m de D ]]></desc>
  </metadata>
  <trk>
    <name><![CDATA[ACTIVE LOG-F-MNT]]></name>
    <trkseg>
      <trkpt lat="43.54169" lon="6.69997">
        <ele>289.118286</ele>
        <time>2010-10-10T08:19:31Z</time>
      </trkpt>
      <trkpt lat="43.54167" lon="6.70001">
        <ele>288.122681</ele>
        <time>2010-10-10T08:20:41Z</time>
      </trkpt>
      <trkpt lat="43.54174" lon="6.70022">
        <ele>289.215393</ele>
        <time>2010-10-10T08:20:49Z</time>
      </trkpt>
      <trkpt lat="43.54176" lon="6.70022">
        <ele>290.09494</ele>
        <time>2010-10-10T08:20:50Z</time>
      </trkpt>
      <trkpt lat="43.54184" lon="6.70027">
        <ele>291.525299</ele>
        <time>2010-10-10T08:20:55Z</time>
      </trkpt>
      <trkpt lat="43.54202" lon="6.70029">
        <ele>294.644745</ele>
        <time>2010-10-10T08:21:05Z</time>
      </trkpt>
      <trkpt lat="43.54229" lon="6.70037">
        <ele>299.144196</ele>
        <time>2010-10-10T08:21:21Z</time>
      </trkpt>
      <trkpt lat="43.54232" lon="6.70039">
        <ele>299.372375</ele>
        <time>2010-10-10T08:21:22Z</time>
      </trkpt>
      <trkpt lat="43.54262" lon="6.70044">
        <ele>303.607086</ele>
        <time>2010-10-10T08:21:39Z</time>
      </trkpt>
      <trkpt lat="43.54264" lon="6.70044">
        <ele>303.919525</ele>
        <time>2010-10-10T08:21:41Z</time>
      </trkpt>
      <trkpt lat="43.54272" lon="6.70046">
        <ele>305.115326</ele>
        <time>2010-10-10T08:21:46Z</time>
      </trkpt>
      <trkpt lat="43.54294" lon="6.70052">
        <ele>308.128174</ele>
        <time>2010-10-10T08:21:59Z</time>
      </trkpt>
      <trkpt lat="43.54305" lon="6.70057">
        <ele>309.649689</ele>
        <time>2010-10-10T08:22:05Z</time>
      </trkpt>
      <trkpt lat="43.54313" lon="6.70059">
        <ele>310.507172</ele>
        <time>2010-10-10T08:22:11Z</time>
      </trkpt>
      <trkpt lat="43.54324" lon="6.70067">
        <ele>310.820892</ele>
        <time>2010-10-10T08:22:17Z</time>
      </trkpt>
      <trkpt lat="43.5433" lon="6.70072">
        <ele>311.044708</ele>
        <time>2010-10-10T08:22:21Z</time>
      </trkpt>
      <trkpt lat="43.54356" lon="6.70082">
        <ele>311.894226</ele>
        <time>2010-10-10T08:22:35Z</time>
      </trkpt>
      <trkpt lat="43.54367" lon="6.70089">
        <ele>311.405884</ele>
        <time>2010-10-10T08:22:40Z</time>
      </trkpt>
      <trkpt lat="43.54365" lon="6.70112">
        <ele>311.458832</ele>
        <time>2010-10-10T08:22:46Z</time>
      </trkpt>
      <trkpt lat="43.54362" lon="6.70119">
        <ele>311.542633</ele>
        <time>2010-10-10T08:22:48Z</time>
      </trkpt>
      <trkpt lat="43.5436" lon="6.70127">
        <ele>311.622559</ele>
        <time>2010-10-10T08:22:50Z</time>
      </trkpt>
      <trkpt lat="43.5435" lon="6.70155">
        <ele>312.089142</ele>
        <time>2010-10-10T08:22:58Z</time>
      </trkpt>
      <trkpt lat="43.54356" lon="6.70151">
        <ele>311.828552</ele>
        <time>2010-10-10T08:23:02Z</time>
      </trkpt>
      <trkpt lat="43.54395" lon="6.70089">
        <ele>310.16629</ele>
        <time>2010-10-10T08:23:17Z</time>
      </trkpt>
      <trkpt lat="43.54408" lon="6.70054">
        <ele>309.55835</ele>
        <time>2010-10-10T08:23:23Z</time>
      </trkpt>
      <trkpt lat="43.54416" lon="6.70018">
        <ele>309.121613</ele>
        <time>2010-10-10T08:23:29Z</time>
      </trkpt>
      <trkpt lat="43.54418" lon="6.70003">
        <ele>309.169373</ele>
        <time>2010-10-10T08:23:33Z</time>
      </trkpt>
      <trkpt lat="43.54425" lon="6.69904">
        <ele>308.3013</ele>
        <time>2010-10-10T08:23:49Z</time>
      </trkpt>
      <trkpt lat="43.54425" lon="6.69878">
        <ele>307.725677</ele>
        <time>2010-10-10T08:23:53Z</time>
      </trkpt>
      <trkpt lat="43.5439" lon="6.6976">
        <ele>303.636963</ele>
        <time>2010-10-10T08:24:10Z</time>
      </trkpt>
      <trkpt lat="43.54388" lon="6.69754">
        <ele>303.279327</ele>
        <time>2010-10-10T08:24:11Z</time>
      </trkpt>
      <trkpt lat="43.54367" lon="6.69718">
        <ele>301.00946</ele>
        <time>2010-10-10T08:24:15Z</time>
      </trkpt>
      <trkpt lat="43.54356" lon="6.69696">
        <ele>299.529053</ele>
        <time>2010-10-10T08:24:17Z</time>
      </trkpt>
      <trkpt lat="43.54337" lon="6.69627">
        <ele>296.429596</ele>
        <time>2010-10-10T08:24:23Z</time>
      </trkpt>
      <trkpt lat="43.54332" lon="6.69623">
        <ele>296.007294</ele>
        <time>2010-10-10T08:24:24Z</time>
      </trkpt>
      <trkpt lat="43.54328" lon="6.69602">
        <ele>295.2211</ele>
        <time>2010-10-10T08:24:28Z</time>
      </trkpt>
      <trkpt lat="43.5433" lon="6.69597">
        <ele>295.356049</ele>
        <time>2010-10-10T08:24:29Z</time>
      </trkpt>
      <trkpt lat="43.54347" lon="6.69578">
        <ele>296.934479</ele>
        <time>2010-10-10T08:24:36Z</time>
      </trkpt>
      <trkpt lat="43.54347" lon="6.69576">
        <ele>296.903931</ele>
        <time>2010-10-10T08:24:37Z</time>
      </trkpt>
      <trkpt lat="43.54352" lon="6.69559">
        <ele>297.17688</ele>
        <time>2010-10-10T08:24:41Z</time>
      </trkpt>
      <trkpt lat="43.54356" lon="6.69529">
        <ele>297.335754</ele>
        <time>2010-10-10T08:24:48Z</time>
      </trkpt>
      <trkpt lat="43.54356" lon="6.69514">
        <ele>297.719269</ele>
        <time>2010-10-10T08:24:52Z</time>
      </trkpt>
      <trkpt lat="43.54352" lon="6.69499">
        <ele>297.625549</ele>
        <time>2010-10-10T08:24:56Z</time>
      </trkpt>
      <trkpt lat="43.54347" lon="6.69494">
        <ele>297.274933</ele>
        <time>2010-10-10T08:24:57Z</time>
      </trkpt>
      <trkpt lat="43.54341" lon="6.69486">
        <ele>296.878876</ele>
        <time>2010-10-10T08:25:00Z</time>
      </trkpt>
      <trkpt lat="43.54335" lon="6.69477">
        <ele>296.561646</ele>
        <time>2010-10-10T08:25:03Z</time>
      </trkpt>
      <trkpt lat="43.5432" lon="6.69454">
        <ele>296.44101</ele>
        <time>2010-10-10T08:25:11Z</time>
      </trkpt>
      <trkpt lat="43.54311" lon="6.69439">
        <ele>296.709625</ele>
        <time>2010-10-10T08:25:16Z</time>
      </trkpt>
      <trkpt lat="43.54326" lon="6.69426">
        <ele>298.821869</ele>
        <time>2010-10-10T08:25:23Z</time>
      </trkpt>
      <trkpt lat="43.54335" lon="6.69426">
        <ele>299.507538</ele>
        <time>2010-10-10T08:25:26Z</time>
      </trkpt>
      <trkpt lat="43.54341" lon="6.69426">
        <ele>299.767548</ele>
        <time>2010-10-10T08:25:28Z</time>
      </trkpt>
      <trkpt lat="43.54435" lon="6.69426">
        <ele>299.500763</ele>
        <time>2010-10-10T08:26:00Z</time>
      </trkpt>
      <trkpt lat="43.54476" lon="6.6943">
        <ele>296.623322</ele>
        <time>2010-10-10T08:26:08Z</time>
      </trkpt>
      <trkpt lat="43.54487" lon="6.6943">
        <ele>295.964417</ele>
        <time>2010-10-10T08:26:10Z</time>
      </trkpt>
      <trkpt lat="43.54491" lon="6.69428">
        <ele>295.688141</ele>
        <time>2010-10-10T08:26:11Z</time>
      </trkpt>
      <trkpt lat="43.54521" lon="6.6943">
        <ele>294.062683</ele>
        <time>2010-10-10T08:26:16Z</time>
      </trkpt>
      <trkpt lat="43.54551" lon="6.69445">
        <ele>293.587463</ele>
        <time>2010-10-10T08:26:23Z</time>
      </trkpt>
      <trkpt lat="43.54573" lon="6.69447">
        <ele>293.713287</ele>
        <time>2010-10-10T08:26:29Z</time>
      </trkpt>
      <trkpt lat="43.54584" lon="6.69447">
        <ele>293.938446</ele>
        <time>2010-10-10T08:26:32Z</time>
      </trkpt>
      <trkpt lat="43.54611" lon="6.69443">
        <ele>294.557678</ele>
        <time>2010-10-10T08:26:41Z</time>
      </trkpt>
      <trkpt lat="43.54611" lon="6.6943">
        <ele>294.359283</ele>
        <time>2010-10-10T08:26:44Z</time>
      </trkpt>
      <trkpt lat="43.54588" lon="6.69325">
        <ele>293.347382</ele>
        <time>2010-10-10T08:27:06Z</time>
      </trkpt>
      <trkpt lat="43.54586" lon="6.69306">
        <ele>293.321198</ele>
        <time>2010-10-10T08:27:10Z</time>
      </trkpt>
      <trkpt lat="43.54594" lon="6.69297">
        <ele>293.881805</ele>
        <time>2010-10-10T08:27:15Z</time>
      </trkpt>
      <trkpt lat="43.54601" lon="6.69297">
        <ele>294.302979</ele>
        <time>2010-10-10T08:27:18Z</time>
      </trkpt>
      <trkpt lat="43.54648" lon="6.6931">
        <ele>299.028442</ele>
        <time>2010-10-10T08:27:40Z</time>
      </trkpt>
      <trkpt lat="43.5468" lon="6.69316">
        <ele>302.48822</ele>
        <time>2010-10-10T08:27:54Z</time>
      </trkpt>
      <trkpt lat="43.54689" lon="6.69318">
        <ele>303.403198</ele>
        <time>2010-10-10T08:27:58Z</time>
      </trkpt>
      <trkpt lat="43.54693" lon="6.69318">
        <ele>303.890533</ele>
        <time>2010-10-10T08:28:00Z</time>
      </trkpt>
      <trkpt lat="43.54714" lon="6.69308">
        <ele>306.886963</ele>
        <time>2010-10-10T08:28:11Z</time>
      </trkpt>
      <trkpt lat="43.5474" lon="6.69297">
        <ele>309.663086</ele>
        <time>2010-10-10T08:28:25Z</time>
      </trkpt>
      <trkpt lat="43.54779" lon="6.6928">
        <ele>313.78244</ele>
        <time>2010-10-10T08:28:46Z</time>
      </trkpt>
      <trkpt lat="43.54798" lon="6.69286">
        <ele>316.72995</ele>
        <time>2010-10-10T08:28:57Z</time>
      </trkpt>
      <trkpt lat="43.548" lon="6.69291">
        <ele>317.167114</ele>
        <time>2010-10-10T08:28:59Z</time>
      </trkpt>
      <trkpt lat="43.54822" lon="6.6931">
        <ele>320.905853</ele>
        <time>2010-10-10T08:29:13Z</time>
      </trkpt>
      <trkpt lat="43.54828" lon="6.69318">
        <ele>321.901276</ele>
        <time>2010-10-10T08:29:17Z</time>
      </trkpt>
      <trkpt lat="43.54835" lon="6.69331">
        <ele>321.98172</ele>
        <time>2010-10-10T08:29:23Z</time>
      </trkpt>
      <trkpt lat="43.54837" lon="6.69336">
        <ele>322.039795</ele>
        <time>2010-10-10T08:29:25Z</time>
      </trkpt>
      <trkpt lat="43.54867" lon="6.69387">
        <ele>324.657104</ele>
        <time>2010-10-10T08:29:47Z</time>
      </trkpt>
      <trkpt lat="43.54923" lon="6.69445">
        <ele>327.250244</ele>
        <time>2010-10-10T08:30:15Z</time>
      </trkpt>
      <trkpt lat="43.54927" lon="6.69447">
        <ele>326.179993</ele>
        <time>2010-10-10T08:30:17Z</time>
      </trkpt>
      <trkpt lat="43.54935" lon="6.69441">
        <ele>324.057648</ele>
        <time>2010-10-10T08:30:20Z</time>
      </trkpt>
      <trkpt lat="43.54946" lon="6.69432">
        <ele>321.280975</ele>
        <time>2010-10-10T08:30:30Z</time>
      </trkpt>
      <trkpt lat="43.5495" lon="6.69436">
        <ele>320.219696</ele>
        <time>2010-10-10T08:30:34Z</time>
      </trkpt>
      <trkpt lat="43.5495" lon="6.69436">
        <ele>320.219696</ele>
        <time>2010-10-10T08:30:35Z</time>
      </trkpt>
      <trkpt lat="43.54957" lon="6.69441">
        <ele>318.639771</ele>
        <time>2010-10-10T08:30:40Z</time>
      </trkpt>
      <trkpt lat="43.54963" lon="6.69445">
        <ele>317.095947</ele>
        <time>2010-10-10T08:30:46Z</time>
      </trkpt>
      <trkpt lat="43.54972" lon="6.69443">
        <ele>314.413208</ele>
        <time>2010-10-10T08:30:52Z</time>
      </trkpt>
      <trkpt lat="43.54972" lon="6.69443">
        <ele>314.413208</ele>
        <time>2010-10-10T08:30:53Z</time>
      </trkpt>
      <trkpt lat="43.54974" lon="6.69441">
        <ele>313.683563</ele>
        <time>2010-10-10T08:30:56Z</time>
      </trkpt>
      <trkpt lat="43.54978" lon="6.69439">
        <ele>312.266418</ele>
        <time>2010-10-10T08:30:58Z</time>
      </trkpt>
      <trkpt lat="43.54978" lon="6.69436">
        <ele>312.21405</ele>
        <time>2010-10-10T08:30:59Z</time>
      </trkpt>
      <trkpt lat="43.54985" lon="6.69434">
        <ele>310.098145</ele>
        <time>2010-10-10T08:31:04Z</time>
      </trkpt>
      <trkpt lat="43.54989" lon="6.69439">
        <ele>308.842163</ele>
        <time>2010-10-10T08:31:07Z</time>
      </trkpt>
      <trkpt lat="43.54989" lon="6.69441">
        <ele>308.902893</ele>
        <time>2010-10-10T08:31:08Z</time>
      </trkpt>
      <trkpt lat="43.54991" lon="6.69443">
        <ele>308.281464</ele>
        <time>2010-10-10T08:31:09Z</time>
      </trkpt>
      <trkpt lat="43.54991" lon="6.69445">
        <ele>308.344116</ele>
        <time>2010-10-10T08:31:10Z</time>
      </trkpt>
      <trkpt lat="43.54995" lon="6.69449">
        <ele>307.114319</ele>
        <time>2010-10-10T08:31:12Z</time>
      </trkpt>
      <trkpt lat="43.54998" lon="6.69456">
        <ele>306.572998</ele>
        <time>2010-10-10T08:31:14Z</time>
      </trkpt>
      <trkpt lat="43.55" lon="6.6946">
        <ele>305.894409</ele>
        <time>2010-10-10T08:31:16Z</time>
      </trkpt>
      <trkpt lat="43.55011" lon="6.69477">
        <ele>302.872131</ele>
        <time>2010-10-10T08:31:25Z</time>
      </trkpt>
      <trkpt lat="43.55013" lon="6.69479">
        <ele>302.443054</ele>
        <time>2010-10-10T08:31:27Z</time>
      </trkpt>
      <trkpt lat="43.55015" lon="6.69482">
        <ele>302.026703</ele>
        <time>2010-10-10T08:31:28Z</time>
      </trkpt>
      <trkpt lat="43.55023" lon="6.69475">
        <ele>300.038452</ele>
        <time>2010-10-10T08:31:31Z</time>
      </trkpt>
      <trkpt lat="43.55023" lon="6.69473">
        <ele>299.976318</ele>
        <time>2010-10-10T08:31:32Z</time>
      </trkpt>
      <trkpt lat="43.55032" lon="6.69462">
        <ele>297.621552</ele>
        <time>2010-10-10T08:31:38Z</time>
      </trkpt>
      <trkpt lat="43.55036" lon="6.69449">
        <ele>296.054321</ele>
        <time>2010-10-10T08:31:43Z</time>
      </trkpt>
      <trkpt lat="43.55041" lon="6.69436">
        <ele>294.492371</ele>
        <time>2010-10-10T08:31:48Z</time>
      </trkpt>
      <trkpt lat="43.55045" lon="6.69424">
        <ele>292.93045</ele>
        <time>2010-10-10T08:31:52Z</time>
      </trkpt>
      <trkpt lat="43.55049" lon="6.69404">
        <ele>291.119904</ele>
        <time>2010-10-10T08:31:59Z</time>
      </trkpt>
      <trkpt lat="43.55053" lon="6.69389">
        <ele>289.369751</ele>
        <time>2010-10-10T08:32:04Z</time>
      </trkpt>
      <trkpt lat="43.55062" lon="6.69372">
        <ele>286.907288</ele>
        <time>2010-10-10T08:32:10Z</time>
      </trkpt>
      <trkpt lat="43.55079" lon="6.69348">
        <ele>283.194916</ele>
        <time>2010-10-10T08:32:19Z</time>
      </trkpt>
      <trkpt lat="43.55105" lon="6.69321">
        <ele>278.134399</ele>
        <time>2010-10-10T08:32:31Z</time>
      </trkpt>
      <trkpt lat="43.55107" lon="6.69318">
        <ele>277.992126</ele>
        <time>2010-10-10T08:32:33Z</time>
      </trkpt>
      <trkpt lat="43.55107" lon="6.69316">
        <ele>277.885712</ele>
        <time>2010-10-10T08:32:35Z</time>
      </trkpt>
      <trkpt lat="43.55116" lon="6.69293">
        <ele>276.414032</ele>
        <time>2010-10-10T08:32:44Z</time>
      </trkpt>
      <trkpt lat="43.55116" lon="6.69291">
        <ele>276.297638</ele>
        <time>2010-10-10T08:32:45Z</time>
      </trkpt>
      <trkpt lat="43.55116" lon="6.69282">
        <ele>275.834747</ele>
        <time>2010-10-10T08:32:47Z</time>
      </trkpt>
      <trkpt lat="43.55122" lon="6.69256">
        <ele>274.407532</ele>
        <time>2010-10-10T08:32:54Z</time>
      </trkpt>
      <trkpt lat="43.55114" lon="6.69183">
        <ele>273.178986</ele>
        <time>2010-10-10T08:33:16Z</time>
      </trkpt>
      <trkpt lat="43.5512" lon="6.69185">
        <ele>272.625916</ele>
        <time>2010-10-10T08:33:18Z</time>
      </trkpt>
      <trkpt lat="43.55137" lon="6.69166">
        <ele>270.836273</ele>
        <time>2010-10-10T08:33:25Z</time>
      </trkpt>
      <trkpt lat="43.55152" lon="6.69082">
        <ele>269.400085</ele>
        <time>2010-10-10T08:33:47Z</time>
      </trkpt>
      <trkpt lat="43.55152" lon="6.69061">
        <ele>269.065674</ele>
        <time>2010-10-10T08:33:53Z</time>
      </trkpt>
      <trkpt lat="43.55152" lon="6.69039">
        <ele>268.717957</ele>
        <time>2010-10-10T08:33:59Z</time>
      </trkpt>
      <trkpt lat="43.55156" lon="6.6896">
        <ele>270.958679</ele>
        <time>2010-10-10T08:34:23Z</time>
      </trkpt>
      <trkpt lat="43.55159" lon="6.68943">
        <ele>271.833191</ele>
        <time>2010-10-10T08:34:29Z</time>
      </trkpt>
      <trkpt lat="43.55154" lon="6.68926">
        <ele>273.225616</ele>
        <time>2010-10-10T08:34:36Z</time>
      </trkpt>
      <trkpt lat="43.55152" lon="6.68913">
        <ele>274.279449</ele>
        <time>2010-10-10T08:34:41Z</time>
      </trkpt>
      <trkpt lat="43.5515" lon="6.68911">
        <ele>274.64801</ele>
        <time>2010-10-10T08:34:43Z</time>
      </trkpt>
      <trkpt lat="43.55148" lon="6.68904">
        <ele>275.366455</ele>
        <time>2010-10-10T08:34:46Z</time>
      </trkpt>
      <trkpt lat="43.55141" lon="6.689">
        <ele>276.461548</ele>
        <time>2010-10-10T08:34:52Z</time>
      </trkpt>
      <trkpt lat="43.55137" lon="6.68887">
        <ele>278.198425</ele>
        <time>2010-10-10T08:34:59Z</time>
      </trkpt>
      <trkpt lat="43.55135" lon="6.68879">
        <ele>279.348724</ele>
        <time>2010-10-10T08:35:04Z</time>
      </trkpt>
      <trkpt lat="43.55139" lon="6.68874">
        <ele>279.131744</ele>
        <time>2010-10-10T08:35:08Z</time>
      </trkpt>
      <trkpt lat="43.55139" lon="6.68872">
        <ele>279.337006</ele>
        <time>2010-10-10T08:35:09Z</time>
      </trkpt>
      <trkpt lat="43.55141" lon="6.6887">
        <ele>279.201965</ele>
        <time>2010-10-10T08:35:11Z</time>
      </trkpt>
      <trkpt lat="43.55141" lon="6.68868">
        <ele>279.401703</ele>
        <time>2010-10-10T08:35:13Z</time>
      </trkpt>
      <trkpt lat="43.55141" lon="6.68864">
        <ele>279.802795</ele>
        <time>2010-10-10T08:35:15Z</time>
      </trkpt>
      <trkpt lat="43.55139" lon="6.68859">
        <ele>280.579803</ele>
        <time>2010-10-10T08:35:18Z</time>
      </trkpt>
      <trkpt lat="43.55137" lon="6.68855">
        <ele>281.384338</ele>
        <time>2010-10-10T08:35:22Z</time>
      </trkpt>
      <trkpt lat="43.55131" lon="6.68857">
        <ele>282.300354</ele>
        <time>2010-10-10T08:35:26Z</time>
      </trkpt>
      <trkpt lat="43.55129" lon="6.68859">
        <ele>282.433746</ele>
        <time>2010-10-10T08:35:27Z</time>
      </trkpt>
      <trkpt lat="43.55124" lon="6.68861">
        <ele>282.913666</ele>
        <time>2010-10-10T08:35:31Z</time>
      </trkpt>
      <trkpt lat="43.5512" lon="6.68861">
        <ele>283.530334</ele>
        <time>2010-10-10T08:35:33Z</time>
      </trkpt>
      <trkpt lat="43.55116" lon="6.68864">
        <ele>283.840485</ele>
        <time>2010-10-10T08:35:36Z</time>
      </trkpt>
      <trkpt lat="43.55107" lon="6.68864">
        <ele>284.974274</ele>
        <time>2010-10-10T08:35:41Z</time>
      </trkpt>
      <trkpt lat="43.5509" lon="6.68857">
        <ele>288.136414</ele>
        <time>2010-10-10T08:35:52Z</time>
      </trkpt>
      <trkpt lat="43.55079" lon="6.68855">
        <ele>289.894867</ele>
        <time>2010-10-10T08:35:59Z</time>
      </trkpt>
      <trkpt lat="43.55073" lon="6.68849">
        <ele>291.192657</ele>
        <time>2010-10-10T08:36:05Z</time>
      </trkpt>
      <trkpt lat="43.55066" lon="6.6884">
        <ele>292.565796</ele>
        <time>2010-10-10T08:36:12Z</time>
      </trkpt>
      <trkpt lat="43.5506" lon="6.68836">
        <ele>292.893707</ele>
        <time>2010-10-10T08:36:17Z</time>
      </trkpt>
      <trkpt lat="43.55047" lon="6.68831">
        <ele>293.468842</ele>
        <time>2010-10-10T08:36:28Z</time>
      </trkpt>
      <trkpt lat="43.55041" lon="6.68825">
        <ele>293.7612</ele>
        <time>2010-10-10T08:36:34Z</time>
      </trkpt>
      <trkpt lat="43.55045" lon="6.68821">
        <ele>293.614929</ele>
        <time>2010-10-10T08:36:38Z</time>
      </trkpt>
      <trkpt lat="43.55047" lon="6.68818">
        <ele>293.546936</ele>
        <time>2010-10-10T08:36:39Z</time>
      </trkpt>
      <trkpt lat="43.55058" lon="6.68806">
        <ele>293.27829</ele>
        <time>2010-10-10T08:36:45Z</time>
      </trkpt>
      <trkpt lat="43.55064" lon="6.68791">
        <ele>293.247894</ele>
        <time>2010-10-10T08:36:48Z</time>
      </trkpt>
      <trkpt lat="43.55094" lon="6.68748">
        <ele>291.301727</ele>
        <time>2010-10-10T08:36:58Z</time>
      </trkpt>
      <trkpt lat="43.55098" lon="6.6873">
        <ele>290.634155</ele>
        <time>2010-10-10T08:37:01Z</time>
      </trkpt>
      <trkpt lat="43.5509" lon="6.68715">
        <ele>290.571014</ele>
        <time>2010-10-10T08:37:06Z</time>
      </trkpt>
      <trkpt lat="43.55081" lon="6.68703">
        <ele>290.055267</ele>
        <time>2010-10-10T08:37:11Z</time>
      </trkpt>
      <trkpt lat="43.55077" lon="6.68694">
        <ele>289.618073</ele>
        <time>2010-10-10T08:37:14Z</time>
      </trkpt>
      <trkpt lat="43.55073" lon="6.68683">
        <ele>289.118378</ele>
        <time>2010-10-10T08:37:17Z</time>
      </trkpt>
      <trkpt lat="43.55071" lon="6.6867">
        <ele>288.499786</ele>
        <time>2010-10-10T08:37:21Z</time>
      </trkpt>
      <trkpt lat="43.55062" lon="6.68647">
        <ele>287.864227</ele>
        <time>2010-10-10T08:37:29Z</time>
      </trkpt>
      <trkpt lat="43.55049" lon="6.68617">
        <ele>287.967255</ele>
        <time>2010-10-10T08:37:38Z</time>
      </trkpt>
      <trkpt lat="43.55045" lon="6.68606">
        <ele>288.122131</ele>
        <time>2010-10-10T08:37:41Z</time>
      </trkpt>
      <trkpt lat="43.55036" lon="6.68589">
        <ele>288.636414</ele>
        <time>2010-10-10T08:37:47Z</time>
      </trkpt>
      <trkpt lat="43.5503" lon="6.68572">
        <ele>288.731018</ele>
        <time>2010-10-10T08:37:52Z</time>
      </trkpt>
      <trkpt lat="43.55021" lon="6.68516">
        <ele>287.991852</ele>
        <time>2010-10-10T08:38:05Z</time>
      </trkpt>
      <trkpt lat="43.55019" lon="6.68512">
        <ele>288.079956</ele>
        <time>2010-10-10T08:38:07Z</time>
      </trkpt>
      <trkpt lat="43.55017" lon="6.68507">
        <ele>288.161194</ele>
        <time>2010-10-10T08:38:09Z</time>
      </trkpt>
      <trkpt lat="43.55013" lon="6.68503">
        <ele>288.412445</ele>
        <time>2010-10-10T08:38:12Z</time>
      </trkpt>
      <trkpt lat="43.55011" lon="6.68501">
        <ele>288.533325</ele>
        <time>2010-10-10T08:38:14Z</time>
      </trkpt>
      <trkpt lat="43.55008" lon="6.68497">
        <ele>288.592804</ele>
        <time>2010-10-10T08:38:18Z</time>
      </trkpt>
      <trkpt lat="43.54987" lon="6.68473">
        <ele>290.246765</ele>
        <time>2010-10-10T08:38:35Z</time>
      </trkpt>
      <trkpt lat="43.54976" lon="6.68413">
        <ele>288.935181</ele>
        <time>2010-10-10T08:38:49Z</time>
      </trkpt>
      <trkpt lat="43.54976" lon="6.68396">
        <ele>288.280609</ele>
        <time>2010-10-10T08:38:52Z</time>
      </trkpt>
      <trkpt lat="43.54983" lon="6.68353">
        <ele>286.445313</ele>
        <time>2010-10-10T08:38:58Z</time>
      </trkpt>
      <trkpt lat="43.5498" lon="6.68346">
        <ele>286.618805</ele>
        <time>2010-10-10T08:39:01Z</time>
      </trkpt>
      <trkpt lat="43.5498" lon="6.68344">
        <ele>286.571503</ele>
        <time>2010-10-10T08:39:03Z</time>
      </trkpt>
      <trkpt lat="43.54976" lon="6.68325">
        <ele>286.881409</ele>
        <time>2010-10-10T08:39:11Z</time>
      </trkpt>
      <trkpt lat="43.5497" lon="6.68308">
        <ele>287.434601</ele>
        <time>2010-10-10T08:39:17Z</time>
      </trkpt>
      <trkpt lat="43.54968" lon="6.68291">
        <ele>287.283875</ele>
        <time>2010-10-10T08:39:20Z</time>
      </trkpt>
      <trkpt lat="43.54965" lon="6.68271">
        <ele>286.924194</ele>
        <time>2010-10-10T08:39:23Z</time>
      </trkpt>
      <trkpt lat="43.54959" lon="6.68256">
        <ele>287.135254</ele>
        <time>2010-10-10T08:39:26Z</time>
      </trkpt>
      <trkpt lat="43.54959" lon="6.68252">
        <ele>286.899078</ele>
        <time>2010-10-10T08:39:27Z</time>
      </trkpt>
      <trkpt lat="43.54946" lon="6.68231">
        <ele>287.991028</ele>
        <time>2010-10-10T08:39:34Z</time>
      </trkpt>
      <trkpt lat="43.54948" lon="6.68216">
        <ele>286.858795</ele>
        <time>2010-10-10T08:39:38Z</time>
      </trkpt>
      <trkpt lat="43.5495" lon="6.68203">
        <ele>286.238892</ele>
        <time>2010-10-10T08:39:41Z</time>
      </trkpt>
      <trkpt lat="43.54948" lon="6.68128">
        <ele>285.946472</ele>
        <time>2010-10-10T08:40:00Z</time>
      </trkpt>
      <trkpt lat="43.54944" lon="6.68046">
        <ele>287.840759</ele>
        <time>2010-10-10T08:40:22Z</time>
      </trkpt>
      <trkpt lat="43.54944" lon="6.68044">
        <ele>287.916718</ele>
        <time>2010-10-10T08:40:23Z</time>
      </trkpt>
      <trkpt lat="43.54942" lon="6.68033">
        <ele>288.718018</ele>
        <time>2010-10-10T08:40:28Z</time>
      </trkpt>
      <trkpt lat="43.54935" lon="6.68029">
        <ele>290.141663</ele>
        <time>2010-10-10T08:40:34Z</time>
      </trkpt>
      <trkpt lat="43.54923" lon="6.68029">
        <ele>291.301971</ele>
        <time>2010-10-10T08:40:43Z</time>
      </trkpt>
      <trkpt lat="43.54914" lon="6.68027">
        <ele>291.740387</ele>
        <time>2010-10-10T08:40:48Z</time>
      </trkpt>
      <trkpt lat="43.5491" lon="6.6802">
        <ele>291.989166</ele>
        <time>2010-10-10T08:40:52Z</time>
      </trkpt>
      <trkpt lat="43.54901" lon="6.67999">
        <ele>292.246094</ele>
        <time>2010-10-10T08:41:04Z</time>
      </trkpt>
      <trkpt lat="43.54895" lon="6.67994">
        <ele>292.380005</ele>
        <time>2010-10-10T08:41:05Z</time>
      </trkpt>
      <trkpt lat="43.54873" lon="6.67964">
        <ele>291.343842</ele>
        <time>2010-10-10T08:41:10Z</time>
      </trkpt>
      <trkpt lat="43.54847" lon="6.67932">
        <ele>289.294464</ele>
        <time>2010-10-10T08:41:14Z</time>
      </trkpt>
      <trkpt lat="43.54815" lon="6.67907">
        <ele>286.503784</ele>
        <time>2010-10-10T08:41:18Z</time>
      </trkpt>
      <trkpt lat="43.54792" lon="6.67883">
        <ele>284.186951</ele>
        <time>2010-10-10T08:41:21Z</time>
      </trkpt>
      <trkpt lat="43.54781" lon="6.67846">
        <ele>281.279785</ele>
        <time>2010-10-10T08:41:24Z</time>
      </trkpt>
      <trkpt lat="43.54777" lon="6.67831">
        <ele>279.996704</ele>
        <time>2010-10-10T08:41:25Z</time>
      </trkpt>
      <trkpt lat="43.54762" lon="6.6778">
        <ele>276.713409</ele>
        <time>2010-10-10T08:41:29Z</time>
      </trkpt>
      <trkpt lat="43.54742" lon="6.67709">
        <ele>272.857727</ele>
        <time>2010-10-10T08:41:35Z</time>
      </trkpt>
      <trkpt lat="43.5474" lon="6.67703">
        <ele>272.500092</ele>
        <time>2010-10-10T08:41:36Z</time>
      </trkpt>
      <trkpt lat="43.54753" lon="6.67686">
        <ele>271.967316</ele>
        <time>2010-10-10T08:41:40Z</time>
      </trkpt>
      <trkpt lat="43.54817" lon="6.67617">
        <ele>270.744507</ele>
        <time>2010-10-10T08:41:57Z</time>
      </trkpt>
      <trkpt lat="43.54845" lon="6.67561">
        <ele>269.262146</ele>
        <time>2010-10-10T08:42:06Z</time>
      </trkpt>
      <trkpt lat="43.54869" lon="6.67522">
        <ele>268.582031</ele>
        <time>2010-10-10T08:42:13Z</time>
      </trkpt>
      <trkpt lat="43.54873" lon="6.67518">
        <ele>268.358551</ele>
        <time>2010-10-10T08:42:14Z</time>
      </trkpt>
      <trkpt lat="43.54884" lon="6.67501">
        <ele>267.81427</ele>
        <time>2010-10-10T08:42:17Z</time>
      </trkpt>
      <trkpt lat="43.5492" lon="6.67464">
        <ele>264.845459</ele>
        <time>2010-10-10T08:42:24Z</time>
      </trkpt>
      <trkpt lat="43.54929" lon="6.67456">
        <ele>264.079742</ele>
        <time>2010-10-10T08:42:26Z</time>
      </trkpt>
      <trkpt lat="43.5498" lon="6.67402">
        <ele>258.762604</ele>
        <time>2010-10-10T08:42:35Z</time>
      </trkpt>
      <trkpt lat="43.54987" lon="6.67396">
        <ele>258.338074</ele>
        <time>2010-10-10T08:42:36Z</time>
      </trkpt>
      <trkpt lat="43.55015" lon="6.67366">
        <ele>256.36676</ele>
        <time>2010-10-10T08:42:41Z</time>
      </trkpt>
      <trkpt lat="43.55053" lon="6.67329">
        <ele>253.004639</ele>
        <time>2010-10-10T08:42:47Z</time>
      </trkpt>
      <trkpt lat="43.55068" lon="6.67316">
        <ele>251.498367</ele>
        <time>2010-10-10T08:42:49Z</time>
      </trkpt>
      <trkpt lat="43.55096" lon="6.67293">
        <ele>248.212982</ele>
        <time>2010-10-10T08:42:53Z</time>
      </trkpt>
      <trkpt lat="43.55101" lon="6.67289">
        <ele>248.197327</ele>
        <time>2010-10-10T08:42:54Z</time>
      </trkpt>
      <trkpt lat="43.55126" lon="6.67271">
        <ele>246.977783</ele>
        <time>2010-10-10T08:43:04Z</time>
      </trkpt>
      <trkpt lat="43.55139" lon="6.67256">
        <ele>246.467316</ele>
        <time>2010-10-10T08:43:11Z</time>
      </trkpt>
      <trkpt lat="43.55159" lon="6.67239">
        <ele>244.949478</ele>
        <time>2010-10-10T08:43:21Z</time>
      </trkpt>
      <trkpt lat="43.55206" lon="6.67196">
        <ele>241.66925</ele>
        <time>2010-10-10T08:43:42Z</time>
      </trkpt>
      <trkpt lat="43.55238" lon="6.67168">
        <ele>238.475937</ele>
        <time>2010-10-10T08:43:55Z</time>
      </trkpt>
      <trkpt lat="43.55262" lon="6.67149">
        <ele>236.355728</ele>
        <time>2010-10-10T08:44:05Z</time>
      </trkpt>
      <trkpt lat="43.5527" lon="6.6714">
        <ele>235.460938</ele>
        <time>2010-10-10T08:44:10Z</time>
      </trkpt>
      <trkpt lat="43.55287" lon="6.67132">
        <ele>233.374741</ele>
        <time>2010-10-10T08:44:17Z</time>
      </trkpt>
      <trkpt lat="43.55307" lon="6.6713">
        <ele>231.317108</ele>
        <time>2010-10-10T08:44:23Z</time>
      </trkpt>
      <trkpt lat="43.55356" lon="6.67117">
        <ele>229.694122</ele>
        <time>2010-10-10T08:44:40Z</time>
      </trkpt>
      <trkpt lat="43.5539" lon="6.67085">
        <ele>230.537292</ele>
        <time>2010-10-10T08:44:53Z</time>
      </trkpt>
      <trkpt lat="43.55405" lon="6.67074">
        <ele>228.861938</ele>
        <time>2010-10-10T08:44:59Z</time>
      </trkpt>
      <trkpt lat="43.55457" lon="6.6705">
        <ele>227.699463</ele>
        <time>2010-10-10T08:45:19Z</time>
      </trkpt>
      <trkpt lat="43.55502" lon="6.67029">
        <ele>226.325714</ele>
        <time>2010-10-10T08:45:34Z</time>
      </trkpt>
      <trkpt lat="43.55508" lon="6.67018">
        <ele>225.534409</ele>
        <time>2010-10-10T08:45:37Z</time>
      </trkpt>
      <trkpt lat="43.55523" lon="6.67003">
        <ele>227.033829</ele>
        <time>2010-10-10T08:45:42Z</time>
      </trkpt>
      <trkpt lat="43.55528" lon="6.66999">
        <ele>227.304398</ele>
        <time>2010-10-10T08:45:44Z</time>
      </trkpt>
      <trkpt lat="43.55586" lon="6.6699">
        <ele>222.957504</ele>
        <time>2010-10-10T08:46:02Z</time>
      </trkpt>
      <trkpt lat="43.5565" lon="6.66977">
        <ele>215.706055</ele>
        <time>2010-10-10T08:46:23Z</time>
      </trkpt>
      <trkpt lat="43.55695" lon="6.66975">
        <ele>213.269333</ele>
        <time>2010-10-10T08:46:35Z</time>
      </trkpt>
      <trkpt lat="43.5571" lon="6.66969">
        <ele>213.344955</ele>
        <time>2010-10-10T08:46:41Z</time>
      </trkpt>
      <trkpt lat="43.55716" lon="6.66965">
        <ele>214.263046</ele>
        <time>2010-10-10T08:46:44Z</time>
      </trkpt>
      <trkpt lat="43.55736" lon="6.66952">
        <ele>215.727081</ele>
        <time>2010-10-10T08:46:53Z</time>
      </trkpt>
      <trkpt lat="43.55749" lon="6.66937">
        <ele>216.165405</ele>
        <time>2010-10-10T08:46:59Z</time>
      </trkpt>
      <trkpt lat="43.55777" lon="6.66915">
        <ele>214.716873</ele>
        <time>2010-10-10T08:47:11Z</time>
      </trkpt>
      <trkpt lat="43.55783" lon="6.66911">
        <ele>214.273514</ele>
        <time>2010-10-10T08:47:14Z</time>
      </trkpt>
      <trkpt lat="43.55785" lon="6.66909">
        <ele>214.125885</ele>
        <time>2010-10-10T08:47:15Z</time>
      </trkpt>
      <trkpt lat="43.55787" lon="6.66907">
        <ele>213.996887</ele>
        <time>2010-10-10T08:47:16Z</time>
      </trkpt>
      <trkpt lat="43.55794" lon="6.66902">
        <ele>213.936081</ele>
        <time>2010-10-10T08:47:18Z</time>
      </trkpt>
      <trkpt lat="43.55794" lon="6.669">
        <ele>213.926575</ele>
        <time>2010-10-10T08:47:19Z</time>
      </trkpt>
      <trkpt lat="43.55798" lon="6.66896">
        <ele>213.845566</ele>
        <time>2010-10-10T08:47:21Z</time>
      </trkpt>
      <trkpt lat="43.55811" lon="6.66874">
        <ele>213.306244</ele>
        <time>2010-10-10T08:47:29Z</time>
      </trkpt>
      <trkpt lat="43.55817" lon="6.66866">
        <ele>212.932693</ele>
        <time>2010-10-10T08:47:32Z</time>
      </trkpt>
      <trkpt lat="43.55837" lon="6.66842">
        <ele>212.167206</ele>
        <time>2010-10-10T08:47:41Z</time>
      </trkpt>
      <trkpt lat="43.55847" lon="6.66827">
        <ele>212.696655</ele>
        <time>2010-10-10T08:47:47Z</time>
      </trkpt>
      <trkpt lat="43.55847" lon="6.66808">
        <ele>212.411118</ele>
        <time>2010-10-10T08:47:52Z</time>
      </trkpt>
      <trkpt lat="43.55847" lon="6.66804">
        <ele>212.352051</ele>
        <time>2010-10-10T08:47:53Z</time>
      </trkpt>
      <trkpt lat="43.5585" lon="6.66799">
        <ele>212.34819</ele>
        <time>2010-10-10T08:47:54Z</time>
      </trkpt>
      <trkpt lat="43.55854" lon="6.66786">
        <ele>212.554214</ele>
        <time>2010-10-10T08:47:57Z</time>
      </trkpt>
      <trkpt lat="43.55856" lon="6.66784">
        <ele>212.595886</ele>
        <time>2010-10-10T08:47:58Z</time>
      </trkpt>
      <trkpt lat="43.55903" lon="6.66739">
        <ele>212.785492</ele>
        <time>2010-10-10T08:48:17Z</time>
      </trkpt>
      <trkpt lat="43.55912" lon="6.66716">
        <ele>212.148132</ele>
        <time>2010-10-10T08:48:23Z</time>
      </trkpt>
      <trkpt lat="43.55927" lon="6.66668">
        <ele>210.554382</ele>
        <time>2010-10-10T08:48:36Z</time>
      </trkpt>
      <trkpt lat="43.55927" lon="6.66658">
        <ele>211.164795</ele>
        <time>2010-10-10T08:48:39Z</time>
      </trkpt>
      <trkpt lat="43.55929" lon="6.66656">
        <ele>211.364197</ele>
        <time>2010-10-10T08:48:40Z</time>
      </trkpt>
      <trkpt lat="43.55925" lon="6.6663">
        <ele>212.532776</ele>
        <time>2010-10-10T08:48:47Z</time>
      </trkpt>
      <trkpt lat="43.55922" lon="6.66619">
        <ele>212.873505</ele>
        <time>2010-10-10T08:48:50Z</time>
      </trkpt>
      <trkpt lat="43.5592" lon="6.66608">
        <ele>212.689819</ele>
        <time>2010-10-10T08:48:53Z</time>
      </trkpt>
      <trkpt lat="43.55916" lon="6.66585">
        <ele>211.84816</ele>
        <time>2010-10-10T08:48:59Z</time>
      </trkpt>
      <trkpt lat="43.55916" lon="6.66561">
        <ele>211.38266</ele>
        <time>2010-10-10T08:49:05Z</time>
      </trkpt>
      <trkpt lat="43.55914" lon="6.66482">
        <ele>209.737076</ele>
        <time>2010-10-10T08:49:23Z</time>
      </trkpt>
      <trkpt lat="43.55912" lon="6.66458">
        <ele>210.63649</ele>
        <time>2010-10-10T08:49:28Z</time>
      </trkpt>
      <trkpt lat="43.55914" lon="6.6643">
        <ele>211.571075</ele>
        <time>2010-10-10T08:49:34Z</time>
      </trkpt>
      <trkpt lat="43.55916" lon="6.66428">
        <ele>211.59053</ele>
        <time>2010-10-10T08:49:38Z</time>
      </trkpt>
      <trkpt lat="43.55918" lon="6.66422">
        <ele>212.460556</ele>
        <time>2010-10-10T08:49:42Z</time>
      </trkpt>
      <trkpt lat="43.55927" lon="6.6642">
        <ele>211.57309</ele>
        <time>2010-10-10T08:49:46Z</time>
      </trkpt>
      <trkpt lat="43.55929" lon="6.6642">
        <ele>211.251663</ele>
        <time>2010-10-10T08:49:47Z</time>
      </trkpt>
      <trkpt lat="43.5594" lon="6.664">
        <ele>212.047958</ele>
        <time>2010-10-10T08:49:55Z</time>
      </trkpt>
      <trkpt lat="43.5594" lon="6.66398">
        <ele>212.322556</ele>
        <time>2010-10-10T08:49:56Z</time>
      </trkpt>
      <trkpt lat="43.55946" lon="6.66398">
        <ele>211.66011</ele>
        <time>2010-10-10T08:49:59Z</time>
      </trkpt>
      <trkpt lat="43.55959" lon="6.66398">
        <ele>211.168457</ele>
        <time>2010-10-10T08:50:04Z</time>
      </trkpt>
      <trkpt lat="43.56006" lon="6.66374">
        <ele>209.404007</ele>
        <time>2010-10-10T08:50:28Z</time>
      </trkpt>
      <trkpt lat="43.56017" lon="6.66364">
        <ele>209.956848</ele>
        <time>2010-10-10T08:50:34Z</time>
      </trkpt>
      <trkpt lat="43.56032" lon="6.66325">
        <ele>210.877655</ele>
        <time>2010-10-10T08:50:46Z</time>
      </trkpt>
      <trkpt lat="43.5606" lon="6.66222">
        <ele>210.130951</ele>
        <time>2010-10-10T08:51:14Z</time>
      </trkpt>
      <trkpt lat="43.56105" lon="6.66143">
        <ele>206.960098</ele>
        <time>2010-10-10T08:51:41Z</time>
      </trkpt>
      <trkpt lat="43.56143" lon="6.66035">
        <ele>202.097687</ele>
        <time>2010-10-10T08:52:05Z</time>
      </trkpt>
      <trkpt lat="43.56146" lon="6.6601">
        <ele>201.24559</ele>
        <time>2010-10-10T08:52:11Z</time>
      </trkpt>
      <trkpt lat="43.56148" lon="6.65997">
        <ele>200.548172</ele>
        <time>2010-10-10T08:52:15Z</time>
      </trkpt>
      <trkpt lat="43.56178" lon="6.6592">
        <ele>200.122665</ele>
        <time>2010-10-10T08:52:40Z</time>
      </trkpt>
      <trkpt lat="43.56191" lon="6.65905">
        <ele>198.73587</ele>
        <time>2010-10-10T08:52:46Z</time>
      </trkpt>
      <trkpt lat="43.56257" lon="6.65877">
        <ele>200.551514</ele>
        <time>2010-10-10T08:53:10Z</time>
      </trkpt>
      <trkpt lat="43.56277" lon="6.65857">
        <ele>200.218414</ele>
        <time>2010-10-10T08:53:16Z</time>
      </trkpt>
      <trkpt lat="43.56283" lon="6.6584">
        <ele>199.418854</ele>
        <time>2010-10-10T08:53:19Z</time>
      </trkpt>
      <trkpt lat="43.56298" lon="6.65821">
        <ele>200.09201</ele>
        <time>2010-10-10T08:53:24Z</time>
      </trkpt>
      <trkpt lat="43.56302" lon="6.65817">
        <ele>200.202667</ele>
        <time>2010-10-10T08:53:25Z</time>
      </trkpt>
      <trkpt lat="43.56307" lon="6.65802">
        <ele>199.845627</ele>
        <time>2010-10-10T08:53:28Z</time>
      </trkpt>
      <trkpt lat="43.56307" lon="6.65795">
        <ele>199.604126</ele>
        <time>2010-10-10T08:53:29Z</time>
      </trkpt>
      <trkpt lat="43.56319" lon="6.65769">
        <ele>199.057343</ele>
        <time>2010-10-10T08:53:34Z</time>
      </trkpt>
      <trkpt lat="43.5633" lon="6.65763">
        <ele>199.145142</ele>
        <time>2010-10-10T08:53:36Z</time>
      </trkpt>
      <trkpt lat="43.56369" lon="6.65733">
        <ele>198.947845</ele>
        <time>2010-10-10T08:53:45Z</time>
      </trkpt>
      <trkpt lat="43.56395" lon="6.65703">
        <ele>197.923721</ele>
        <time>2010-10-10T08:53:52Z</time>
      </trkpt>
      <trkpt lat="43.56435" lon="6.65651">
        <ele>196.08223</ele>
        <time>2010-10-10T08:54:04Z</time>
      </trkpt>
      <trkpt lat="43.56457" lon="6.65623">
        <ele>196.057281</ele>
        <time>2010-10-10T08:54:11Z</time>
      </trkpt>
      <trkpt lat="43.56463" lon="6.65634">
        <ele>196.375336</ele>
        <time>2010-10-10T08:54:14Z</time>
      </trkpt>
      <trkpt lat="43.5647" lon="6.65641">
        <ele>196.679031</ele>
        <time>2010-10-10T08:54:16Z</time>
      </trkpt>
      <trkpt lat="43.56519" lon="6.65679">
        <ele>198.241638</ele>
        <time>2010-10-10T08:54:34Z</time>
      </trkpt>
      <trkpt lat="43.56534" lon="6.65692">
        <ele>198.336609</ele>
        <time>2010-10-10T08:54:40Z</time>
      </trkpt>
      <trkpt lat="43.56566" lon="6.65701">
        <ele>198.14624</ele>
        <time>2010-10-10T08:54:48Z</time>
      </trkpt>
      <trkpt lat="43.56575" lon="6.65699">
        <ele>198.236557</ele>
        <time>2010-10-10T08:54:51Z</time>
      </trkpt>
      <trkpt lat="43.56611" lon="6.6569">
        <ele>198.743958</ele>
        <time>2010-10-10T08:55:05Z</time>
      </trkpt>
      <trkpt lat="43.56646" lon="6.65679">
        <ele>199.067581</ele>
        <time>2010-10-10T08:55:22Z</time>
      </trkpt>
      <trkpt lat="43.56673" lon="6.65671">
        <ele>202.426392</ele>
        <time>2010-10-10T08:55:38Z</time>
      </trkpt>
      <trkpt lat="43.56678" lon="6.65668">
        <ele>202.91684</ele>
        <time>2010-10-10T08:55:41Z</time>
      </trkpt>
      <trkpt lat="43.56691" lon="6.65668">
        <ele>204.166779</ele>
        <time>2010-10-10T08:55:47Z</time>
      </trkpt>
      <trkpt lat="43.56701" lon="6.65662">
        <ele>205.706909</ele>
        <time>2010-10-10T08:55:53Z</time>
      </trkpt>
      <trkpt lat="43.56734" lon="6.65653">
        <ele>209.996643</ele>
        <time>2010-10-10T08:56:11Z</time>
      </trkpt>
      <trkpt lat="43.5674" lon="6.65641">
        <ele>210.470245</ele>
        <time>2010-10-10T08:56:17Z</time>
      </trkpt>
      <trkpt lat="43.56751" lon="6.65619">
        <ele>211.175186</ele>
        <time>2010-10-10T08:56:28Z</time>
      </trkpt>
      <trkpt lat="43.56766" lon="6.656">
        <ele>212.540451</ele>
        <time>2010-10-10T08:56:40Z</time>
      </trkpt>
      <trkpt lat="43.56779" lon="6.65596">
        <ele>213.554382</ele>
        <time>2010-10-10T08:56:46Z</time>
      </trkpt>
      <trkpt lat="43.56787" lon="6.65581">
        <ele>214.195541</ele>
        <time>2010-10-10T08:56:53Z</time>
      </trkpt>
      <trkpt lat="43.5683" lon="6.65484">
        <ele>218.082153</ele>
        <time>2010-10-10T08:57:25Z</time>
      </trkpt>
      <trkpt lat="43.56841" lon="6.65458">
        <ele>217.936752</ele>
        <time>2010-10-10T08:57:34Z</time>
      </trkpt>
      <trkpt lat="43.56843" lon="6.65439">
        <ele>217.978165</ele>
        <time>2010-10-10T08:57:41Z</time>
      </trkpt>
      <trkpt lat="43.56843" lon="6.65426">
        <ele>218.197601</ele>
        <time>2010-10-10T08:57:46Z</time>
      </trkpt>
      <trkpt lat="43.56839" lon="6.65415">
        <ele>218.470581</ele>
        <time>2010-10-10T08:57:52Z</time>
      </trkpt>
      <trkpt lat="43.56832" lon="6.65411">
        <ele>219.096634</ele>
        <time>2010-10-10T08:57:55Z</time>
      </trkpt>
      <trkpt lat="43.56802" lon="6.65392">
        <ele>223.334763</ele>
        <time>2010-10-10T08:58:15Z</time>
      </trkpt>
      <trkpt lat="43.56789" lon="6.65387">
        <ele>225.144165</ele>
        <time>2010-10-10T08:58:23Z</time>
      </trkpt>
      <trkpt lat="43.56781" lon="6.65383">
        <ele>226.479172</ele>
        <time>2010-10-10T08:58:29Z</time>
      </trkpt>
      <trkpt lat="43.56772" lon="6.65381">
        <ele>227.726059</ele>
        <time>2010-10-10T08:58:35Z</time>
      </trkpt>
      <trkpt lat="43.56764" lon="6.65377">
        <ele>229.053787</ele>
        <time>2010-10-10T08:58:41Z</time>
      </trkpt>
      <trkpt lat="43.56753" lon="6.65366">
        <ele>231.015778</ele>
        <time>2010-10-10T08:58:52Z</time>
      </trkpt>
      <trkpt lat="43.56738" lon="6.65355">
        <ele>233.737869</ele>
        <time>2010-10-10T08:59:05Z</time>
      </trkpt>
      <trkpt lat="43.56731" lon="6.65349">
        <ele>234.975204</ele>
        <time>2010-10-10T08:59:11Z</time>
      </trkpt>
      <trkpt lat="43.56725" lon="6.65344">
        <ele>236.086487</ele>
        <time>2010-10-10T08:59:17Z</time>
      </trkpt>
      <trkpt lat="43.56719" lon="6.65338">
        <ele>237.271942</ele>
        <time>2010-10-10T08:59:22Z</time>
      </trkpt>
      <trkpt lat="43.56712" lon="6.65332">
        <ele>238.428818</ele>
        <time>2010-10-10T08:59:29Z</time>
      </trkpt>
      <trkpt lat="43.56695" lon="6.65308">
        <ele>242.114105</ele>
        <time>2010-10-10T08:59:46Z</time>
      </trkpt>
      <trkpt lat="43.56693" lon="6.65306">
        <ele>242.587952</ele>
        <time>2010-10-10T08:59:47Z</time>
      </trkpt>
      <trkpt lat="43.56691" lon="6.65302">
        <ele>243.161758</ele>
        <time>2010-10-10T08:59:50Z</time>
      </trkpt>
      <trkpt lat="43.5668" lon="6.65284">
        <ele>245.921295</ele>
        <time>2010-10-10T09:00:02Z</time>
      </trkpt>
      <trkpt lat="43.56678" lon="6.65282">
        <ele>246.424515</ele>
        <time>2010-10-10T09:00:04Z</time>
      </trkpt>
      <trkpt lat="43.56673" lon="6.65276">
        <ele>247.552032</ele>
        <time>2010-10-10T09:00:08Z</time>
      </trkpt>
      <trkpt lat="43.56671" lon="6.65272">
        <ele>248.180023</ele>
        <time>2010-10-10T09:00:11Z</time>
      </trkpt>
      <trkpt lat="43.56667" lon="6.65265">
        <ele>249.339325</ele>
        <time>2010-10-10T09:00:16Z</time>
      </trkpt>
      <trkpt lat="43.56656" lon="6.65241">
        <ele>252.240723</ele>
        <time>2010-10-10T09:00:29Z</time>
      </trkpt>
      <trkpt lat="43.5665" lon="6.65233">
        <ele>253.334976</ele>
        <time>2010-10-10T09:00:35Z</time>
      </trkpt>
      <trkpt lat="43.56646" lon="6.65222">
        <ele>253.942703</ele>
        <time>2010-10-10T09:00:40Z</time>
      </trkpt>
      <trkpt lat="43.56635" lon="6.65216">
        <ele>255.957825</ele>
        <time>2010-10-10T09:00:47Z</time>
      </trkpt>
      <trkpt lat="43.56626" lon="6.65203">
        <ele>257.382019</ele>
        <time>2010-10-10T09:00:53Z</time>
      </trkpt>
      <trkpt lat="43.56622" lon="6.6519">
        <ele>257.937561</ele>
        <time>2010-10-10T09:00:59Z</time>
      </trkpt>
      <trkpt lat="43.56613" lon="6.6513">
        <ele>253.737244</ele>
        <time>2010-10-10T09:01:16Z</time>
      </trkpt>
      <trkpt lat="43.56622" lon="6.65096">
        <ele>248.429916</ele>
        <time>2010-10-10T09:01:23Z</time>
      </trkpt>
      <trkpt lat="43.56624" lon="6.65076">
        <ele>245.481766</ele>
        <time>2010-10-10T09:01:26Z</time>
      </trkpt>
      <trkpt lat="43.56635" lon="6.64969">
        <ele>242.175415</ele>
        <time>2010-10-10T09:01:40Z</time>
      </trkpt>
      <trkpt lat="43.5662" lon="6.64932">
        <ele>243.087814</ele>
        <time>2010-10-10T09:01:45Z</time>
      </trkpt>
      <trkpt lat="43.56609" lon="6.64902">
        <ele>241.457001</ele>
        <time>2010-10-10T09:01:48Z</time>
      </trkpt>
      <trkpt lat="43.56605" lon="6.64892">
        <ele>241.251022</ele>
        <time>2010-10-10T09:01:49Z</time>
      </trkpt>
      <trkpt lat="43.56603" lon="6.64883">
        <ele>241.181274</ele>
        <time>2010-10-10T09:01:50Z</time>
      </trkpt>
      <trkpt lat="43.56607" lon="6.64851">
        <ele>239.192535</ele>
        <time>2010-10-10T09:01:54Z</time>
      </trkpt>
      <trkpt lat="43.56609" lon="6.64842">
        <ele>238.44162</ele>
        <time>2010-10-10T09:01:55Z</time>
      </trkpt>
      <trkpt lat="43.56613" lon="6.64814">
        <ele>236.21608</ele>
        <time>2010-10-10T09:01:59Z</time>
      </trkpt>
      <trkpt lat="43.56613" lon="6.64793">
        <ele>234.099808</ele>
        <time>2010-10-10T09:02:02Z</time>
      </trkpt>
      <trkpt lat="43.56616" lon="6.6478">
        <ele>232.674011</ele>
        <time>2010-10-10T09:02:04Z</time>
      </trkpt>
      <trkpt lat="43.5662" lon="6.64737">
        <ele>228.751984</ele>
        <time>2010-10-10T09:02:10Z</time>
      </trkpt>
      <trkpt lat="43.56631" lon="6.64737">
        <ele>228.62677</ele>
        <time>2010-10-10T09:02:14Z</time>
      </trkpt>
      <trkpt lat="43.56654" lon="6.64729">
        <ele>226.184708</ele>
        <time>2010-10-10T09:02:19Z</time>
      </trkpt>
      <trkpt lat="43.56682" lon="6.64705">
        <ele>223.659637</ele>
        <time>2010-10-10T09:02:25Z</time>
      </trkpt>
      <trkpt lat="43.56699" lon="6.6469">
        <ele>221.158249</ele>
        <time>2010-10-10T09:02:29Z</time>
      </trkpt>
      <trkpt lat="43.56719" lon="6.64675">
        <ele>217.102036</ele>
        <time>2010-10-10T09:02:33Z</time>
      </trkpt>
      <trkpt lat="43.56723" lon="6.64673">
        <ele>216.244492</ele>
        <time>2010-10-10T09:02:34Z</time>
      </trkpt>
      <trkpt lat="43.56742" lon="6.64675">
        <ele>211.87056</ele>
        <time>2010-10-10T09:02:40Z</time>
      </trkpt>
      <trkpt lat="43.56751" lon="6.64677">
        <ele>209.717377</ele>
        <time>2010-10-10T09:02:43Z</time>
      </trkpt>
      <trkpt lat="43.56757" lon="6.64681">
        <ele>208.150314</ele>
        <time>2010-10-10T09:02:46Z</time>
      </trkpt>
      <trkpt lat="43.56761" lon="6.64688">
        <ele>207.177322</ele>
        <time>2010-10-10T09:02:48Z</time>
      </trkpt>
      <trkpt lat="43.56776" lon="6.64707">
        <ele>204.21611</ele>
        <time>2010-10-10T09:02:53Z</time>
      </trkpt>
      <trkpt lat="43.56791" lon="6.6472">
        <ele>202.219193</ele>
        <time>2010-10-10T09:02:57Z</time>
      </trkpt>
      <trkpt lat="43.56804" lon="6.64726">
        <ele>200.081833</ele>
        <time>2010-10-10T09:03:00Z</time>
      </trkpt>
      <trkpt lat="43.56839" lon="6.64752">
        <ele>198.648285</ele>
        <time>2010-10-10T09:03:10Z</time>
      </trkpt>
      <trkpt lat="43.56837" lon="6.64742">
        <ele>198.641571</ele>
        <time>2010-10-10T09:03:13Z</time>
      </trkpt>
      <trkpt lat="43.56834" lon="6.64733">
        <ele>198.549789</ele>
        <time>2010-10-10T09:03:15Z</time>
      </trkpt>
      <trkpt lat="43.56834" lon="6.6472">
        <ele>198.583755</ele>
        <time>2010-10-10T09:03:18Z</time>
      </trkpt>
      <trkpt lat="43.56839" lon="6.64707">
        <ele>199.060623</ele>
        <time>2010-10-10T09:03:21Z</time>
      </trkpt>
      <trkpt lat="43.56845" lon="6.64677">
        <ele>197.334167</ele>
        <time>2010-10-10T09:03:29Z</time>
      </trkpt>
      <trkpt lat="43.56847" lon="6.64658">
        <ele>196.063934</ele>
        <time>2010-10-10T09:03:35Z</time>
      </trkpt>
      <trkpt lat="43.56852" lon="6.64641">
        <ele>195.934875</ele>
        <time>2010-10-10T09:03:40Z</time>
      </trkpt>
      <trkpt lat="43.56862" lon="6.64628">
        <ele>198.670319</ele>
        <time>2010-10-10T09:03:46Z</time>
      </trkpt>
      <trkpt lat="43.56869" lon="6.64611">
        <ele>199.889328</ele>
        <time>2010-10-10T09:03:52Z</time>
      </trkpt>
      <trkpt lat="43.56869" lon="6.646">
        <ele>199.4095</ele>
        <time>2010-10-10T09:03:55Z</time>
      </trkpt>
      <trkpt lat="43.56869" lon="6.64587">
        <ele>198.833694</ele>
        <time>2010-10-10T09:03:59Z</time>
      </trkpt>
      <trkpt lat="43.56873" lon="6.6457">
        <ele>200.939545</ele>
        <time>2010-10-10T09:04:04Z</time>
      </trkpt>
      <trkpt lat="43.5689" lon="6.64533">
        <ele>208.713272</ele>
        <time>2010-10-10T09:04:16Z</time>
      </trkpt>
      <trkpt lat="43.56888" lon="6.64529">
        <ele>208.077316</ele>
        <time>2010-10-10T09:04:18Z</time>
      </trkpt>
      <trkpt lat="43.56875" lon="6.64501">
        <ele>207.221237</ele>
        <time>2010-10-10T09:04:28Z</time>
      </trkpt>
      <trkpt lat="43.56873" lon="6.6448">
        <ele>210.194061</ele>
        <time>2010-10-10T09:04:35Z</time>
      </trkpt>
      <trkpt lat="43.56871" lon="6.64465">
        <ele>212.284744</ele>
        <time>2010-10-10T09:04:39Z</time>
      </trkpt>
      <trkpt lat="43.56869" lon="6.64458">
        <ele>212.683319</ele>
        <time>2010-10-10T09:04:41Z</time>
      </trkpt>
      <trkpt lat="43.56882" lon="6.6442">
        <ele>210.694794</ele>
        <time>2010-10-10T09:04:52Z</time>
      </trkpt>
      <trkpt lat="43.56884" lon="6.64415">
        <ele>210.706833</ele>
        <time>2010-10-10T09:04:53Z</time>
      </trkpt>
      <trkpt lat="43.56892" lon="6.64394">
        <ele>209.896576</ele>
        <time>2010-10-10T09:04:59Z</time>
      </trkpt>
      <trkpt lat="43.56899" lon="6.64385">
        <ele>209.430954</ele>
        <time>2010-10-10T09:05:02Z</time>
      </trkpt>
      <trkpt lat="43.56914" lon="6.64372">
        <ele>209.291641</ele>
        <time>2010-10-10T09:05:09Z</time>
      </trkpt>
      <trkpt lat="43.56922" lon="6.64366">
        <ele>209.076279</ele>
        <time>2010-10-10T09:05:12Z</time>
      </trkpt>
      <trkpt lat="43.56935" lon="6.64357">
        <ele>207.631134</ele>
        <time>2010-10-10T09:05:17Z</time>
      </trkpt>
      <trkpt lat="43.56952" lon="6.64349">
        <ele>207.140701</ele>
        <time>2010-10-10T09:05:23Z</time>
      </trkpt>
      <trkpt lat="43.56961" lon="6.64357">
        <ele>209.481033</ele>
        <time>2010-10-10T09:05:26Z</time>
      </trkpt>
      <trkpt lat="43.56965" lon="6.64366">
        <ele>211.175797</ele>
        <time>2010-10-10T09:05:28Z</time>
      </trkpt>
      <trkpt lat="43.56976" lon="6.64379">
        <ele>214.13678</ele>
        <time>2010-10-10T09:05:32Z</time>
      </trkpt>
      <trkpt lat="43.56987" lon="6.6437">
        <ele>214.429138</ele>
        <time>2010-10-10T09:05:36Z</time>
      </trkpt>
      <trkpt lat="43.56995" lon="6.64353">
        <ele>213.985809</ele>
        <time>2010-10-10T09:05:41Z</time>
      </trkpt>
      <trkpt lat="43.57002" lon="6.6433">
        <ele>212.604233</ele>
        <time>2010-10-10T09:05:47Z</time>
      </trkpt>
      <trkpt lat="43.57015" lon="6.64312">
        <ele>212.445572</ele>
        <time>2010-10-10T09:05:53Z</time>
      </trkpt>
      <trkpt lat="43.57028" lon="6.64297">
        <ele>212.581741</ele>
        <time>2010-10-10T09:05:59Z</time>
      </trkpt>
      <trkpt lat="43.57098" lon="6.64254">
        <ele>217.276901</ele>
        <time>2010-10-10T09:06:22Z</time>
      </trkpt>
      <trkpt lat="43.57092" lon="6.64246">
        <ele>217.556076</ele>
        <time>2010-10-10T09:06:26Z</time>
      </trkpt>
      <trkpt lat="43.57088" lon="6.64246">
        <ele>217.461273</ele>
        <time>2010-10-10T09:06:27Z</time>
      </trkpt>
      <trkpt lat="43.57081" lon="6.64242">
        <ele>217.432358</ele>
        <time>2010-10-10T09:06:29Z</time>
      </trkpt>
      <trkpt lat="43.57075" lon="6.64237">
        <ele>217.331223</ele>
        <time>2010-10-10T09:06:32Z</time>
      </trkpt>
      <trkpt lat="43.5707" lon="6.64235">
        <ele>217.217743</ele>
        <time>2010-10-10T09:06:34Z</time>
      </trkpt>
      <trkpt lat="43.57049" lon="6.64233">
        <ele>216.380447</ele>
        <time>2010-10-10T09:06:41Z</time>
      </trkpt>
      <trkpt lat="43.57028" lon="6.64239">
        <ele>214.766281</ele>
        <time>2010-10-10T09:06:47Z</time>
      </trkpt>
      <trkpt lat="43.56989" lon="6.64252">
        <ele>209.821121</ele>
        <time>2010-10-10T09:06:59Z</time>
      </trkpt>
      <trkpt lat="43.56974" lon="6.64244">
        <ele>209.529236</ele>
        <time>2010-10-10T09:07:04Z</time>
      </trkpt>
      <trkpt lat="43.56974" lon="6.64222">
        <ele>212.60054</ele>
        <time>2010-10-10T09:07:08Z</time>
      </trkpt>
      <trkpt lat="43.56978" lon="6.64205">
        <ele>214.171997</ele>
        <time>2010-10-10T09:07:11Z</time>
      </trkpt>
      <trkpt lat="43.56982" lon="6.64188">
        <ele>215.542694</ele>
        <time>2010-10-10T09:07:14Z</time>
      </trkpt>
      <trkpt lat="43.57002" lon="6.64145">
        <ele>217.08989</ele>
        <time>2010-10-10T09:07:22Z</time>
      </trkpt>
      <trkpt lat="43.57021" lon="6.64066">
        <ele>206.634583</ele>
        <time>2010-10-10T09:07:34Z</time>
      </trkpt>
      <trkpt lat="43.57051" lon="6.64066">
        <ele>206.351852</ele>
        <time>2010-10-10T09:07:39Z</time>
      </trkpt>
      <trkpt lat="43.57068" lon="6.64072">
        <ele>207.528152</ele>
        <time>2010-10-10T09:07:42Z</time>
      </trkpt>
      <trkpt lat="43.57079" lon="6.64053">
        <ele>203.499512</ele>
        <time>2010-10-10T09:07:47Z</time>
      </trkpt>
      <trkpt lat="43.57079" lon="6.64046">
        <ele>202.03775</ele>
        <time>2010-10-10T09:07:48Z</time>
      </trkpt>
      <trkpt lat="43.57079" lon="6.6404">
        <ele>200.619675</ele>
        <time>2010-10-10T09:07:49Z</time>
      </trkpt>
      <trkpt lat="43.57107" lon="6.63995">
        <ele>194.369034</ele>
        <time>2010-10-10T09:07:58Z</time>
      </trkpt>
      <trkpt lat="43.57111" lon="6.63993">
        <ele>194.34346</ele>
        <time>2010-10-10T09:07:59Z</time>
      </trkpt>
      <trkpt lat="43.57146" lon="6.64014">
        <ele>196.354004</ele>
        <time>2010-10-10T09:08:06Z</time>
      </trkpt>
      <trkpt lat="43.57167" lon="6.64031">
        <ele>197.694092</ele>
        <time>2010-10-10T09:08:10Z</time>
      </trkpt>
      <trkpt lat="43.57203" lon="6.64046">
        <ele>197.41243</ele>
        <time>2010-10-10T09:08:17Z</time>
      </trkpt>
      <trkpt lat="43.57212" lon="6.64018">
        <ele>199.122208</ele>
        <time>2010-10-10T09:08:24Z</time>
      </trkpt>
      <trkpt lat="43.57208" lon="6.64006">
        <ele>199.204407</ele>
        <time>2010-10-10T09:08:27Z</time>
      </trkpt>
      <trkpt lat="43.57193" lon="6.63954">
        <ele>195.922012</ele>
        <time>2010-10-10T09:08:41Z</time>
      </trkpt>
      <trkpt lat="43.57197" lon="6.63937">
        <ele>197.004593</ele>
        <time>2010-10-10T09:08:46Z</time>
      </trkpt>
      <trkpt lat="43.57203" lon="6.63918">
        <ele>196.634171</ele>
        <time>2010-10-10T09:08:52Z</time>
      </trkpt>
      <trkpt lat="43.57214" lon="6.639">
        <ele>194.596619</ele>
        <time>2010-10-10T09:08:58Z</time>
      </trkpt>
      <trkpt lat="43.57253" lon="6.63896">
        <ele>198.709686</ele>
        <time>2010-10-10T09:09:11Z</time>
      </trkpt>
      <trkpt lat="43.57266" lon="6.63892">
        <ele>199.475067</ele>
        <time>2010-10-10T09:09:16Z</time>
      </trkpt>
      <trkpt lat="43.57266" lon="6.639">
        <ele>201.92218</ele>
        <time>2010-10-10T09:09:19Z</time>
      </trkpt>
      <trkpt lat="43.57264" lon="6.63903">
        <ele>202.172714</ele>
        <time>2010-10-10T09:09:20Z</time>
      </trkpt>
      <trkpt lat="43.57261" lon="6.63905">
        <ele>202.41983</ele>
        <time>2010-10-10T09:09:21Z</time>
      </trkpt>
      <trkpt lat="43.57257" lon="6.63911">
        <ele>203.509888</ele>
        <time>2010-10-10T09:09:25Z</time>
      </trkpt>
      <trkpt lat="43.57255" lon="6.63913">
        <ele>203.791763</ele>
        <time>2010-10-10T09:09:26Z</time>
      </trkpt>
      <trkpt lat="43.57244" lon="6.63933">
        <ele>206.932495</ele>
        <time>2010-10-10T09:09:35Z</time>
      </trkpt>
      <trkpt lat="43.57238" lon="6.63941">
        <ele>205.786819</ele>
        <time>2010-10-10T09:09:40Z</time>
      </trkpt>
      <trkpt lat="43.57238" lon="6.63943">
        <ele>205.788803</ele>
        <time>2010-10-10T09:09:41Z</time>
      </trkpt>
      <trkpt lat="43.57236" lon="6.63958">
        <ele>205.402039</ele>
        <time>2010-10-10T09:09:47Z</time>
      </trkpt>
      <trkpt lat="43.5724" lon="6.63973">
        <ele>206.246155</ele>
        <time>2010-10-10T09:09:53Z</time>
      </trkpt>
      <trkpt lat="43.57244" lon="6.63984">
        <ele>207.122589</ele>
        <time>2010-10-10T09:09:58Z</time>
      </trkpt>
      <trkpt lat="43.57257" lon="6.6399">
        <ele>209.567383</ele>
        <time>2010-10-10T09:10:05Z</time>
      </trkpt>
      <trkpt lat="43.57266" lon="6.63997">
        <ele>210.356369</ele>
        <time>2010-10-10T09:10:10Z</time>
      </trkpt>
      <trkpt lat="43.57276" lon="6.63995">
        <ele>212.584518</ele>
        <time>2010-10-10T09:10:16Z</time>
      </trkpt>
      <trkpt lat="43.57281" lon="6.63978">
        <ele>213.486084</ele>
        <time>2010-10-10T09:10:24Z</time>
      </trkpt>
      <trkpt lat="43.57281" lon="6.63975">
        <ele>213.512695</ele>
        <time>2010-10-10T09:10:25Z</time>
      </trkpt>
      <trkpt lat="43.57285" lon="6.63952">
        <ele>214.595688</ele>
        <time>2010-10-10T09:10:34Z</time>
      </trkpt>
      <trkpt lat="43.57296" lon="6.63941">
        <ele>216.853302</ele>
        <time>2010-10-10T09:10:41Z</time>
      </trkpt>
      <trkpt lat="43.57304" lon="6.63937">
        <ele>218.274551</ele>
        <time>2010-10-10T09:10:46Z</time>
      </trkpt>
      <trkpt lat="43.57315" lon="6.63935">
        <ele>218.952347</ele>
        <time>2010-10-10T09:10:53Z</time>
      </trkpt>
      <trkpt lat="43.57322" lon="6.63937">
        <ele>219.850006</ele>
        <time>2010-10-10T09:10:56Z</time>
      </trkpt>
      <trkpt lat="43.57334" lon="6.63937">
        <ele>220.879028</ele>
        <time>2010-10-10T09:11:02Z</time>
      </trkpt>
      <trkpt lat="43.57341" lon="6.63937">
        <ele>221.294403</ele>
        <time>2010-10-10T09:11:05Z</time>
      </trkpt>
      <trkpt lat="43.57386" lon="6.63933">
        <ele>221.785294</ele>
        <time>2010-10-10T09:11:28Z</time>
      </trkpt>
      <trkpt lat="43.57388" lon="6.63933">
        <ele>221.86705</ele>
        <time>2010-10-10T09:11:29Z</time>
      </trkpt>
      <trkpt lat="43.57399" lon="6.63937">
        <ele>222.556946</ele>
        <time>2010-10-10T09:11:35Z</time>
      </trkpt>
      <trkpt lat="43.57412" lon="6.63939">
        <ele>221.850128</ele>
        <time>2010-10-10T09:11:41Z</time>
      </trkpt>
      <trkpt lat="43.5742" lon="6.63945">
        <ele>222.607819</ele>
        <time>2010-10-10T09:11:47Z</time>
      </trkpt>
      <trkpt lat="43.57435" lon="6.63973">
        <ele>226.52449</ele>
        <time>2010-10-10T09:11:59Z</time>
      </trkpt>
      <trkpt lat="43.57444" lon="6.64027">
        <ele>234.457474</ele>
        <time>2010-10-10T09:12:20Z</time>
      </trkpt>
      <trkpt lat="43.57444" lon="6.64029">
        <ele>234.592438</ele>
        <time>2010-10-10T09:12:21Z</time>
      </trkpt>
      <trkpt lat="43.57448" lon="6.64048">
        <ele>236.088379</ele>
        <time>2010-10-10T09:12:28Z</time>
      </trkpt>
      <trkpt lat="43.57452" lon="6.64068">
        <ele>237.79129</ele>
        <time>2010-10-10T09:12:35Z</time>
      </trkpt>
      <trkpt lat="43.57459" lon="6.64085">
        <ele>237.530899</ele>
        <time>2010-10-10T09:12:41Z</time>
      </trkpt>
      <trkpt lat="43.57476" lon="6.64111">
        <ele>238.706345</ele>
        <time>2010-10-10T09:12:53Z</time>
      </trkpt>
      <trkpt lat="43.57508" lon="6.64136">
        <ele>240.331192</ele>
        <time>2010-10-10T09:13:11Z</time>
      </trkpt>
      <trkpt lat="43.57512" lon="6.64147">
        <ele>239.966904</ele>
        <time>2010-10-10T09:13:15Z</time>
      </trkpt>
      <trkpt lat="43.57517" lon="6.6416">
        <ele>239.863022</ele>
        <time>2010-10-10T09:13:20Z</time>
      </trkpt>
      <trkpt lat="43.57525" lon="6.64184">
        <ele>239.335632</ele>
        <time>2010-10-10T09:13:28Z</time>
      </trkpt>
      <trkpt lat="43.57536" lon="6.64194">
        <ele>239.609528</ele>
        <time>2010-10-10T09:13:34Z</time>
      </trkpt>
      <trkpt lat="43.57543" lon="6.64194">
        <ele>240.044281</ele>
        <time>2010-10-10T09:13:37Z</time>
      </trkpt>
      <trkpt lat="43.57545" lon="6.64194">
        <ele>240.18869</ele>
        <time>2010-10-10T09:13:38Z</time>
      </trkpt>
      <trkpt lat="43.57555" lon="6.64192">
        <ele>240.974838</ele>
        <time>2010-10-10T09:13:42Z</time>
      </trkpt>
      <trkpt lat="43.57568" lon="6.64188">
        <ele>241.717438</ele>
        <time>2010-10-10T09:13:47Z</time>
      </trkpt>
      <trkpt lat="43.57583" lon="6.64188">
        <ele>242.263123</ele>
        <time>2010-10-10T09:13:53Z</time>
      </trkpt>
      <trkpt lat="43.57594" lon="6.64184">
        <ele>242.902771</ele>
        <time>2010-10-10T09:13:58Z</time>
      </trkpt>
      <trkpt lat="43.57605" lon="6.64171">
        <ele>244.150208</ele>
        <time>2010-10-10T09:14:05Z</time>
      </trkpt>
      <trkpt lat="43.57613" lon="6.6416">
        <ele>245.182266</ele>
        <time>2010-10-10T09:14:11Z</time>
      </trkpt>
      <trkpt lat="43.57643" lon="6.64158">
        <ele>246.36261</ele>
        <time>2010-10-10T09:14:23Z</time>
      </trkpt>
      <trkpt lat="43.57654" lon="6.64169">
        <ele>246.305984</ele>
        <time>2010-10-10T09:14:29Z</time>
      </trkpt>
      <trkpt lat="43.57688" lon="6.64205">
        <ele>246.648041</ele>
        <time>2010-10-10T09:14:47Z</time>
      </trkpt>
      <trkpt lat="43.57699" lon="6.64209">
        <ele>246.847473</ele>
        <time>2010-10-10T09:14:52Z</time>
      </trkpt>
      <trkpt lat="43.57716" lon="6.64218">
        <ele>246.619125</ele>
        <time>2010-10-10T09:14:59Z</time>
      </trkpt>
      <trkpt lat="43.57727" lon="6.64227">
        <ele>246.60759</ele>
        <time>2010-10-10T09:15:05Z</time>
      </trkpt>
      <trkpt lat="43.57736" lon="6.64235">
        <ele>246.695251</ele>
        <time>2010-10-10T09:15:10Z</time>
      </trkpt>
      <trkpt lat="43.57755" lon="6.64259">
        <ele>247.121094</ele>
        <time>2010-10-10T09:15:23Z</time>
      </trkpt>
      <trkpt lat="43.57764" lon="6.64263">
        <ele>247.182312</ele>
        <time>2010-10-10T09:15:28Z</time>
      </trkpt>
      <trkpt lat="43.57772" lon="6.64274">
        <ele>247.655853</ele>
        <time>2010-10-10T09:15:35Z</time>
      </trkpt>
      <trkpt lat="43.57781" lon="6.64287">
        <ele>248.392105</ele>
        <time>2010-10-10T09:15:41Z</time>
      </trkpt>
      <trkpt lat="43.57794" lon="6.64317">
        <ele>251.473419</ele>
        <time>2010-10-10T09:15:53Z</time>
      </trkpt>
      <trkpt lat="43.578" lon="6.6433">
        <ele>253.090469</ele>
        <time>2010-10-10T09:15:59Z</time>
      </trkpt>
      <trkpt lat="43.57815" lon="6.64357">
        <ele>256.775085</ele>
        <time>2010-10-10T09:16:11Z</time>
      </trkpt>
      <trkpt lat="43.57819" lon="6.64375">
        <ele>258.41449</ele>
        <time>2010-10-10T09:16:17Z</time>
      </trkpt>
      <trkpt lat="43.57819" lon="6.6439">
        <ele>259.439636</ele>
        <time>2010-10-10T09:16:22Z</time>
      </trkpt>
      <trkpt lat="43.57826" lon="6.6446">
        <ele>261.411407</ele>
        <time>2010-10-10T09:16:47Z</time>
      </trkpt>
      <trkpt lat="43.57826" lon="6.64463">
        <ele>261.412811</ele>
        <time>2010-10-10T09:16:48Z</time>
      </trkpt>
      <trkpt lat="43.5783" lon="6.64478">
        <ele>261.348328</ele>
        <time>2010-10-10T09:16:53Z</time>
      </trkpt>
      <trkpt lat="43.57836" lon="6.64493">
        <ele>261.113007</ele>
        <time>2010-10-10T09:16:59Z</time>
      </trkpt>
      <trkpt lat="43.57852" lon="6.64501">
        <ele>261.776062</ele>
        <time>2010-10-10T09:17:06Z</time>
      </trkpt>
      <trkpt lat="43.57856" lon="6.64497">
        <ele>262.274353</ele>
        <time>2010-10-10T09:17:11Z</time>
      </trkpt>
      <trkpt lat="43.57856" lon="6.64495">
        <ele>262.37265</ele>
        <time>2010-10-10T09:17:12Z</time>
      </trkpt>
      <trkpt lat="43.57854" lon="6.64486">
        <ele>262.614868</ele>
        <time>2010-10-10T09:17:16Z</time>
      </trkpt>
      <trkpt lat="43.57852" lon="6.64473">
        <ele>263.05368</ele>
        <time>2010-10-10T09:17:22Z</time>
      </trkpt>
      <trkpt lat="43.57856" lon="6.64443">
        <ele>263.709808</ele>
        <time>2010-10-10T09:17:34Z</time>
      </trkpt>
      <trkpt lat="43.57862" lon="6.64437">
        <ele>264.287994</ele>
        <time>2010-10-10T09:17:41Z</time>
      </trkpt>
      <trkpt lat="43.57862" lon="6.64437">
        <ele>264.287994</ele>
        <time>2010-10-10T09:17:42Z</time>
      </trkpt>
      <trkpt lat="43.57862" lon="6.64439">
        <ele>264.262817</ele>
        <time>2010-10-10T09:17:47Z</time>
      </trkpt>
      <trkpt lat="43.57864" lon="6.64439">
        <ele>264.434021</ele>
        <time>2010-10-10T09:17:49Z</time>
      </trkpt>
      <trkpt lat="43.57867" lon="6.64439">
        <ele>264.595947</ele>
        <time>2010-10-10T09:17:52Z</time>
      </trkpt>
      <trkpt lat="43.57873" lon="6.64437">
        <ele>265.061829</ele>
        <time>2010-10-10T09:17:56Z</time>
      </trkpt>
      <trkpt lat="43.57879" lon="6.64443">
        <ele>265.411896</ele>
        <time>2010-10-10T09:18:00Z</time>
      </trkpt>
      <trkpt lat="43.57894" lon="6.64458">
        <ele>266.228729</ele>
        <time>2010-10-10T09:18:11Z</time>
      </trkpt>
      <trkpt lat="43.57903" lon="6.64463">
        <ele>266.753418</ele>
        <time>2010-10-10T09:18:16Z</time>
      </trkpt>
      <trkpt lat="43.57918" lon="6.64458">
        <ele>267.630768</ele>
        <time>2010-10-10T09:18:23Z</time>
      </trkpt>
      <trkpt lat="43.57927" lon="6.64452">
        <ele>268.218353</ele>
        <time>2010-10-10T09:18:28Z</time>
      </trkpt>
      <trkpt lat="43.57952" lon="6.6443">
        <ele>270.867126</ele>
        <time>2010-10-10T09:18:41Z</time>
      </trkpt>
      <trkpt lat="43.57965" lon="6.64428">
        <ele>271.917969</ele>
        <time>2010-10-10T09:18:47Z</time>
      </trkpt>
      <trkpt lat="43.58002" lon="6.64418">
        <ele>275.115784</ele>
        <time>2010-10-10T09:18:58Z</time>
      </trkpt>
      <trkpt lat="43.58012" lon="6.64407">
        <ele>276.175171</ele>
        <time>2010-10-10T09:19:04Z</time>
      </trkpt>
      <trkpt lat="43.58008" lon="6.64398">
        <ele>276.133118</ele>
        <time>2010-10-10T09:19:07Z</time>
      </trkpt>
      <trkpt lat="43.58008" lon="6.64396">
        <ele>276.196747</ele>
        <time>2010-10-10T09:19:08Z</time>
      </trkpt>
      <trkpt lat="43.58006" lon="6.6439">
        <ele>276.239319</ele>
        <time>2010-10-10T09:19:10Z</time>
      </trkpt>
      <trkpt lat="43.58004" lon="6.64383">
        <ele>276.281921</ele>
        <time>2010-10-10T09:19:13Z</time>
      </trkpt>
      <trkpt lat="43.58004" lon="6.64375">
        <ele>276.536377</ele>
        <time>2010-10-10T09:19:16Z</time>
      </trkpt>
      <trkpt lat="43.58006" lon="6.64321">
        <ele>275.192688</ele>
        <time>2010-10-10T09:19:34Z</time>
      </trkpt>
      <trkpt lat="43.58004" lon="6.64293">
        <ele>273.186279</ele>
        <time>2010-10-10T09:19:41Z</time>
      </trkpt>
      <trkpt lat="43.58004" lon="6.64291">
        <ele>272.943695</ele>
        <time>2010-10-10T09:19:42Z</time>
      </trkpt>
      <trkpt lat="43.57997" lon="6.64276">
        <ele>270.698608</ele>
        <time>2010-10-10T09:19:46Z</time>
      </trkpt>
      <trkpt lat="43.57982" lon="6.64267">
        <ele>268.720032</ele>
        <time>2010-10-10T09:19:51Z</time>
      </trkpt>
      <trkpt lat="43.57972" lon="6.6425">
        <ele>267.003418</ele>
        <time>2010-10-10T09:19:56Z</time>
      </trkpt>
      <trkpt lat="43.57967" lon="6.64248">
        <ele>266.6987</ele>
        <time>2010-10-10T09:19:57Z</time>
      </trkpt>
      <trkpt lat="43.57957" lon="6.64231">
        <ele>264.971191</ele>
        <time>2010-10-10T09:20:01Z</time>
      </trkpt>
      <trkpt lat="43.57948" lon="6.64222">
        <ele>263.446228</ele>
        <time>2010-10-10T09:20:04Z</time>
      </trkpt>
      <trkpt lat="43.57946" lon="6.64222">
        <ele>263.173767</ele>
        <time>2010-10-10T09:20:05Z</time>
      </trkpt>
      <trkpt lat="43.57929" lon="6.64212">
        <ele>260.548157</ele>
        <time>2010-10-10T09:20:17Z</time>
      </trkpt>
      <trkpt lat="43.57927" lon="6.64203">
        <ele>259.941132</ele>
        <time>2010-10-10T09:20:23Z</time>
      </trkpt>
      <trkpt lat="43.57927" lon="6.64201">
        <ele>259.856323</ele>
        <time>2010-10-10T09:20:27Z</time>
      </trkpt>
      <trkpt lat="43.57927" lon="6.64201">
        <ele>259.856323</ele>
        <time>2010-10-10T09:20:28Z</time>
      </trkpt>
      <trkpt lat="43.5792" lon="6.64196">
        <ele>258.899445</ele>
        <time>2010-10-10T09:20:40Z</time>
      </trkpt>
      <trkpt lat="43.57918" lon="6.64169">
        <ele>257.279266</ele>
        <time>2010-10-10T09:20:52Z</time>
      </trkpt>
      <trkpt lat="43.57914" lon="6.6416">
        <ele>255.631454</ele>
        <time>2010-10-10T09:20:55Z</time>
      </trkpt>
      <trkpt lat="43.57912" lon="6.64156">
        <ele>254.800308</ele>
        <time>2010-10-10T09:20:56Z</time>
      </trkpt>
      <trkpt lat="43.57905" lon="6.64143">
        <ele>252.471695</ele>
        <time>2010-10-10T09:20:59Z</time>
      </trkpt>
      <trkpt lat="43.57903" lon="6.64139">
        <ele>251.750443</ele>
        <time>2010-10-10T09:21:00Z</time>
      </trkpt>
      <trkpt lat="43.57897" lon="6.64111">
        <ele>248.784653</ele>
        <time>2010-10-10T09:21:05Z</time>
      </trkpt>
      <trkpt lat="43.5789" lon="6.64081">
        <ele>245.86235</ele>
        <time>2010-10-10T09:21:11Z</time>
      </trkpt>
      <trkpt lat="43.57888" lon="6.64072">
        <ele>245.106979</ele>
        <time>2010-10-10T09:21:13Z</time>
      </trkpt>
      <trkpt lat="43.57882" lon="6.64057">
        <ele>243.837265</ele>
        <time>2010-10-10T09:21:16Z</time>
      </trkpt>
      <trkpt lat="43.57871" lon="6.64027">
        <ele>240.978363</ele>
        <time>2010-10-10T09:21:22Z</time>
      </trkpt>
      <trkpt lat="43.57871" lon="6.64023">
        <ele>240.700592</ele>
        <time>2010-10-10T09:21:23Z</time>
      </trkpt>
      <trkpt lat="43.57864" lon="6.64008">
        <ele>239.119156</ele>
        <time>2010-10-10T09:21:26Z</time>
      </trkpt>
      <trkpt lat="43.57856" lon="6.63986">
        <ele>237.041412</ele>
        <time>2010-10-10T09:21:31Z</time>
      </trkpt>
      <trkpt lat="43.57854" lon="6.63982">
        <ele>236.60553</ele>
        <time>2010-10-10T09:21:32Z</time>
      </trkpt>
      <trkpt lat="43.57845" lon="6.63965">
        <ele>234.442154</ele>
        <time>2010-10-10T09:21:36Z</time>
      </trkpt>
      <trkpt lat="43.57836" lon="6.63941">
        <ele>231.794418</ele>
        <time>2010-10-10T09:21:41Z</time>
      </trkpt>
      <trkpt lat="43.57828" lon="6.63911">
        <ele>228.858246</ele>
        <time>2010-10-10T09:21:47Z</time>
      </trkpt>
      <trkpt lat="43.57821" lon="6.6389">
        <ele>226.512634</ele>
        <time>2010-10-10T09:21:51Z</time>
      </trkpt>
      <trkpt lat="43.57815" lon="6.63864">
        <ele>223.194336</ele>
        <time>2010-10-10T09:21:56Z</time>
      </trkpt>
      <trkpt lat="43.57811" lon="6.63851">
        <ele>221.249741</ele>
        <time>2010-10-10T09:21:58Z</time>
      </trkpt>
      <trkpt lat="43.57791" lon="6.6384">
        <ele>220.373917</ele>
        <time>2010-10-10T09:22:03Z</time>
      </trkpt>
      <trkpt lat="43.57776" lon="6.63825">
        <ele>220.487778</ele>
        <time>2010-10-10T09:22:08Z</time>
      </trkpt>
      <trkpt lat="43.57753" lon="6.63791">
        <ele>218.262985</ele>
        <time>2010-10-10T09:22:18Z</time>
      </trkpt>
      <trkpt lat="43.57746" lon="6.63778">
        <ele>216.487091</ele>
        <time>2010-10-10T09:22:20Z</time>
      </trkpt>
      <trkpt lat="43.57736" lon="6.63765">
        <ele>214.041763</ele>
        <time>2010-10-10T09:22:23Z</time>
      </trkpt>
      <trkpt lat="43.57723" lon="6.63763">
        <ele>212.829681</ele>
        <time>2010-10-10T09:22:26Z</time>
      </trkpt>
      <trkpt lat="43.57721" lon="6.63763">
        <ele>212.671371</ele>
        <time>2010-10-10T09:22:27Z</time>
      </trkpt>
      <trkpt lat="43.5771" lon="6.63765">
        <ele>212.029648</ele>
        <time>2010-10-10T09:22:30Z</time>
      </trkpt>
      <trkpt lat="43.57699" lon="6.63767">
        <ele>211.000244</ele>
        <time>2010-10-10T09:22:34Z</time>
      </trkpt>
      <trkpt lat="43.57686" lon="6.63778">
        <ele>209.998886</ele>
        <time>2010-10-10T09:22:40Z</time>
      </trkpt>
      <trkpt lat="43.57669" lon="6.63787">
        <ele>208.842987</ele>
        <time>2010-10-10T09:22:45Z</time>
      </trkpt>
      <trkpt lat="43.57635" lon="6.638">
        <ele>207.737823</ele>
        <time>2010-10-10T09:22:55Z</time>
      </trkpt>
      <trkpt lat="43.5762" lon="6.63804">
        <ele>206.915863</ele>
        <time>2010-10-10T09:23:01Z</time>
      </trkpt>
      <trkpt lat="43.57611" lon="6.63806">
        <ele>206.705185</ele>
        <time>2010-10-10T09:23:04Z</time>
      </trkpt>
      <trkpt lat="43.57609" lon="6.63808">
        <ele>206.802658</ele>
        <time>2010-10-10T09:23:05Z</time>
      </trkpt>
      <trkpt lat="43.57523" lon="6.63855">
        <ele>206.433456</ele>
        <time>2010-10-10T09:23:35Z</time>
      </trkpt>
      <trkpt lat="43.57489" lon="6.63877">
        <ele>204.762207</ele>
        <time>2010-10-10T09:23:46Z</time>
      </trkpt>
      <trkpt lat="43.57482" lon="6.63881">
        <ele>204.455597</ele>
        <time>2010-10-10T09:23:53Z</time>
      </trkpt>
      <trkpt lat="43.57476" lon="6.63881">
        <ele>204.239166</ele>
        <time>2010-10-10T09:23:56Z</time>
      </trkpt>
      <trkpt lat="43.57472" lon="6.63881">
        <ele>204.092377</ele>
        <time>2010-10-10T09:23:58Z</time>
      </trkpt>
      <trkpt lat="43.57444" lon="6.63879">
        <ele>202.938492</ele>
        <time>2010-10-10T09:24:11Z</time>
      </trkpt>
      <trkpt lat="43.57444" lon="6.63877">
        <ele>202.787491</ele>
        <time>2010-10-10T09:24:14Z</time>
      </trkpt>
      <trkpt lat="43.57444" lon="6.63875">
        <ele>202.636765</ele>
        <time>2010-10-10T09:24:22Z</time>
      </trkpt>
      <trkpt lat="43.57437" lon="6.63855">
        <ele>201.209198</ele>
        <time>2010-10-10T09:24:41Z</time>
      </trkpt>
      <trkpt lat="43.57435" lon="6.63853">
        <ele>201.080688</ele>
        <time>2010-10-10T09:24:47Z</time>
      </trkpt>
      <trkpt lat="43.57433" lon="6.63853">
        <ele>201.093674</ele>
        <time>2010-10-10T09:24:50Z</time>
      </trkpt>
      <trkpt lat="43.57433" lon="6.63851">
        <ele>200.945816</ele>
        <time>2010-10-10T09:24:51Z</time>
      </trkpt>
      <trkpt lat="43.57431" lon="6.63851">
        <ele>200.956009</ele>
        <time>2010-10-10T09:24:54Z</time>
      </trkpt>
      <trkpt lat="43.57427" lon="6.63849">
        <ele>200.81987</ele>
        <time>2010-10-10T09:25:21Z</time>
      </trkpt>
      <trkpt lat="43.57433" lon="6.63845">
        <ele>200.500687</ele>
        <time>2010-10-10T09:25:47Z</time>
      </trkpt>
      <trkpt lat="43.57422" lon="6.63838">
        <ele>200.010223</ele>
        <time>2010-10-10T09:25:53Z</time>
      </trkpt>
      <trkpt lat="43.57414" lon="6.63845">
        <ele>200.521301</ele>
        <time>2010-10-10T09:25:59Z</time>
      </trkpt>
      <trkpt lat="43.57407" lon="6.63845">
        <ele>200.53714</ele>
        <time>2010-10-10T09:26:04Z</time>
      </trkpt>
      <trkpt lat="43.57401" lon="6.63847">
        <ele>200.755539</ele>
        <time>2010-10-10T09:26:07Z</time>
      </trkpt>
      <trkpt lat="43.57399" lon="6.63857">
        <ele>201.769501</ele>
        <time>2010-10-10T09:26:13Z</time>
      </trkpt>
      <trkpt lat="43.57399" lon="6.63857">
        <ele>201.769501</ele>
        <time>2010-10-10T09:26:14Z</time>
      </trkpt>
      <trkpt lat="43.57394" lon="6.63855">
        <ele>201.619431</ele>
        <time>2010-10-10T09:26:17Z</time>
      </trkpt>
      <trkpt lat="43.5739" lon="6.63849">
        <ele>200.894836</ele>
        <time>2010-10-10T09:26:30Z</time>
      </trkpt>
      <trkpt lat="43.57386" lon="6.63845">
        <ele>200.373093</ele>
        <time>2010-10-10T09:26:33Z</time>
      </trkpt>
      <trkpt lat="43.57386" lon="6.63845">
        <ele>200.373093</ele>
        <time>2010-10-10T09:26:34Z</time>
      </trkpt>
      <trkpt lat="43.57377" lon="6.6384">
        <ele>199.7621</ele>
        <time>2010-10-10T09:26:37Z</time>
      </trkpt>
      <trkpt lat="43.57369" lon="6.63836">
        <ele>199.174042</ele>
        <time>2010-10-10T09:26:41Z</time>
      </trkpt>
      <trkpt lat="43.57341" lon="6.63823">
        <ele>197.327499</ele>
        <time>2010-10-10T09:26:53Z</time>
      </trkpt>
      <trkpt lat="43.57328" lon="6.63815">
        <ele>196.125244</ele>
        <time>2010-10-10T09:26:59Z</time>
      </trkpt>
      <trkpt lat="43.57322" lon="6.6381">
        <ele>196.390579</ele>
        <time>2010-10-10T09:27:03Z</time>
      </trkpt>
      <trkpt lat="43.57304" lon="6.638">
        <ele>198.23996</ele>
        <time>2010-10-10T09:27:11Z</time>
      </trkpt>
      <trkpt lat="43.57298" lon="6.63789">
        <ele>200.579544</ele>
        <time>2010-10-10T09:27:17Z</time>
      </trkpt>
      <trkpt lat="43.57296" lon="6.6378">
        <ele>202.702789</ele>
        <time>2010-10-10T09:27:20Z</time>
      </trkpt>
      <trkpt lat="43.57296" lon="6.63769">
        <ele>205.646347</ele>
        <time>2010-10-10T09:27:24Z</time>
      </trkpt>
      <trkpt lat="43.57298" lon="6.63742">
        <ele>211.914597</ele>
        <time>2010-10-10T09:27:35Z</time>
      </trkpt>
      <trkpt lat="43.57296" lon="6.63724">
        <ele>212.272568</ele>
        <time>2010-10-10T09:27:41Z</time>
      </trkpt>
      <trkpt lat="43.57291" lon="6.63709">
        <ele>212.194183</ele>
        <time>2010-10-10T09:27:56Z</time>
      </trkpt>
      <trkpt lat="43.57289" lon="6.63707">
        <ele>211.947144</ele>
        <time>2010-10-10T09:28:46Z</time>
      </trkpt>
      <trkpt lat="43.57266" lon="6.63679">
        <ele>208.393829</ele>
        <time>2010-10-10T09:28:57Z</time>
      </trkpt>
      <trkpt lat="43.57264" lon="6.63679">
        <ele>208.089706</ele>
        <time>2010-10-10T09:28:58Z</time>
      </trkpt>
      <trkpt lat="43.57246" lon="6.63679">
        <ele>205.629791</ele>
        <time>2010-10-10T09:29:04Z</time>
      </trkpt>
      <trkpt lat="43.57231" lon="6.63679">
        <ele>203.438171</ele>
        <time>2010-10-10T09:29:09Z</time>
      </trkpt>
      <trkpt lat="43.57214" lon="6.63679">
        <ele>201.054932</ele>
        <time>2010-10-10T09:29:15Z</time>
      </trkpt>
      <trkpt lat="43.57195" lon="6.63682">
        <ele>198.742798</ele>
        <time>2010-10-10T09:29:21Z</time>
      </trkpt>
      <trkpt lat="43.57186" lon="6.63679">
        <ele>197.467911</ele>
        <time>2010-10-10T09:29:24Z</time>
      </trkpt>
      <trkpt lat="43.57178" lon="6.63675">
        <ele>196.428375</ele>
        <time>2010-10-10T09:29:28Z</time>
      </trkpt>
      <trkpt lat="43.57169" lon="6.63664">
        <ele>197.403275</ele>
        <time>2010-10-10T09:29:34Z</time>
      </trkpt>
      <trkpt lat="43.57171" lon="6.63651">
        <ele>198.535461</ele>
        <time>2010-10-10T09:29:38Z</time>
      </trkpt>
      <trkpt lat="43.57171" lon="6.63649">
        <ele>198.742279</ele>
        <time>2010-10-10T09:29:39Z</time>
      </trkpt>
      <trkpt lat="43.57186" lon="6.6363">
        <ele>199.718033</ele>
        <time>2010-10-10T09:29:45Z</time>
      </trkpt>
      <trkpt lat="43.57223" lon="6.63598">
        <ele>200.563354</ele>
        <time>2010-10-10T09:29:58Z</time>
      </trkpt>
      <trkpt lat="43.57253" lon="6.63579">
        <ele>201.899109</ele>
        <time>2010-10-10T09:30:10Z</time>
      </trkpt>
      <trkpt lat="43.57281" lon="6.63551">
        <ele>201.848953</ele>
        <time>2010-10-10T09:30:23Z</time>
      </trkpt>
      <trkpt lat="43.57287" lon="6.6354">
        <ele>202.412277</ele>
        <time>2010-10-10T09:30:28Z</time>
      </trkpt>
      <trkpt lat="43.57309" lon="6.6351">
        <ele>202.052536</ele>
        <time>2010-10-10T09:30:48Z</time>
      </trkpt>
      <trkpt lat="43.57317" lon="6.63506">
        <ele>201.080353</ele>
        <time>2010-10-10T09:32:11Z</time>
      </trkpt>
      <trkpt lat="43.57315" lon="6.63501">
        <ele>201.489929</ele>
        <time>2010-10-10T09:32:16Z</time>
      </trkpt>
      <trkpt lat="43.57313" lon="6.63495">
        <ele>202.317078</ele>
        <time>2010-10-10T09:32:19Z</time>
      </trkpt>
      <trkpt lat="43.57313" lon="6.63493">
        <ele>202.501785</ele>
        <time>2010-10-10T09:32:20Z</time>
      </trkpt>
      <trkpt lat="43.57313" lon="6.63486">
        <ele>203.055893</ele>
        <time>2010-10-10T09:32:23Z</time>
      </trkpt>
      <trkpt lat="43.57311" lon="6.6348">
        <ele>203.883041</ele>
        <time>2010-10-10T09:32:27Z</time>
      </trkpt>
      <trkpt lat="43.57311" lon="6.63478">
        <ele>204.067734</ele>
        <time>2010-10-10T09:32:28Z</time>
      </trkpt>
      <trkpt lat="43.57306" lon="6.63452">
        <ele>206.830246</ele>
        <time>2010-10-10T09:32:41Z</time>
      </trkpt>
      <trkpt lat="43.57306" lon="6.63441">
        <ele>207.753769</ele>
        <time>2010-10-10T09:32:46Z</time>
      </trkpt>
      <trkpt lat="43.573" lon="6.63409">
        <ele>210.634171</ele>
        <time>2010-10-10T09:32:59Z</time>
      </trkpt>
      <trkpt lat="43.5727" lon="6.63336">
        <ele>215.79689</ele>
        <time>2010-10-10T09:33:31Z</time>
      </trkpt>
      <trkpt lat="43.57266" lon="6.63327">
        <ele>216.324356</ele>
        <time>2010-10-10T09:33:35Z</time>
      </trkpt>
      <trkpt lat="43.57264" lon="6.63321">
        <ele>216.539215</ele>
        <time>2010-10-10T09:33:40Z</time>
      </trkpt>
      <trkpt lat="43.57259" lon="6.63312">
        <ele>216.89151</ele>
        <time>2010-10-10T09:33:46Z</time>
      </trkpt>
      <trkpt lat="43.57249" lon="6.63293">
        <ele>218.156158</ele>
        <time>2010-10-10T09:34:00Z</time>
      </trkpt>
      <trkpt lat="43.57246" lon="6.63293">
        <ele>218.302063</ele>
        <time>2010-10-10T09:34:02Z</time>
      </trkpt>
      <trkpt lat="43.57231" lon="6.63282">
        <ele>220.271301</ele>
        <time>2010-10-10T09:34:16Z</time>
      </trkpt>
      <trkpt lat="43.57231" lon="6.63282">
        <ele>220.271301</ele>
        <time>2010-10-10T09:34:17Z</time>
      </trkpt>
      <trkpt lat="43.57214" lon="6.63274">
        <ele>224.147644</ele>
        <time>2010-10-10T09:34:34Z</time>
      </trkpt>
      <trkpt lat="43.57203" lon="6.63261">
        <ele>225.943192</ele>
        <time>2010-10-10T09:34:46Z</time>
      </trkpt>
      <trkpt lat="43.57199" lon="6.63259">
        <ele>226.709106</ele>
        <time>2010-10-10T09:34:49Z</time>
      </trkpt>
      <trkpt lat="43.57197" lon="6.63257">
        <ele>227.011459</ele>
        <time>2010-10-10T09:34:51Z</time>
      </trkpt>
      <trkpt lat="43.57193" lon="6.63257">
        <ele>227.882538</ele>
        <time>2010-10-10T09:34:54Z</time>
      </trkpt>
      <trkpt lat="43.57182" lon="6.63252">
        <ele>229.963654</ele>
        <time>2010-10-10T09:35:04Z</time>
      </trkpt>
      <trkpt lat="43.57182" lon="6.63252">
        <ele>229.963654</ele>
        <time>2010-10-10T09:35:05Z</time>
      </trkpt>
      <trkpt lat="43.57171" lon="6.6325">
        <ele>232.220947</ele>
        <time>2010-10-10T09:35:11Z</time>
      </trkpt>
      <trkpt lat="43.57165" lon="6.6325">
        <ele>233.652115</ele>
        <time>2010-10-10T09:35:16Z</time>
      </trkpt>
      <trkpt lat="43.57158" lon="6.63254">
        <ele>235.282455</ele>
        <time>2010-10-10T09:35:22Z</time>
      </trkpt>
      <trkpt lat="43.57146" lon="6.63259">
        <ele>238.02478</ele>
        <time>2010-10-10T09:35:34Z</time>
      </trkpt>
      <trkpt lat="43.57137" lon="6.63259">
        <ele>238.930893</ele>
        <time>2010-10-10T09:35:40Z</time>
      </trkpt>
      <trkpt lat="43.57128" lon="6.63257">
        <ele>239.796219</ele>
        <time>2010-10-10T09:35:47Z</time>
      </trkpt>
      <trkpt lat="43.57107" lon="6.63244">
        <ele>242.389938</ele>
        <time>2010-10-10T09:36:04Z</time>
      </trkpt>
      <trkpt lat="43.57088" lon="6.63235">
        <ele>244.746063</ele>
        <time>2010-10-10T09:36:17Z</time>
      </trkpt>
      <trkpt lat="43.57075" lon="6.63227">
        <ele>246.752197</ele>
        <time>2010-10-10T09:36:27Z</time>
      </trkpt>
      <trkpt lat="43.57075" lon="6.63224">
        <ele>247.003235</ele>
        <time>2010-10-10T09:36:28Z</time>
      </trkpt>
      <trkpt lat="43.57066" lon="6.63214">
        <ele>248.735046</ele>
        <time>2010-10-10T09:36:35Z</time>
      </trkpt>
      <trkpt lat="43.5706" lon="6.63188">
        <ele>251.509888</ele>
        <time>2010-10-10T09:36:52Z</time>
      </trkpt>
      <trkpt lat="43.57055" lon="6.63184">
        <ele>251.178452</ele>
        <time>2010-10-10T09:36:58Z</time>
      </trkpt>
      <trkpt lat="43.57051" lon="6.63179">
        <ele>250.783432</ele>
        <time>2010-10-10T09:37:04Z</time>
      </trkpt>
      <trkpt lat="43.57045" lon="6.63164">
        <ele>250.670013</ele>
        <time>2010-10-10T09:37:07Z</time>
      </trkpt>
      <trkpt lat="43.57043" lon="6.63104">
        <ele>253.24469</ele>
        <time>2010-10-10T09:37:17Z</time>
      </trkpt>
      <trkpt lat="43.5704" lon="6.63064">
        <ele>251.13356</ele>
        <time>2010-10-10T09:37:23Z</time>
      </trkpt>
      <trkpt lat="43.57038" lon="6.63057">
        <ele>250.285782</ele>
        <time>2010-10-10T09:37:24Z</time>
      </trkpt>
      <trkpt lat="43.57036" lon="6.63046">
        <ele>249.473053</ele>
        <time>2010-10-10T09:37:26Z</time>
      </trkpt>
      <trkpt lat="43.57036" lon="6.63036">
        <ele>250.104462</ele>
        <time>2010-10-10T09:37:28Z</time>
      </trkpt>
      <trkpt lat="43.57038" lon="6.63021">
        <ele>251.587982</ele>
        <time>2010-10-10T09:37:31Z</time>
      </trkpt>
      <trkpt lat="43.5704" lon="6.63006">
        <ele>253.037735</ele>
        <time>2010-10-10T09:37:34Z</time>
      </trkpt>
      <trkpt lat="43.57049" lon="6.6298">
        <ele>256.933289</ele>
        <time>2010-10-10T09:37:40Z</time>
      </trkpt>
      <trkpt lat="43.57051" lon="6.62954">
        <ele>259.810852</ele>
        <time>2010-10-10T09:37:46Z</time>
      </trkpt>
      <trkpt lat="43.57047" lon="6.62926">
        <ele>261.624786</ele>
        <time>2010-10-10T09:37:52Z</time>
      </trkpt>
      <trkpt lat="43.57038" lon="6.62948">
        <ele>257.701385</ele>
        <time>2010-10-10T09:37:57Z</time>
      </trkpt>
      <trkpt lat="43.57028" lon="6.62967">
        <ele>253.154175</ele>
        <time>2010-10-10T09:38:03Z</time>
      </trkpt>
      <trkpt lat="43.5701" lon="6.62991">
        <ele>248.377335</ele>
        <time>2010-10-10T09:38:11Z</time>
      </trkpt>
      <trkpt lat="43.57" lon="6.63008">
        <ele>246.203247</ele>
        <time>2010-10-10T09:38:17Z</time>
      </trkpt>
      <trkpt lat="43.56991" lon="6.6301">
        <ele>245.327866</ele>
        <time>2010-10-10T09:38:22Z</time>
      </trkpt>
      <trkpt lat="43.56989" lon="6.62976">
        <ele>247.819199</ele>
        <time>2010-10-10T09:38:35Z</time>
      </trkpt>
      <trkpt lat="43.56991" lon="6.62961">
        <ele>249.919022</ele>
        <time>2010-10-10T09:38:40Z</time>
      </trkpt>
      <trkpt lat="43.56997" lon="6.62926">
        <ele>254.869751</ele>
        <time>2010-10-10T09:38:53Z</time>
      </trkpt>
      <trkpt lat="43.57002" lon="6.62911">
        <ele>256.809692</ele>
        <time>2010-10-10T09:38:59Z</time>
      </trkpt>
      <trkpt lat="43.57008" lon="6.62877">
        <ele>259.963745</ele>
        <time>2010-10-10T09:39:11Z</time>
      </trkpt>
      <trkpt lat="43.5701" lon="6.62862">
        <ele>261.103241</ele>
        <time>2010-10-10T09:39:17Z</time>
      </trkpt>
      <trkpt lat="43.57015" lon="6.62849">
        <ele>262.429993</ele>
        <time>2010-10-10T09:39:22Z</time>
      </trkpt>
      <trkpt lat="43.57051" lon="6.628">
        <ele>271.487732</ele>
        <time>2010-10-10T09:39:48Z</time>
      </trkpt>
      <trkpt lat="43.57058" lon="6.62806">
        <ele>271.807465</ele>
        <time>2010-10-10T09:39:52Z</time>
      </trkpt>
      <trkpt lat="43.57062" lon="6.62817">
        <ele>271.570709</ele>
        <time>2010-10-10T09:39:57Z</time>
      </trkpt>
      <trkpt lat="43.57073" lon="6.62864">
        <ele>269.93988</ele>
        <time>2010-10-10T09:40:14Z</time>
      </trkpt>
      <trkpt lat="43.57083" lon="6.6292">
        <ele>269.784821</ele>
        <time>2010-10-10T09:40:35Z</time>
      </trkpt>
      <trkpt lat="43.57088" lon="6.6293">
        <ele>270.347778</ele>
        <time>2010-10-10T09:40:40Z</time>
      </trkpt>
      <trkpt lat="43.57107" lon="6.62952">
        <ele>274.390991</ele>
        <time>2010-10-10T09:40:53Z</time>
      </trkpt>
      <trkpt lat="43.57116" lon="6.62963">
        <ele>276.022797</ele>
        <time>2010-10-10T09:40:59Z</time>
      </trkpt>
      <trkpt lat="43.57131" lon="6.62982">
        <ele>276.780548</ele>
        <time>2010-10-10T09:41:10Z</time>
      </trkpt>
      <trkpt lat="43.57146" lon="6.63008">
        <ele>276.79538</ele>
        <time>2010-10-10T09:41:22Z</time>
      </trkpt>
      <trkpt lat="43.57148" lon="6.6301">
        <ele>276.829163</ele>
        <time>2010-10-10T09:41:23Z</time>
      </trkpt>
      <trkpt lat="43.57156" lon="6.63018">
        <ele>276.900787</ele>
        <time>2010-10-10T09:41:28Z</time>
      </trkpt>
      <trkpt lat="43.57165" lon="6.63023">
        <ele>274.945923</ele>
        <time>2010-10-10T09:41:34Z</time>
      </trkpt>
      <trkpt lat="43.57163" lon="6.63003">
        <ele>277.94458</ele>
        <time>2010-10-10T09:41:40Z</time>
      </trkpt>
      <trkpt lat="43.57161" lon="6.62995">
        <ele>279.471741</ele>
        <time>2010-10-10T09:41:43Z</time>
      </trkpt>
      <trkpt lat="43.57161" lon="6.62993">
        <ele>279.527161</ele>
        <time>2010-10-10T09:41:44Z</time>
      </trkpt>
      <trkpt lat="43.57158" lon="6.62986">
        <ele>280.142365</ele>
        <time>2010-10-10T09:41:46Z</time>
      </trkpt>
      <trkpt lat="43.57158" lon="6.62967">
        <ele>280.376617</ele>
        <time>2010-10-10T09:41:53Z</time>
      </trkpt>
      <trkpt lat="43.57158" lon="6.62933">
        <ele>280.915314</ele>
        <time>2010-10-10T09:42:05Z</time>
      </trkpt>
      <trkpt lat="43.57158" lon="6.62924">
        <ele>281.447235</ele>
        <time>2010-10-10T09:42:08Z</time>
      </trkpt>
      <trkpt lat="43.57161" lon="6.62913">
        <ele>282.265564</ele>
        <time>2010-10-10T09:42:12Z</time>
      </trkpt>
      <trkpt lat="43.57161" lon="6.629">
        <ele>283.063446</ele>
        <time>2010-10-10T09:42:17Z</time>
      </trkpt>
      <trkpt lat="43.57161" lon="6.62877">
        <ele>284.526184</ele>
        <time>2010-10-10T09:42:26Z</time>
      </trkpt>
      <trkpt lat="43.57165" lon="6.62858">
        <ele>285.76767</ele>
        <time>2010-10-10T09:42:34Z</time>
      </trkpt>
      <trkpt lat="43.57197" lon="6.62778">
        <ele>288.549957</ele>
        <time>2010-10-10T09:43:00Z</time>
      </trkpt>
      <trkpt lat="43.57206" lon="6.6275">
        <ele>290.212433</ele>
        <time>2010-10-10T09:43:10Z</time>
      </trkpt>
      <trkpt lat="43.57225" lon="6.62716">
        <ele>291.148071</ele>
        <time>2010-10-10T09:43:22Z</time>
      </trkpt>
      <trkpt lat="43.57231" lon="6.62697">
        <ele>292.120453</ele>
        <time>2010-10-10T09:43:28Z</time>
      </trkpt>
      <trkpt lat="43.5724" lon="6.62656">
        <ele>289.92868</ele>
        <time>2010-10-10T09:43:41Z</time>
      </trkpt>
      <trkpt lat="43.57244" lon="6.62639">
        <ele>288.994019</ele>
        <time>2010-10-10T09:43:46Z</time>
      </trkpt>
      <trkpt lat="43.57251" lon="6.62621">
        <ele>288.098083</ele>
        <time>2010-10-10T09:43:51Z</time>
      </trkpt>
      <trkpt lat="43.57266" lon="6.62591">
        <ele>286.957886</ele>
        <time>2010-10-10T09:43:56Z</time>
      </trkpt>
      <trkpt lat="43.57272" lon="6.62576">
        <ele>286.186066</ele>
        <time>2010-10-10T09:43:58Z</time>
      </trkpt>
      <trkpt lat="43.57268" lon="6.62555">
        <ele>285.289734</ele>
        <time>2010-10-10T09:44:04Z</time>
      </trkpt>
      <trkpt lat="43.57268" lon="6.62553">
        <ele>285.189301</ele>
        <time>2010-10-10T09:44:05Z</time>
      </trkpt>
      <trkpt lat="43.57268" lon="6.62551">
        <ele>285.08847</ele>
        <time>2010-10-10T09:44:08Z</time>
      </trkpt>
      <trkpt lat="43.57268" lon="6.62551">
        <ele>285.08847</ele>
        <time>2010-10-10T09:44:10Z</time>
      </trkpt>
      <trkpt lat="43.57266" lon="6.62546">
        <ele>284.801941</ele>
        <time>2010-10-10T09:45:21Z</time>
      </trkpt>
      <trkpt lat="43.5727" lon="6.62542">
        <ele>284.739471</ele>
        <time>2010-10-10T09:48:59Z</time>
      </trkpt>
      <trkpt lat="43.57268" lon="6.62542">
        <ele>284.681244</ele>
        <time>2010-10-10T09:49:29Z</time>
      </trkpt>
      <trkpt lat="43.57264" lon="6.62536">
        <ele>283.775085</ele>
        <time>2010-10-10T09:49:34Z</time>
      </trkpt>
      <trkpt lat="43.57283" lon="6.62506">
        <ele>283.697784</ele>
        <time>2010-10-10T09:49:41Z</time>
      </trkpt>
      <trkpt lat="43.57291" lon="6.62499">
        <ele>283.782501</ele>
        <time>2010-10-10T09:49:44Z</time>
      </trkpt>
      <trkpt lat="43.57311" lon="6.62482">
        <ele>284.289429</ele>
        <time>2010-10-10T09:49:49Z</time>
      </trkpt>
      <trkpt lat="43.57322" lon="6.62473">
        <ele>283.703461</ele>
        <time>2010-10-10T09:49:51Z</time>
      </trkpt>
      <trkpt lat="43.57332" lon="6.62458">
        <ele>282.50415</ele>
        <time>2010-10-10T09:49:54Z</time>
      </trkpt>
      <trkpt lat="43.57341" lon="6.62441">
        <ele>281.184143</ele>
        <time>2010-10-10T09:49:57Z</time>
      </trkpt>
      <trkpt lat="43.57345" lon="6.62435">
        <ele>280.634338</ele>
        <time>2010-10-10T09:49:58Z</time>
      </trkpt>
      <trkpt lat="43.5736" lon="6.62443">
        <ele>280.500549</ele>
        <time>2010-10-10T09:50:01Z</time>
      </trkpt>
      <trkpt lat="43.57364" lon="6.6245">
        <ele>280.259674</ele>
        <time>2010-10-10T09:50:02Z</time>
      </trkpt>
      <trkpt lat="43.57379" lon="6.62478">
        <ele>279.430878</ele>
        <time>2010-10-10T09:50:07Z</time>
      </trkpt>
      <trkpt lat="43.57412" lon="6.62516">
        <ele>276.844452</ele>
        <time>2010-10-10T09:50:17Z</time>
      </trkpt>
      <trkpt lat="43.57452" lon="6.62544">
        <ele>272.578278</ele>
        <time>2010-10-10T09:50:28Z</time>
      </trkpt>
      <trkpt lat="43.575" lon="6.6251">
        <ele>268.988953</ele>
        <time>2010-10-10T09:50:39Z</time>
      </trkpt>
      <trkpt lat="43.57538" lon="6.62499">
        <ele>267.540863</ele>
        <time>2010-10-10T09:50:49Z</time>
      </trkpt>
      <trkpt lat="43.57585" lon="6.62493">
        <ele>270.531281</ele>
        <time>2010-10-10T09:51:02Z</time>
      </trkpt>
      <trkpt lat="43.57615" lon="6.62488">
        <ele>274.234589</ele>
        <time>2010-10-10T09:51:09Z</time>
      </trkpt>
      <trkpt lat="43.57626" lon="6.62495">
        <ele>275.069031</ele>
        <time>2010-10-10T09:51:12Z</time>
      </trkpt>
      <trkpt lat="43.5763" lon="6.62495">
        <ele>275.497559</ele>
        <time>2010-10-10T09:51:13Z</time>
      </trkpt>
      <trkpt lat="43.57643" lon="6.62491">
        <ele>276.983978</ele>
        <time>2010-10-10T09:51:16Z</time>
      </trkpt>
      <trkpt lat="43.57648" lon="6.62488">
        <ele>277.550446</ele>
        <time>2010-10-10T09:51:18Z</time>
      </trkpt>
      <trkpt lat="43.57654" lon="6.62486">
        <ele>278.321228</ele>
        <time>2010-10-10T09:51:21Z</time>
      </trkpt>
      <trkpt lat="43.57682" lon="6.62491">
        <ele>279.790009</ele>
        <time>2010-10-10T09:51:34Z</time>
      </trkpt>
      <trkpt lat="43.57733" lon="6.62473">
        <ele>280.568604</ele>
        <time>2010-10-10T09:51:59Z</time>
      </trkpt>
      <trkpt lat="43.57751" lon="6.62458">
        <ele>280.557129</ele>
        <time>2010-10-10T09:52:10Z</time>
      </trkpt>
      <trkpt lat="43.57764" lon="6.62446">
        <ele>280.880554</ele>
        <time>2010-10-10T09:52:18Z</time>
      </trkpt>
      <trkpt lat="43.5777" lon="6.62433">
        <ele>281.158112</ele>
        <time>2010-10-10T09:52:22Z</time>
      </trkpt>
      <trkpt lat="43.57772" lon="6.62431">
        <ele>281.125885</ele>
        <time>2010-10-10T09:52:23Z</time>
      </trkpt>
      <trkpt lat="43.57776" lon="6.62422">
        <ele>281.326233</ele>
        <time>2010-10-10T09:52:26Z</time>
      </trkpt>
      <trkpt lat="43.57791" lon="6.62396">
        <ele>281.30838</ele>
        <time>2010-10-10T09:52:35Z</time>
      </trkpt>
      <trkpt lat="43.57809" lon="6.62362">
        <ele>282.125366</ele>
        <time>2010-10-10T09:52:47Z</time>
      </trkpt>
      <trkpt lat="43.57815" lon="6.62347">
        <ele>282.192413</ele>
        <time>2010-10-10T09:52:52Z</time>
      </trkpt>
      <trkpt lat="43.57826" lon="6.62321">
        <ele>282.083069</ele>
        <time>2010-10-10T09:52:59Z</time>
      </trkpt>
      <trkpt lat="43.57832" lon="6.6231">
        <ele>282.053253</ele>
        <time>2010-10-10T09:53:01Z</time>
      </trkpt>
      <trkpt lat="43.57849" lon="6.62285">
        <ele>281.190643</ele>
        <time>2010-10-10T09:53:06Z</time>
      </trkpt>
      <trkpt lat="43.57877" lon="6.62265">
        <ele>280.666473</ele>
        <time>2010-10-10T09:53:12Z</time>
      </trkpt>
      <trkpt lat="43.57935" lon="6.62261">
        <ele>279.685181</ele>
        <time>2010-10-10T09:53:21Z</time>
      </trkpt>
      <trkpt lat="43.57946" lon="6.62259">
        <ele>279.586914</ele>
        <time>2010-10-10T09:53:23Z</time>
      </trkpt>
      <trkpt lat="43.57978" lon="6.62244">
        <ele>279.367065</ele>
        <time>2010-10-10T09:53:29Z</time>
      </trkpt>
      <trkpt lat="43.57991" lon="6.6224">
        <ele>278.974915</ele>
        <time>2010-10-10T09:53:32Z</time>
      </trkpt>
      <trkpt lat="43.58012" lon="6.62242">
        <ele>278.469177</ele>
        <time>2010-10-10T09:53:36Z</time>
      </trkpt>
      <trkpt lat="43.58032" lon="6.62263">
        <ele>277.962585</ele>
        <time>2010-10-10T09:53:41Z</time>
      </trkpt>
      <trkpt lat="43.58036" lon="6.62267">
        <ele>277.739716</ele>
        <time>2010-10-10T09:53:42Z</time>
      </trkpt>
      <trkpt lat="43.58047" lon="6.62259">
        <ele>278.333344</ele>
        <time>2010-10-10T09:53:48Z</time>
      </trkpt>
      <trkpt lat="43.58047" lon="6.62225">
        <ele>277.834015</ele>
        <time>2010-10-10T09:53:55Z</time>
      </trkpt>
      <trkpt lat="43.58045" lon="6.62216">
        <ele>277.392975</ele>
        <time>2010-10-10T09:53:57Z</time>
      </trkpt>
      <trkpt lat="43.5804" lon="6.6219">
        <ele>276.837463</ele>
        <time>2010-10-10T09:54:05Z</time>
      </trkpt>
      <trkpt lat="43.5804" lon="6.62188">
        <ele>276.719574</ele>
        <time>2010-10-10T09:54:08Z</time>
      </trkpt>
      <trkpt lat="43.58042" lon="6.6219">
        <ele>276.796387</ele>
        <time>2010-10-10T09:54:40Z</time>
      </trkpt>
      <trkpt lat="43.58042" lon="6.62184">
        <ele>276.460876</ele>
        <time>2010-10-10T09:54:43Z</time>
      </trkpt>
      <trkpt lat="43.58036" lon="6.62173">
        <ele>275.859222</ele>
        <time>2010-10-10T09:54:46Z</time>
      </trkpt>
      <trkpt lat="43.58032" lon="6.62164">
        <ele>275.24588</ele>
        <time>2010-10-10T09:54:48Z</time>
      </trkpt>
      <trkpt lat="43.57995" lon="6.62091">
        <ele>266.021301</ele>
        <time>2010-10-10T09:54:58Z</time>
      </trkpt>
      <trkpt lat="43.57989" lon="6.62083">
        <ele>265.295532</ele>
        <time>2010-10-10T09:54:59Z</time>
      </trkpt>
      <trkpt lat="43.57952" lon="6.62049">
        <ele>261.295349</ele>
        <time>2010-10-10T09:55:04Z</time>
      </trkpt>
      <trkpt lat="43.57873" lon="6.62081">
        <ele>260.066528</ele>
        <time>2010-10-10T09:55:12Z</time>
      </trkpt>
      <trkpt lat="43.57867" lon="6.62085">
        <ele>260.562866</ele>
        <time>2010-10-10T09:55:13Z</time>
      </trkpt>
      <trkpt lat="43.57862" lon="6.62087">
        <ele>260.940887</ele>
        <time>2010-10-10T09:55:15Z</time>
      </trkpt>
      <trkpt lat="43.57862" lon="6.62087">
        <ele>260.940887</ele>
        <time>2010-10-10T09:55:17Z</time>
      </trkpt>
      <trkpt lat="43.57871" lon="6.62087">
        <ele>261.211365</ele>
        <time>2010-10-10T09:55:20Z</time>
      </trkpt>
      <trkpt lat="43.57875" lon="6.62085">
        <ele>261.215759</ele>
        <time>2010-10-10T09:55:23Z</time>
      </trkpt>
      <trkpt lat="43.57875" lon="6.62087">
        <ele>261.672394</ele>
        <time>2010-10-10T09:55:26Z</time>
      </trkpt>
      <trkpt lat="43.57864" lon="6.62094">
        <ele>262.279785</ele>
        <time>2010-10-10T09:55:33Z</time>
      </trkpt>
      <trkpt lat="43.57828" lon="6.62107">
        <ele>262.923645</ele>
        <time>2010-10-10T09:55:49Z</time>
      </trkpt>
      <trkpt lat="43.57828" lon="6.62107">
        <ele>262.923645</ele>
        <time>2010-10-10T09:55:52Z</time>
      </trkpt>
      <trkpt lat="43.57794" lon="6.62119">
        <ele>260.616302</ele>
        <time>2010-10-10T09:56:03Z</time>
      </trkpt>
      <trkpt lat="43.57759" lon="6.6213">
        <ele>258.125641</ele>
        <time>2010-10-10T09:56:08Z</time>
      </trkpt>
      <trkpt lat="43.57742" lon="6.62132">
        <ele>256.770508</ele>
        <time>2010-10-10T09:56:10Z</time>
      </trkpt>
      <trkpt lat="43.57714" lon="6.62139">
        <ele>254.682373</ele>
        <time>2010-10-10T09:56:13Z</time>
      </trkpt>
      <trkpt lat="43.57673" lon="6.62145">
        <ele>250.446503</ele>
        <time>2010-10-10T09:56:17Z</time>
      </trkpt>
      <trkpt lat="43.57643" lon="6.62149">
        <ele>246.928101</ele>
        <time>2010-10-10T09:56:20Z</time>
      </trkpt>
      <trkpt lat="43.57553" lon="6.62158">
        <ele>244.959473</ele>
        <time>2010-10-10T09:56:29Z</time>
      </trkpt>
      <trkpt lat="43.57545" lon="6.6216">
        <ele>244.528946</ele>
        <time>2010-10-10T09:56:30Z</time>
      </trkpt>
      <trkpt lat="43.57493" lon="6.62164">
        <ele>238.930054</ele>
        <time>2010-10-10T09:56:35Z</time>
      </trkpt>
      <trkpt lat="43.57487" lon="6.6216">
        <ele>237.112625</ele>
        <time>2010-10-10T09:56:36Z</time>
      </trkpt>
      <trkpt lat="43.57478" lon="6.62158">
        <ele>235.422028</ele>
        <time>2010-10-10T09:56:37Z</time>
      </trkpt>
      <trkpt lat="43.57482" lon="6.62147">
        <ele>234.440948</ele>
        <time>2010-10-10T09:56:38Z</time>
      </trkpt>
      <trkpt lat="43.57502" lon="6.62126">
        <ele>234.351883</ele>
        <time>2010-10-10T09:56:41Z</time>
      </trkpt>
      <trkpt lat="43.57534" lon="6.62104">
        <ele>234.614914</ele>
        <time>2010-10-10T09:56:45Z</time>
      </trkpt>
      <trkpt lat="43.57585" lon="6.62076">
        <ele>233.951752</ele>
        <time>2010-10-10T09:56:51Z</time>
      </trkpt>
      <trkpt lat="43.57592" lon="6.6207">
        <ele>233.615921</ele>
        <time>2010-10-10T09:56:52Z</time>
      </trkpt>
      <trkpt lat="43.57639" lon="6.62027">
        <ele>235.013138</ele>
        <time>2010-10-10T09:56:58Z</time>
      </trkpt>
      <trkpt lat="43.57665" lon="6.61935">
        <ele>229.297302</ele>
        <time>2010-10-10T09:57:05Z</time>
      </trkpt>
      <trkpt lat="43.57682" lon="6.61898">
        <ele>227.454269</ele>
        <time>2010-10-10T09:57:08Z</time>
      </trkpt>
      <trkpt lat="43.57699" lon="6.61864">
        <ele>226.426544</ele>
        <time>2010-10-10T09:57:11Z</time>
      </trkpt>
      <trkpt lat="43.57723" lon="6.61823">
        <ele>223.369049</ele>
        <time>2010-10-10T09:57:15Z</time>
      </trkpt>
      <trkpt lat="43.57729" lon="6.6181">
        <ele>221.938858</ele>
        <time>2010-10-10T09:57:16Z</time>
      </trkpt>
      <trkpt lat="43.57744" lon="6.61795">
        <ele>219.991943</ele>
        <time>2010-10-10T09:57:19Z</time>
      </trkpt>
      <trkpt lat="43.5774" lon="6.6177">
        <ele>215.840927</ele>
        <time>2010-10-10T09:57:24Z</time>
      </trkpt>
      <trkpt lat="43.57733" lon="6.61767">
        <ele>215.509033</ele>
        <time>2010-10-10T09:57:26Z</time>
      </trkpt>
      <trkpt lat="43.57723" lon="6.61767">
        <ele>215.521225</ele>
        <time>2010-10-10T09:57:28Z</time>
      </trkpt>
      <trkpt lat="43.57706" lon="6.61774">
        <ele>216.475662</ele>
        <time>2010-10-10T09:57:31Z</time>
      </trkpt>
      <trkpt lat="43.57686" lon="6.61772">
        <ele>214.885162</ele>
        <time>2010-10-10T09:57:34Z</time>
      </trkpt>
      <trkpt lat="43.57661" lon="6.61767">
        <ele>212.203262</ele>
        <time>2010-10-10T09:57:38Z</time>
      </trkpt>
      <trkpt lat="43.57652" lon="6.6177">
        <ele>211.625427</ele>
        <time>2010-10-10T09:57:40Z</time>
      </trkpt>
      <trkpt lat="43.57641" lon="6.61767">
        <ele>210.240265</ele>
        <time>2010-10-10T09:57:42Z</time>
      </trkpt>
      <trkpt lat="43.5762" lon="6.61755">
        <ele>206.755524</ele>
        <time>2010-10-10T09:57:47Z</time>
      </trkpt>
      <trkpt lat="43.57609" lon="6.61748">
        <ele>205.058594</ele>
        <time>2010-10-10T09:57:49Z</time>
      </trkpt>
      <trkpt lat="43.57596" lon="6.61744">
        <ele>203.118927</ele>
        <time>2010-10-10T09:57:51Z</time>
      </trkpt>
      <trkpt lat="43.57583" lon="6.61729">
        <ele>200.110611</ele>
        <time>2010-10-10T09:57:54Z</time>
      </trkpt>
      <trkpt lat="43.57566" lon="6.6171">
        <ele>195.980469</ele>
        <time>2010-10-10T09:57:58Z</time>
      </trkpt>
      <trkpt lat="43.57568" lon="6.61677">
        <ele>192.961212</ele>
        <time>2010-10-10T09:58:02Z</time>
      </trkpt>
      <trkpt lat="43.5757" lon="6.61671">
        <ele>192.57373</ele>
        <time>2010-10-10T09:58:03Z</time>
      </trkpt>
      <trkpt lat="43.57581" lon="6.61656">
        <ele>191.646133</ele>
        <time>2010-10-10T09:58:06Z</time>
      </trkpt>
      <trkpt lat="43.57579" lon="6.61639">
        <ele>188.793579</ele>
        <time>2010-10-10T09:58:10Z</time>
      </trkpt>
      <trkpt lat="43.57577" lon="6.61634">
        <ele>187.965881</ele>
        <time>2010-10-10T09:58:11Z</time>
      </trkpt>
      <trkpt lat="43.57543" lon="6.61647">
        <ele>186.544495</ele>
        <time>2010-10-10T09:58:19Z</time>
      </trkpt>
      <trkpt lat="43.57536" lon="6.61645">
        <ele>185.660355</ele>
        <time>2010-10-10T09:58:20Z</time>
      </trkpt>
      <trkpt lat="43.57525" lon="6.61643">
        <ele>184.430176</ele>
        <time>2010-10-10T09:58:22Z</time>
      </trkpt>
      <trkpt lat="43.57497" lon="6.61645">
        <ele>182.711395</ele>
        <time>2010-10-10T09:58:27Z</time>
      </trkpt>
      <trkpt lat="43.57474" lon="6.61647">
        <ele>181.409073</ele>
        <time>2010-10-10T09:58:31Z</time>
      </trkpt>
      <trkpt lat="43.57455" lon="6.61652">
        <ele>180.43898</ele>
        <time>2010-10-10T09:58:34Z</time>
      </trkpt>
      <trkpt lat="43.57444" lon="6.61656">
        <ele>179.561981</ele>
        <time>2010-10-10T09:58:36Z</time>
      </trkpt>
      <trkpt lat="43.57433" lon="6.61662">
        <ele>179.593262</ele>
        <time>2010-10-10T09:58:38Z</time>
      </trkpt>
      <trkpt lat="43.57429" lon="6.61667">
        <ele>179.897949</ele>
        <time>2010-10-10T09:58:39Z</time>
      </trkpt>
      <trkpt lat="43.57416" lon="6.61677">
        <ele>180.704483</ele>
        <time>2010-10-10T09:58:41Z</time>
      </trkpt>
      <trkpt lat="43.57403" lon="6.61695">
        <ele>182.211182</ele>
        <time>2010-10-10T09:58:44Z</time>
      </trkpt>
      <trkpt lat="43.57394" lon="6.61705">
        <ele>183.235733</ele>
        <time>2010-10-10T09:58:46Z</time>
      </trkpt>
      <trkpt lat="43.57384" lon="6.61703">
        <ele>183.021942</ele>
        <time>2010-10-10T09:58:49Z</time>
      </trkpt>
      <trkpt lat="43.57382" lon="6.61701">
        <ele>182.819443</ele>
        <time>2010-10-10T09:58:50Z</time>
      </trkpt>
      <trkpt lat="43.57371" lon="6.6169">
        <ele>181.950012</ele>
        <time>2010-10-10T09:58:55Z</time>
      </trkpt>
      <trkpt lat="43.57364" lon="6.61682">
        <ele>181.395157</ele>
        <time>2010-10-10T09:58:59Z</time>
      </trkpt>
      <trkpt lat="43.57352" lon="6.61671">
        <ele>180.98584</ele>
        <time>2010-10-10T09:59:05Z</time>
      </trkpt>
      <trkpt lat="43.57337" lon="6.61662">
        <ele>180.905228</ele>
        <time>2010-10-10T09:59:11Z</time>
      </trkpt>
      <trkpt lat="43.57328" lon="6.61662">
        <ele>181.046936</ele>
        <time>2010-10-10T09:59:27Z</time>
      </trkpt>
      <trkpt lat="43.57334" lon="6.61671">
        <ele>181.040512</ele>
        <time>2010-10-10T10:00:47Z</time>
      </trkpt>
      <trkpt lat="43.57332" lon="6.6168">
        <ele>181.073776</ele>
        <time>2010-10-10T10:00:52Z</time>
      </trkpt>
      <trkpt lat="43.57324" lon="6.61686">
        <ele>180.599503</ele>
        <time>2010-10-10T10:00:58Z</time>
      </trkpt>
      <trkpt lat="43.57283" lon="6.61701">
        <ele>177.156815</ele>
        <time>2010-10-10T10:01:06Z</time>
      </trkpt>
      <trkpt lat="43.57173" lon="6.61714">
        <ele>178.753632</ele>
        <time>2010-10-10T10:01:30Z</time>
      </trkpt>
      <trkpt lat="43.57128" lon="6.61714">
        <ele>179.528976</ele>
        <time>2010-10-10T10:01:40Z</time>
      </trkpt>
      <trkpt lat="43.57025" lon="6.61742">
        <ele>176.989761</ele>
        <time>2010-10-10T10:02:03Z</time>
      </trkpt>
      <trkpt lat="43.57017" lon="6.61742">
        <ele>176.959183</ele>
        <time>2010-10-10T10:02:05Z</time>
      </trkpt>
      <trkpt lat="43.56959" lon="6.6172">
        <ele>177.693939</ele>
        <time>2010-10-10T10:02:20Z</time>
      </trkpt>
      <trkpt lat="43.56952" lon="6.61701">
        <ele>176.629395</ele>
        <time>2010-10-10T10:02:23Z</time>
      </trkpt>
      <trkpt lat="43.5695" lon="6.61692">
        <ele>176.014084</ele>
        <time>2010-10-10T10:02:24Z</time>
      </trkpt>
      <trkpt lat="43.5692" lon="6.61585">
        <ele>169.127838</ele>
        <time>2010-10-10T10:02:41Z</time>
      </trkpt>
      <trkpt lat="43.5691" lon="6.61555">
        <ele>166.34137</ele>
        <time>2010-10-10T10:02:47Z</time>
      </trkpt>
      <trkpt lat="43.56897" lon="6.61536">
        <ele>164.30072</ele>
        <time>2010-10-10T10:02:52Z</time>
      </trkpt>
      <trkpt lat="43.56886" lon="6.61534">
        <ele>163.847946</ele>
        <time>2010-10-10T10:02:56Z</time>
      </trkpt>
      <trkpt lat="43.56882" lon="6.61536">
        <ele>163.750427</ele>
        <time>2010-10-10T10:02:57Z</time>
      </trkpt>
      <trkpt lat="43.56869" lon="6.61546">
        <ele>163.509857</ele>
        <time>2010-10-10T10:03:03Z</time>
      </trkpt>
      <trkpt lat="43.56867" lon="6.61549">
        <ele>163.467438</ele>
        <time>2010-10-10T10:03:04Z</time>
      </trkpt>
      <trkpt lat="43.5686" lon="6.61564">
        <ele>164.151093</ele>
        <time>2010-10-10T10:03:10Z</time>
      </trkpt>
      <trkpt lat="43.56856" lon="6.61596">
        <ele>166.117889</ele>
        <time>2010-10-10T10:03:22Z</time>
      </trkpt>
      <trkpt lat="43.56856" lon="6.61598">
        <ele>166.260345</ele>
        <time>2010-10-10T10:03:23Z</time>
      </trkpt>
      <trkpt lat="43.56856" lon="6.61611">
        <ele>167.115036</ele>
        <time>2010-10-10T10:03:28Z</time>
      </trkpt>
      <trkpt lat="43.56856" lon="6.61626">
        <ele>168.849777</ele>
        <time>2010-10-10T10:03:34Z</time>
      </trkpt>
      <trkpt lat="43.56854" lon="6.61634">
        <ele>169.753952</ele>
        <time>2010-10-10T10:03:38Z</time>
      </trkpt>
      <trkpt lat="43.56852" lon="6.61639">
        <ele>170.144302</ele>
        <time>2010-10-10T10:03:40Z</time>
      </trkpt>
      <trkpt lat="43.56845" lon="6.6166">
        <ele>172.231918</ele>
        <time>2010-10-10T10:03:52Z</time>
      </trkpt>
      <trkpt lat="43.56843" lon="6.61688">
        <ele>175.702209</ele>
        <time>2010-10-10T10:04:05Z</time>
      </trkpt>
      <trkpt lat="43.56834" lon="6.61725">
        <ele>180.482864</ele>
        <time>2010-10-10T10:04:22Z</time>
      </trkpt>
      <trkpt lat="43.5683" lon="6.61744">
        <ele>182.851959</ele>
        <time>2010-10-10T10:04:32Z</time>
      </trkpt>
      <trkpt lat="43.56828" lon="6.61752">
        <ele>183.800735</ele>
        <time>2010-10-10T10:04:36Z</time>
      </trkpt>
      <trkpt lat="43.56828" lon="6.61757">
        <ele>184.289871</ele>
        <time>2010-10-10T10:04:38Z</time>
      </trkpt>
      <trkpt lat="43.56826" lon="6.61783">
        <ele>187.19516</ele>
        <time>2010-10-10T10:04:49Z</time>
      </trkpt>
      <trkpt lat="43.5683" lon="6.61821">
        <ele>190.804901</ele>
        <time>2010-10-10T10:05:05Z</time>
      </trkpt>
      <trkpt lat="43.5683" lon="6.61832">
        <ele>191.681046</ele>
        <time>2010-10-10T10:05:10Z</time>
      </trkpt>
      <trkpt lat="43.56826" lon="6.61847">
        <ele>192.838287</ele>
        <time>2010-10-10T10:05:18Z</time>
      </trkpt>
      <trkpt lat="43.56826" lon="6.61858">
        <ele>193.706604</ele>
        <time>2010-10-10T10:05:23Z</time>
      </trkpt>
      <trkpt lat="43.56826" lon="6.61864">
        <ele>194.192764</ele>
        <time>2010-10-10T10:05:28Z</time>
      </trkpt>
      <trkpt lat="43.56819" lon="6.61894">
        <ele>196.282028</ele>
        <time>2010-10-10T10:05:46Z</time>
      </trkpt>
      <trkpt lat="43.56813" lon="6.61905">
        <ele>196.857315</ele>
        <time>2010-10-10T10:05:52Z</time>
      </trkpt>
      <trkpt lat="43.56807" lon="6.61918">
        <ele>197.534836</ele>
        <time>2010-10-10T10:05:59Z</time>
      </trkpt>
      <trkpt lat="43.56796" lon="6.61939">
        <ele>198.53775</ele>
        <time>2010-10-10T10:06:11Z</time>
      </trkpt>
      <trkpt lat="43.56789" lon="6.61952">
        <ele>199.016876</ele>
        <time>2010-10-10T10:06:17Z</time>
      </trkpt>
      <trkpt lat="43.56787" lon="6.61963">
        <ele>199.605972</ele>
        <time>2010-10-10T10:06:22Z</time>
      </trkpt>
      <trkpt lat="43.56774" lon="6.6198">
        <ele>200.107224</ele>
        <time>2010-10-10T10:06:29Z</time>
      </trkpt>
      <trkpt lat="43.56749" lon="6.62006">
        <ele>201.609543</ele>
        <time>2010-10-10T10:06:40Z</time>
      </trkpt>
      <trkpt lat="43.56729" lon="6.61997">
        <ele>200.165359</ele>
        <time>2010-10-10T10:06:45Z</time>
      </trkpt>
      <trkpt lat="43.56716" lon="6.61988">
        <ele>198.98204</ele>
        <time>2010-10-10T10:06:49Z</time>
      </trkpt>
      <trkpt lat="43.56697" lon="6.61991">
        <ele>198.781372</ele>
        <time>2010-10-10T10:06:54Z</time>
      </trkpt>
      <trkpt lat="43.5668" lon="6.61997">
        <ele>198.968933</ele>
        <time>2010-10-10T10:06:59Z</time>
      </trkpt>
      <trkpt lat="43.56661" lon="6.62008">
        <ele>199.358597</ele>
        <time>2010-10-10T10:07:05Z</time>
      </trkpt>
      <trkpt lat="43.56641" lon="6.62019">
        <ele>199.529251</ele>
        <time>2010-10-10T10:07:11Z</time>
      </trkpt>
      <trkpt lat="43.56628" lon="6.62029">
        <ele>199.945679</ele>
        <time>2010-10-10T10:07:15Z</time>
      </trkpt>
      <trkpt lat="43.56611" lon="6.62049">
        <ele>200.866058</ele>
        <time>2010-10-10T10:07:22Z</time>
      </trkpt>
      <trkpt lat="43.56598" lon="6.62068">
        <ele>201.189865</ele>
        <time>2010-10-10T10:07:29Z</time>
      </trkpt>
      <trkpt lat="43.5659" lon="6.62089">
        <ele>202.19574</ele>
        <time>2010-10-10T10:07:35Z</time>
      </trkpt>
      <trkpt lat="43.56581" lon="6.62104">
        <ele>202.917999</ele>
        <time>2010-10-10T10:07:40Z</time>
      </trkpt>
      <trkpt lat="43.56575" lon="6.62126">
        <ele>204.482834</ele>
        <time>2010-10-10T10:07:47Z</time>
      </trkpt>
      <trkpt lat="43.56558" lon="6.6221">
        <ele>211.896469</ele>
        <time>2010-10-10T10:08:12Z</time>
      </trkpt>
      <trkpt lat="43.56525" lon="6.62272">
        <ele>214.2491</ele>
        <time>2010-10-10T10:08:37Z</time>
      </trkpt>
      <trkpt lat="43.56521" lon="6.62282">
        <ele>214.77272</ele>
        <time>2010-10-10T10:08:41Z</time>
      </trkpt>
      <trkpt lat="43.56532" lon="6.62278">
        <ele>215.663895</ele>
        <time>2010-10-10T10:08:46Z</time>
      </trkpt>
      <trkpt lat="43.56534" lon="6.62276">
        <ele>215.725662</ele>
        <time>2010-10-10T10:08:48Z</time>
      </trkpt>
      <trkpt lat="43.56553" lon="6.62261">
        <ele>216.668304</ele>
        <time>2010-10-10T10:08:58Z</time>
      </trkpt>
      <trkpt lat="43.56573" lon="6.62235">
        <ele>216.35556</ele>
        <time>2010-10-10T10:09:14Z</time>
      </trkpt>
      <trkpt lat="43.56577" lon="6.62231">
        <ele>216.449158</ele>
        <time>2010-10-10T10:09:16Z</time>
      </trkpt>
      <trkpt lat="43.56586" lon="6.62225">
        <ele>216.875595</ele>
        <time>2010-10-10T10:09:22Z</time>
      </trkpt>
      <trkpt lat="43.56596" lon="6.62218">
        <ele>217.611023</ele>
        <time>2010-10-10T10:09:29Z</time>
      </trkpt>
      <trkpt lat="43.5662" lon="6.6222">
        <ele>220.067093</ele>
        <time>2010-10-10T10:09:41Z</time>
      </trkpt>
      <trkpt lat="43.56643" lon="6.62229">
        <ele>222.745483</ele>
        <time>2010-10-10T10:09:53Z</time>
      </trkpt>
      <trkpt lat="43.56693" lon="6.62218">
        <ele>223.003601</ele>
        <time>2010-10-10T10:10:20Z</time>
      </trkpt>
      <trkpt lat="43.56697" lon="6.62218">
        <ele>222.932632</ele>
        <time>2010-10-10T10:10:22Z</time>
      </trkpt>
      <trkpt lat="43.56708" lon="6.6222">
        <ele>222.814346</ele>
        <time>2010-10-10T10:10:28Z</time>
      </trkpt>
      <trkpt lat="43.56719" lon="6.62229">
        <ele>223.347488</ele>
        <time>2010-10-10T10:10:34Z</time>
      </trkpt>
      <trkpt lat="43.56725" lon="6.62242">
        <ele>224.524399</ele>
        <time>2010-10-10T10:10:40Z</time>
      </trkpt>
      <trkpt lat="43.56729" lon="6.62257">
        <ele>226.067963</ele>
        <time>2010-10-10T10:10:46Z</time>
      </trkpt>
      <trkpt lat="43.56725" lon="6.62276">
        <ele>228.11084</ele>
        <time>2010-10-10T10:10:54Z</time>
      </trkpt>
      <trkpt lat="43.56697" lon="6.62364">
        <ele>235.258972</ele>
        <time>2010-10-10T10:11:21Z</time>
      </trkpt>
      <trkpt lat="43.56691" lon="6.62385">
        <ele>236.765289</ele>
        <time>2010-10-10T10:11:28Z</time>
      </trkpt>
      <trkpt lat="43.56688" lon="6.62403">
        <ele>238.088608</ele>
        <time>2010-10-10T10:11:34Z</time>
      </trkpt>
      <trkpt lat="43.56691" lon="6.62418">
        <ele>239.215576</ele>
        <time>2010-10-10T10:11:40Z</time>
      </trkpt>
      <trkpt lat="43.56706" lon="6.6242">
        <ele>240.203018</ele>
        <time>2010-10-10T10:11:47Z</time>
      </trkpt>
      <trkpt lat="43.5671" lon="6.6242">
        <ele>240.447311</ele>
        <time>2010-10-10T10:11:49Z</time>
      </trkpt>
      <trkpt lat="43.56764" lon="6.62396">
        <ele>241.480484</ele>
        <time>2010-10-10T10:12:16Z</time>
      </trkpt>
      <trkpt lat="43.56811" lon="6.62385">
        <ele>242.756439</ele>
        <time>2010-10-10T10:12:35Z</time>
      </trkpt>
      <trkpt lat="43.56826" lon="6.6239">
        <ele>243.534302</ele>
        <time>2010-10-10T10:12:41Z</time>
      </trkpt>
      <trkpt lat="43.56841" lon="6.62398">
        <ele>244.174927</ele>
        <time>2010-10-10T10:12:47Z</time>
      </trkpt>
      <trkpt lat="43.56852" lon="6.62411">
        <ele>244.823013</ele>
        <time>2010-10-10T10:12:53Z</time>
      </trkpt>
      <trkpt lat="43.56858" lon="6.6242">
        <ele>244.943527</ele>
        <time>2010-10-10T10:12:57Z</time>
      </trkpt>
      <trkpt lat="43.56858" lon="6.62424">
        <ele>244.885025</ele>
        <time>2010-10-10T10:12:58Z</time>
      </trkpt>
      <trkpt lat="43.5686" lon="6.62433">
        <ele>244.842285</ele>
        <time>2010-10-10T10:13:01Z</time>
      </trkpt>
      <trkpt lat="43.56869" lon="6.62471">
        <ele>245.881775</ele>
        <time>2010-10-10T10:13:11Z</time>
      </trkpt>
      <trkpt lat="43.56869" lon="6.62501">
        <ele>245.300842</ele>
        <time>2010-10-10T10:13:17Z</time>
      </trkpt>
      <trkpt lat="43.56871" lon="6.6254">
        <ele>244.829895</ele>
        <time>2010-10-10T10:13:23Z</time>
      </trkpt>
      <trkpt lat="43.56877" lon="6.62559">
        <ele>244.684814</ele>
        <time>2010-10-10T10:13:26Z</time>
      </trkpt>
      <trkpt lat="43.56886" lon="6.62587">
        <ele>244.816574</ele>
        <time>2010-10-10T10:13:31Z</time>
      </trkpt>
      <trkpt lat="43.5689" lon="6.62604">
        <ele>244.945831</ele>
        <time>2010-10-10T10:13:34Z</time>
      </trkpt>
      <trkpt lat="43.5689" lon="6.62671">
        <ele>247.950256</ele>
        <time>2010-10-10T10:13:51Z</time>
      </trkpt>
      <trkpt lat="43.56888" lon="6.6269">
        <ele>247.516922</ele>
        <time>2010-10-10T10:13:58Z</time>
      </trkpt>
      <trkpt lat="43.56886" lon="6.62709">
        <ele>247.102875</ele>
        <time>2010-10-10T10:14:04Z</time>
      </trkpt>
      <trkpt lat="43.56892" lon="6.62729">
        <ele>249.75943</ele>
        <time>2010-10-10T10:14:11Z</time>
      </trkpt>
      <trkpt lat="43.56899" lon="6.62763">
        <ele>252.432632</ele>
        <time>2010-10-10T10:14:23Z</time>
      </trkpt>
      <trkpt lat="43.56899" lon="6.62774">
        <ele>252.520966</ele>
        <time>2010-10-10T10:14:26Z</time>
      </trkpt>
      <trkpt lat="43.56905" lon="6.62802">
        <ele>252.11171</ele>
        <time>2010-10-10T10:14:35Z</time>
      </trkpt>
      <trkpt lat="43.56916" lon="6.62838">
        <ele>248.571213</ele>
        <time>2010-10-10T10:14:46Z</time>
      </trkpt>
      <trkpt lat="43.56922" lon="6.62847">
        <ele>249.115311</ele>
        <time>2010-10-10T10:14:49Z</time>
      </trkpt>
      <trkpt lat="43.56937" lon="6.62862">
        <ele>251.366501</ele>
        <time>2010-10-10T10:14:54Z</time>
      </trkpt>
      <trkpt lat="43.56944" lon="6.62873">
        <ele>251.117188</ele>
        <time>2010-10-10T10:14:57Z</time>
      </trkpt>
      <trkpt lat="43.56961" lon="6.62933">
        <ele>247.233749</ele>
        <time>2010-10-10T10:15:11Z</time>
      </trkpt>
      <trkpt lat="43.56963" lon="6.63021">
        <ele>242.76442</ele>
        <time>2010-10-10T10:15:35Z</time>
      </trkpt>
      <trkpt lat="43.56963" lon="6.63049">
        <ele>241.865601</ele>
        <time>2010-10-10T10:15:44Z</time>
      </trkpt>
      <trkpt lat="43.56961" lon="6.63066">
        <ele>241.489502</ele>
        <time>2010-10-10T10:15:48Z</time>
      </trkpt>
      <trkpt lat="43.56957" lon="6.63102">
        <ele>240.800064</ele>
        <time>2010-10-10T10:15:55Z</time>
      </trkpt>
      <trkpt lat="43.56952" lon="6.63128">
        <ele>240.906189</ele>
        <time>2010-10-10T10:15:59Z</time>
      </trkpt>
      <trkpt lat="43.56944" lon="6.63162">
        <ele>241.226944</ele>
        <time>2010-10-10T10:16:02Z</time>
      </trkpt>
      <trkpt lat="43.56935" lon="6.63184">
        <ele>241.013687</ele>
        <time>2010-10-10T10:16:04Z</time>
      </trkpt>
      <trkpt lat="43.56927" lon="6.63203">
        <ele>240.675217</ele>
        <time>2010-10-10T10:16:06Z</time>
      </trkpt>
      <trkpt lat="43.56918" lon="6.6322">
        <ele>239.48378</ele>
        <time>2010-10-10T10:16:08Z</time>
      </trkpt>
      <trkpt lat="43.56882" lon="6.63319">
        <ele>224.67186</ele>
        <time>2010-10-10T10:16:14Z</time>
      </trkpt>
      <trkpt lat="43.56873" lon="6.63347">
        <ele>222.047073</ele>
        <time>2010-10-10T10:16:18Z</time>
      </trkpt>
      <trkpt lat="43.56847" lon="6.63426">
        <ele>230.766235</ele>
        <time>2010-10-10T10:16:33Z</time>
      </trkpt>
      <trkpt lat="43.56845" lon="6.63433">
        <ele>231.870468</ele>
        <time>2010-10-10T10:16:35Z</time>
      </trkpt>
      <trkpt lat="43.56843" lon="6.63445">
        <ele>233.691986</ele>
        <time>2010-10-10T10:16:38Z</time>
      </trkpt>
      <trkpt lat="43.56843" lon="6.63456">
        <ele>234.74704</ele>
        <time>2010-10-10T10:16:41Z</time>
      </trkpt>
      <trkpt lat="43.56839" lon="6.63476">
        <ele>235.746002</ele>
        <time>2010-10-10T10:16:46Z</time>
      </trkpt>
      <trkpt lat="43.56819" lon="6.63512">
        <ele>235.340668</ele>
        <time>2010-10-10T10:16:59Z</time>
      </trkpt>
      <trkpt lat="43.56776" lon="6.63559">
        <ele>240.400833</ele>
        <time>2010-10-10T10:17:18Z</time>
      </trkpt>
      <trkpt lat="43.5671" lon="6.63658">
        <ele>237.726578</ele>
        <time>2010-10-10T10:17:46Z</time>
      </trkpt>
      <trkpt lat="43.56708" lon="6.63664">
        <ele>237.488831</ele>
        <time>2010-10-10T10:17:47Z</time>
      </trkpt>
      <trkpt lat="43.56706" lon="6.63669">
        <ele>237.355698</ele>
        <time>2010-10-10T10:17:48Z</time>
      </trkpt>
      <trkpt lat="43.56691" lon="6.63707">
        <ele>237.035019</ele>
        <time>2010-10-10T10:17:52Z</time>
      </trkpt>
      <trkpt lat="43.56673" lon="6.63746">
        <ele>233.988449</ele>
        <time>2010-10-10T10:17:56Z</time>
      </trkpt>
      <trkpt lat="43.56669" lon="6.63767">
        <ele>231.736008</ele>
        <time>2010-10-10T10:17:58Z</time>
      </trkpt>
      <trkpt lat="43.56661" lon="6.63821">
        <ele>228.441849</ele>
        <time>2010-10-10T10:18:03Z</time>
      </trkpt>
      <trkpt lat="43.56639" lon="6.63877">
        <ele>226.475784</ele>
        <time>2010-10-10T10:18:10Z</time>
      </trkpt>
      <trkpt lat="43.56635" lon="6.63883">
        <ele>227.022446</ele>
        <time>2010-10-10T10:18:11Z</time>
      </trkpt>
      <trkpt lat="43.56609" lon="6.63877">
        <ele>225.766296</ele>
        <time>2010-10-10T10:18:16Z</time>
      </trkpt>
      <trkpt lat="43.56596" lon="6.63875">
        <ele>224.274399</ele>
        <time>2010-10-10T10:18:18Z</time>
      </trkpt>
      <trkpt lat="43.56579" lon="6.63875">
        <ele>222.041412</ele>
        <time>2010-10-10T10:18:21Z</time>
      </trkpt>
      <trkpt lat="43.56558" lon="6.63877">
        <ele>216.978821</ele>
        <time>2010-10-10T10:18:25Z</time>
      </trkpt>
      <trkpt lat="43.56551" lon="6.63885">
        <ele>215.738342</ele>
        <time>2010-10-10T10:18:27Z</time>
      </trkpt>
      <trkpt lat="43.56543" lon="6.63896">
        <ele>213.928085</ele>
        <time>2010-10-10T10:18:29Z</time>
      </trkpt>
      <trkpt lat="43.5654" lon="6.639">
        <ele>213.568436</ele>
        <time>2010-10-10T10:18:30Z</time>
      </trkpt>
      <trkpt lat="43.56534" lon="6.63915">
        <ele>212.287094</ele>
        <time>2010-10-10T10:18:33Z</time>
      </trkpt>
      <trkpt lat="43.56532" lon="6.6392">
        <ele>211.665909</ele>
        <time>2010-10-10T10:18:34Z</time>
      </trkpt>
      <trkpt lat="43.56532" lon="6.63926">
        <ele>211.993439</ele>
        <time>2010-10-10T10:18:35Z</time>
      </trkpt>
      <trkpt lat="43.56528" lon="6.63967">
        <ele>210.210007</ele>
        <time>2010-10-10T10:18:42Z</time>
      </trkpt>
      <trkpt lat="43.56523" lon="6.63993">
        <ele>208.44165</ele>
        <time>2010-10-10T10:18:46Z</time>
      </trkpt>
      <trkpt lat="43.56521" lon="6.63999">
        <ele>207.890182</ele>
        <time>2010-10-10T10:18:47Z</time>
      </trkpt>
      <trkpt lat="43.56513" lon="6.64012">
        <ele>204.037292</ele>
        <time>2010-10-10T10:18:49Z</time>
      </trkpt>
      <trkpt lat="43.56504" lon="6.64018">
        <ele>201.831863</ele>
        <time>2010-10-10T10:18:51Z</time>
      </trkpt>
      <trkpt lat="43.56485" lon="6.64018">
        <ele>199.258774</ele>
        <time>2010-10-10T10:18:58Z</time>
      </trkpt>
      <trkpt lat="43.56478" lon="6.64021">
        <ele>197.486572</ele>
        <time>2010-10-10T10:19:00Z</time>
      </trkpt>
      <trkpt lat="43.56467" lon="6.64027">
        <ele>194.655167</ele>
        <time>2010-10-10T10:19:03Z</time>
      </trkpt>
      <trkpt lat="43.56476" lon="6.64051">
        <ele>195.19368</ele>
        <time>2010-10-10T10:19:08Z</time>
      </trkpt>
      <trkpt lat="43.56485" lon="6.64053">
        <ele>196.40007</ele>
        <time>2010-10-10T10:19:10Z</time>
      </trkpt>
      <trkpt lat="43.565" lon="6.64068">
        <ele>193.005173</ele>
        <time>2010-10-10T10:19:13Z</time>
      </trkpt>
      <trkpt lat="43.56502" lon="6.64098">
        <ele>184.336975</ele>
        <time>2010-10-10T10:19:17Z</time>
      </trkpt>
      <trkpt lat="43.565" lon="6.64117">
        <ele>178.400116</ele>
        <time>2010-10-10T10:19:20Z</time>
      </trkpt>
      <trkpt lat="43.565" lon="6.64151">
        <ele>185.088837</ele>
        <time>2010-10-10T10:19:25Z</time>
      </trkpt>
      <trkpt lat="43.565" lon="6.64166">
        <ele>189.074203</ele>
        <time>2010-10-10T10:19:27Z</time>
      </trkpt>
      <trkpt lat="43.56519" lon="6.64188">
        <ele>194.128571</ele>
        <time>2010-10-10T10:19:33Z</time>
      </trkpt>
      <trkpt lat="43.5653" lon="6.64188">
        <ele>193.197205</ele>
        <time>2010-10-10T10:19:36Z</time>
      </trkpt>
      <trkpt lat="43.56534" lon="6.6419">
        <ele>193.294754</ele>
        <time>2010-10-10T10:19:37Z</time>
      </trkpt>
      <trkpt lat="43.56545" lon="6.64192">
        <ele>192.331146</ele>
        <time>2010-10-10T10:19:40Z</time>
      </trkpt>
      <trkpt lat="43.5657" lon="6.64214">
        <ele>192.573364</ele>
        <time>2010-10-10T10:19:46Z</time>
      </trkpt>
      <trkpt lat="43.56573" lon="6.64218">
        <ele>192.865479</ele>
        <time>2010-10-10T10:19:47Z</time>
      </trkpt>
      <trkpt lat="43.56579" lon="6.64242">
        <ele>194.722336</ele>
        <time>2010-10-10T10:19:51Z</time>
      </trkpt>
      <trkpt lat="43.56579" lon="6.64254">
        <ele>196.306305</ele>
        <time>2010-10-10T10:19:53Z</time>
      </trkpt>
      <trkpt lat="43.56583" lon="6.64291">
        <ele>197.137451</ele>
        <time>2010-10-10T10:19:59Z</time>
      </trkpt>
      <trkpt lat="43.56588" lon="6.6431">
        <ele>196.029617</ele>
        <time>2010-10-10T10:20:02Z</time>
      </trkpt>
      <trkpt lat="43.56594" lon="6.64349">
        <ele>196.999283</ele>
        <time>2010-10-10T10:20:08Z</time>
      </trkpt>
      <trkpt lat="43.56598" lon="6.64366">
        <ele>197.338531</ele>
        <time>2010-10-10T10:20:12Z</time>
      </trkpt>
      <trkpt lat="43.56607" lon="6.64385">
        <ele>196.399811</ele>
        <time>2010-10-10T10:20:17Z</time>
      </trkpt>
      <trkpt lat="43.56613" lon="6.64409">
        <ele>198.530563</ele>
        <time>2010-10-10T10:20:22Z</time>
      </trkpt>
      <trkpt lat="43.56626" lon="6.6443">
        <ele>200.572205</ele>
        <time>2010-10-10T10:20:28Z</time>
      </trkpt>
      <trkpt lat="43.56706" lon="6.64525">
        <ele>207.063721</ele>
        <time>2010-10-10T10:21:02Z</time>
      </trkpt>
      <trkpt lat="43.56753" lon="6.64561">
        <ele>201.546814</ele>
        <time>2010-10-10T10:21:17Z</time>
      </trkpt>
      <trkpt lat="43.56813" lon="6.64656">
        <ele>192.034454</ele>
        <time>2010-10-10T10:21:41Z</time>
      </trkpt>
      <trkpt lat="43.5683" lon="6.64731">
        <ele>198.243866</ele>
        <time>2010-10-10T10:21:56Z</time>
      </trkpt>
      <trkpt lat="43.56847" lon="6.64746">
        <ele>199.182648</ele>
        <time>2010-10-10T10:22:01Z</time>
      </trkpt>
      <trkpt lat="43.56852" lon="6.64763">
        <ele>198.897217</ele>
        <time>2010-10-10T10:22:04Z</time>
      </trkpt>
      <trkpt lat="43.56877" lon="6.64881">
        <ele>202.414658</ele>
        <time>2010-10-10T10:22:29Z</time>
      </trkpt>
      <trkpt lat="43.56886" lon="6.64898">
        <ele>204.282455</ele>
        <time>2010-10-10T10:22:34Z</time>
      </trkpt>
      <trkpt lat="43.5689" lon="6.64952">
        <ele>207.509201</ele>
        <time>2010-10-10T10:22:47Z</time>
      </trkpt>
      <trkpt lat="43.56892" lon="6.64973">
        <ele>209.179993</ele>
        <time>2010-10-10T10:22:53Z</time>
      </trkpt>
      <trkpt lat="43.56888" lon="6.65074">
        <ele>214.007294</ele>
        <time>2010-10-10T10:23:17Z</time>
      </trkpt>
      <trkpt lat="43.56886" lon="6.65091">
        <ele>214.184616</ele>
        <time>2010-10-10T10:23:23Z</time>
      </trkpt>
      <trkpt lat="43.56882" lon="6.6522">
        <ele>216.677582</ele>
        <time>2010-10-10T10:23:58Z</time>
      </trkpt>
      <trkpt lat="43.56882" lon="6.65276">
        <ele>218.199295</ele>
        <time>2010-10-10T10:24:16Z</time>
      </trkpt>
      <trkpt lat="43.56882" lon="6.65293">
        <ele>218.504074</ele>
        <time>2010-10-10T10:24:22Z</time>
      </trkpt>
      <trkpt lat="43.56877" lon="6.65314">
        <ele>218.95578</ele>
        <time>2010-10-10T10:24:29Z</time>
      </trkpt>
      <trkpt lat="43.56845" lon="6.65409">
        <ele>218.445129</ele>
        <time>2010-10-10T10:24:59Z</time>
      </trkpt>
      <trkpt lat="43.56832" lon="6.65458">
        <ele>218.180283</ele>
        <time>2010-10-10T10:25:12Z</time>
      </trkpt>
      <trkpt lat="43.56824" lon="6.65484">
        <ele>218.214218</ele>
        <time>2010-10-10T10:25:17Z</time>
      </trkpt>
      <trkpt lat="43.56774" lon="6.65606">
        <ele>213.218445</ele>
        <time>2010-10-10T10:25:40Z</time>
      </trkpt>
      <trkpt lat="43.56757" lon="6.65621">
        <ele>211.722519</ele>
        <time>2010-10-10T10:25:44Z</time>
      </trkpt>
      <trkpt lat="43.56746" lon="6.65634">
        <ele>210.919754</ele>
        <time>2010-10-10T10:25:47Z</time>
      </trkpt>
      <trkpt lat="43.56742" lon="6.65641">
        <ele>210.669693</ele>
        <time>2010-10-10T10:25:48Z</time>
      </trkpt>
      <trkpt lat="43.56719" lon="6.65692">
        <ele>208.356628</ele>
        <time>2010-10-10T10:25:57Z</time>
      </trkpt>
      <trkpt lat="43.56695" lon="6.65759">
        <ele>204.515091</ele>
        <time>2010-10-10T10:26:12Z</time>
      </trkpt>
      <trkpt lat="43.56691" lon="6.65767">
        <ele>203.461212</ele>
        <time>2010-10-10T10:26:14Z</time>
      </trkpt>
      <trkpt lat="43.56688" lon="6.65774">
        <ele>202.835907</ele>
        <time>2010-10-10T10:26:16Z</time>
      </trkpt>
      <trkpt lat="43.56686" lon="6.65778">
        <ele>202.358673</ele>
        <time>2010-10-10T10:26:19Z</time>
      </trkpt>
      <trkpt lat="43.56682" lon="6.6578">
        <ele>201.918869</ele>
        <time>2010-10-10T10:26:22Z</time>
      </trkpt>
      <trkpt lat="43.56676" lon="6.65789">
        <ele>201.050491</ele>
        <time>2010-10-10T10:26:27Z</time>
      </trkpt>
      <trkpt lat="43.56676" lon="6.65791">
        <ele>200.961197</ele>
        <time>2010-10-10T10:26:28Z</time>
      </trkpt>
      <trkpt lat="43.56667" lon="6.65784">
        <ele>200.562027</ele>
        <time>2010-10-10T10:26:32Z</time>
      </trkpt>
      <trkpt lat="43.56665" lon="6.65782">
        <ele>200.476654</ele>
        <time>2010-10-10T10:26:33Z</time>
      </trkpt>
      <trkpt lat="43.56658" lon="6.6578">
        <ele>200.050659</ele>
        <time>2010-10-10T10:26:36Z</time>
      </trkpt>
      <trkpt lat="43.56654" lon="6.6578">
        <ele>199.714249</ele>
        <time>2010-10-10T10:26:38Z</time>
      </trkpt>
      <trkpt lat="43.56648" lon="6.65782">
        <ele>199.144135</ele>
        <time>2010-10-10T10:26:41Z</time>
      </trkpt>
      <trkpt lat="43.56643" lon="6.65784">
        <ele>198.749329</ele>
        <time>2010-10-10T10:26:45Z</time>
      </trkpt>
      <trkpt lat="43.56639" lon="6.65787">
        <ele>198.503418</ele>
        <time>2010-10-10T10:26:47Z</time>
      </trkpt>
      <trkpt lat="43.56631" lon="6.65787">
        <ele>198.332581</ele>
        <time>2010-10-10T10:26:52Z</time>
      </trkpt>
      <trkpt lat="43.56616" lon="6.6578">
        <ele>198.082855</ele>
        <time>2010-10-10T10:26:58Z</time>
      </trkpt>
      <trkpt lat="43.56596" lon="6.65763">
        <ele>197.421082</ele>
        <time>2010-10-10T10:27:02Z</time>
      </trkpt>
      <trkpt lat="43.56566" lon="6.65746">
        <ele>197.376465</ele>
        <time>2010-10-10T10:27:07Z</time>
      </trkpt>
      <trkpt lat="43.56553" lon="6.65756">
        <ele>198.026184</ele>
        <time>2010-10-10T10:27:12Z</time>
      </trkpt>
      <trkpt lat="43.56553" lon="6.65765">
        <ele>198.432495</ele>
        <time>2010-10-10T10:27:15Z</time>
      </trkpt>
      <trkpt lat="43.56555" lon="6.65769">
        <ele>198.573914</ele>
        <time>2010-10-10T10:27:16Z</time>
      </trkpt>
      <trkpt lat="43.56575" lon="6.65793">
        <ele>198.782227</ele>
        <time>2010-10-10T10:27:27Z</time>
      </trkpt>
      <trkpt lat="43.56628" lon="6.65898">
        <ele>198.237457</ele>
        <time>2010-10-10T10:27:59Z</time>
      </trkpt>
      <trkpt lat="43.56658" lon="6.65956">
        <ele>198.357056</ele>
        <time>2010-10-10T10:28:17Z</time>
      </trkpt>
      <trkpt lat="43.56665" lon="6.65973">
        <ele>198.737701</ele>
        <time>2010-10-10T10:28:22Z</time>
      </trkpt>
      <trkpt lat="43.56652" lon="6.6599">
        <ele>199.600296</ele>
        <time>2010-10-10T10:28:27Z</time>
      </trkpt>
      <trkpt lat="43.5665" lon="6.65995">
        <ele>199.964935</ele>
        <time>2010-10-10T10:28:28Z</time>
      </trkpt>
      <trkpt lat="43.56646" lon="6.66001">
        <ele>200.47641</ele>
        <time>2010-10-10T10:28:31Z</time>
      </trkpt>
      <trkpt lat="43.56628" lon="6.66023">
        <ele>201.721695</ele>
        <time>2010-10-10T10:28:40Z</time>
      </trkpt>
      <trkpt lat="43.56622" lon="6.66042">
        <ele>202.510147</ele>
        <time>2010-10-10T10:28:47Z</time>
      </trkpt>
      <trkpt lat="43.56616" lon="6.6607">
        <ele>204.984955</ele>
        <time>2010-10-10T10:28:58Z</time>
      </trkpt>
      <trkpt lat="43.56605" lon="6.661">
        <ele>206.699036</ele>
        <time>2010-10-10T10:29:11Z</time>
      </trkpt>
      <trkpt lat="43.56603" lon="6.66113">
        <ele>207.510513</ele>
        <time>2010-10-10T10:29:17Z</time>
      </trkpt>
      <trkpt lat="43.56596" lon="6.66136">
        <ele>209.292038</ele>
        <time>2010-10-10T10:29:28Z</time>
      </trkpt>
      <trkpt lat="43.56588" lon="6.66166">
        <ele>211.621933</ele>
        <time>2010-10-10T10:29:41Z</time>
      </trkpt>
      <trkpt lat="43.56588" lon="6.66179">
        <ele>213.564545</ele>
        <time>2010-10-10T10:29:46Z</time>
      </trkpt>
      <trkpt lat="43.5659" lon="6.66186">
        <ele>214.949478</ele>
        <time>2010-10-10T10:29:49Z</time>
      </trkpt>
      <trkpt lat="43.56596" lon="6.66205">
        <ele>218.844391</ele>
        <time>2010-10-10T10:29:57Z</time>
      </trkpt>
      <trkpt lat="43.56588" lon="6.66218">
        <ele>219.642685</ele>
        <time>2010-10-10T10:30:04Z</time>
      </trkpt>
      <trkpt lat="43.56579" lon="6.6622">
        <ele>218.965744</ele>
        <time>2010-10-10T10:30:09Z</time>
      </trkpt>
      <trkpt lat="43.56575" lon="6.6622">
        <ele>218.443024</ele>
        <time>2010-10-10T10:30:11Z</time>
      </trkpt>
      <trkpt lat="43.56551" lon="6.66229">
        <ele>216.483063</ele>
        <time>2010-10-10T10:30:23Z</time>
      </trkpt>
      <trkpt lat="43.56543" lon="6.66233">
        <ele>215.698395</ele>
        <time>2010-10-10T10:30:28Z</time>
      </trkpt>
      <trkpt lat="43.56525" lon="6.66261">
        <ele>217.281357</ele>
        <time>2010-10-10T10:30:43Z</time>
      </trkpt>
      <trkpt lat="43.56523" lon="6.66271">
        <ele>218.084732</ele>
        <time>2010-10-10T10:30:47Z</time>
      </trkpt>
      <trkpt lat="43.56523" lon="6.66284">
        <ele>219.024475</ele>
        <time>2010-10-10T10:30:50Z</time>
      </trkpt>
      <trkpt lat="43.56525" lon="6.66297">
        <ele>220.725113</ele>
        <time>2010-10-10T10:30:54Z</time>
      </trkpt>
      <trkpt lat="43.56525" lon="6.66351">
        <ele>229.40329</ele>
        <time>2010-10-10T10:31:11Z</time>
      </trkpt>
      <trkpt lat="43.56519" lon="6.66377">
        <ele>232.069458</ele>
        <time>2010-10-10T10:31:22Z</time>
      </trkpt>
      <trkpt lat="43.56513" lon="6.66353">
        <ele>228.423431</ele>
        <time>2010-10-10T10:31:29Z</time>
      </trkpt>
      <trkpt lat="43.56513" lon="6.66351">
        <ele>228.129654</ele>
        <time>2010-10-10T10:31:30Z</time>
      </trkpt>
      <trkpt lat="43.56498" lon="6.66344">
        <ele>225.699371</ele>
        <time>2010-10-10T10:31:36Z</time>
      </trkpt>
      <trkpt lat="43.56489" lon="6.66349">
        <ele>225.453552</ele>
        <time>2010-10-10T10:31:40Z</time>
      </trkpt>
      <trkpt lat="43.56474" lon="6.66357">
        <ele>225.025803</ele>
        <time>2010-10-10T10:31:46Z</time>
      </trkpt>
      <trkpt lat="43.56465" lon="6.66368">
        <ele>225.374039</ele>
        <time>2010-10-10T10:31:52Z</time>
      </trkpt>
      <trkpt lat="43.56452" lon="6.664">
        <ele>227.431702</ele>
        <time>2010-10-10T10:32:05Z</time>
      </trkpt>
      <trkpt lat="43.56452" lon="6.66417">
        <ele>229.938675</ele>
        <time>2010-10-10T10:32:10Z</time>
      </trkpt>
      <trkpt lat="43.56452" lon="6.66443">
        <ele>234.034576</ele>
        <time>2010-10-10T10:32:17Z</time>
      </trkpt>
      <trkpt lat="43.56446" lon="6.66518">
        <ele>239.709213</ele>
        <time>2010-10-10T10:32:39Z</time>
      </trkpt>
      <trkpt lat="43.56446" lon="6.6652">
        <ele>239.796326</ele>
        <time>2010-10-10T10:32:40Z</time>
      </trkpt>
      <trkpt lat="43.5644" lon="6.66535">
        <ele>240.218292</ele>
        <time>2010-10-10T10:32:46Z</time>
      </trkpt>
      <trkpt lat="43.56437" lon="6.66527">
        <ele>239.332916</ele>
        <time>2010-10-10T10:32:49Z</time>
      </trkpt>
      <trkpt lat="43.5644" lon="6.6652">
        <ele>239.267365</ele>
        <time>2010-10-10T10:32:51Z</time>
      </trkpt>
      <trkpt lat="43.56437" lon="6.66514">
        <ele>238.849365</ele>
        <time>2010-10-10T10:32:53Z</time>
      </trkpt>
      <trkpt lat="43.56437" lon="6.66512">
        <ele>238.769241</ele>
        <time>2010-10-10T10:32:54Z</time>
      </trkpt>
      <trkpt lat="43.56435" lon="6.66501">
        <ele>238.208359</ele>
        <time>2010-10-10T10:32:57Z</time>
      </trkpt>
      <trkpt lat="43.56429" lon="6.6648">
        <ele>237.23439</ele>
        <time>2010-10-10T10:33:04Z</time>
      </trkpt>
      <trkpt lat="43.5642" lon="6.66465">
        <ele>235.718338</ele>
        <time>2010-10-10T10:33:10Z</time>
      </trkpt>
      <trkpt lat="43.56412" lon="6.66473">
        <ele>236.434235</ele>
        <time>2010-10-10T10:33:14Z</time>
      </trkpt>
      <trkpt lat="43.5641" lon="6.66475">
        <ele>236.541306</ele>
        <time>2010-10-10T10:33:15Z</time>
      </trkpt>
      <trkpt lat="43.56407" lon="6.66484">
        <ele>237.184952</ele>
        <time>2010-10-10T10:33:18Z</time>
      </trkpt>
      <trkpt lat="43.56405" lon="6.66486">
        <ele>237.348892</ele>
        <time>2010-10-10T10:33:19Z</time>
      </trkpt>
      <trkpt lat="43.56401" lon="6.66507">
        <ele>239.266052</ele>
        <time>2010-10-10T10:33:26Z</time>
      </trkpt>
      <trkpt lat="43.56395" lon="6.66546">
        <ele>242.61171</ele>
        <time>2010-10-10T10:33:40Z</time>
      </trkpt>
      <trkpt lat="43.56392" lon="6.66563">
        <ele>243.711624</ele>
        <time>2010-10-10T10:33:46Z</time>
      </trkpt>
      <trkpt lat="43.56369" lon="6.66608">
        <ele>245.888092</ele>
        <time>2010-10-10T10:34:05Z</time>
      </trkpt>
      <trkpt lat="43.56354" lon="6.66625">
        <ele>246.408218</ele>
        <time>2010-10-10T10:34:13Z</time>
      </trkpt>
      <trkpt lat="43.56317" lon="6.66651">
        <ele>246.320908</ele>
        <time>2010-10-10T10:34:29Z</time>
      </trkpt>
      <trkpt lat="43.56309" lon="6.66662">
        <ele>246.987488</ele>
        <time>2010-10-10T10:34:34Z</time>
      </trkpt>
      <trkpt lat="43.56302" lon="6.66677">
        <ele>248.156021</ele>
        <time>2010-10-10T10:34:40Z</time>
      </trkpt>
      <trkpt lat="43.56296" lon="6.66688">
        <ele>248.745087</ele>
        <time>2010-10-10T10:34:46Z</time>
      </trkpt>
      <trkpt lat="43.56287" lon="6.66703">
        <ele>249.519974</ele>
        <time>2010-10-10T10:34:53Z</time>
      </trkpt>
      <trkpt lat="43.56283" lon="6.66718">
        <ele>251.434799</ele>
        <time>2010-10-10T10:34:59Z</time>
      </trkpt>
      <trkpt lat="43.56268" lon="6.66748">
        <ele>254.664154</ele>
        <time>2010-10-10T10:35:11Z</time>
      </trkpt>
      <trkpt lat="43.56253" lon="6.66765">
        <ele>255.454819</ele>
        <time>2010-10-10T10:35:20Z</time>
      </trkpt>
      <trkpt lat="43.56249" lon="6.66771">
        <ele>256.054565</ele>
        <time>2010-10-10T10:35:23Z</time>
      </trkpt>
      <trkpt lat="43.56219" lon="6.66823">
        <ele>259.067627</ele>
        <time>2010-10-10T10:35:41Z</time>
      </trkpt>
      <trkpt lat="43.5621" lon="6.6684">
        <ele>260.366974</ele>
        <time>2010-10-10T10:35:47Z</time>
      </trkpt>
      <trkpt lat="43.56189" lon="6.66892">
        <ele>263.444641</ele>
        <time>2010-10-10T10:36:04Z</time>
      </trkpt>
      <trkpt lat="43.56171" lon="6.66932">
        <ele>265.773315</ele>
        <time>2010-10-10T10:36:17Z</time>
      </trkpt>
      <trkpt lat="43.56148" lon="6.67014">
        <ele>271.364197</ele>
        <time>2010-10-10T10:36:44Z</time>
      </trkpt>
      <trkpt lat="43.56105" lon="6.67121">
        <ele>272.682709</ele>
        <time>2010-10-10T10:37:20Z</time>
      </trkpt>
      <trkpt lat="43.56077" lon="6.67201">
        <ele>275.123444</ele>
        <time>2010-10-10T10:37:41Z</time>
      </trkpt>
      <trkpt lat="43.56032" lon="6.67344">
        <ele>276.400848</ele>
        <time>2010-10-10T10:38:17Z</time>
      </trkpt>
      <trkpt lat="43.56028" lon="6.67364">
        <ele>277.128082</ele>
        <time>2010-10-10T10:38:22Z</time>
      </trkpt>
      <trkpt lat="43.56023" lon="6.67387">
        <ele>277.667358</ele>
        <time>2010-10-10T10:38:28Z</time>
      </trkpt>
      <trkpt lat="43.56021" lon="6.67409">
        <ele>278.531464</ele>
        <time>2010-10-10T10:38:34Z</time>
      </trkpt>
      <trkpt lat="43.56023" lon="6.67437">
        <ele>280.681396</ele>
        <time>2010-10-10T10:38:41Z</time>
      </trkpt>
      <trkpt lat="43.56025" lon="6.67477">
        <ele>283.167389</ele>
        <time>2010-10-10T10:38:53Z</time>
      </trkpt>
      <trkpt lat="43.56025" lon="6.67512">
        <ele>282.535461</ele>
        <time>2010-10-10T10:39:04Z</time>
      </trkpt>
      <trkpt lat="43.56028" lon="6.67531">
        <ele>281.481812</ele>
        <time>2010-10-10T10:39:10Z</time>
      </trkpt>
      <trkpt lat="43.56036" lon="6.67546">
        <ele>280.888672</ele>
        <time>2010-10-10T10:39:16Z</time>
      </trkpt>
      <trkpt lat="43.56055" lon="6.6755">
        <ele>281.981049</ele>
        <time>2010-10-10T10:39:22Z</time>
      </trkpt>
      <trkpt lat="43.5609" lon="6.67559">
        <ele>283.165741</ele>
        <time>2010-10-10T10:39:35Z</time>
      </trkpt>
      <trkpt lat="43.56116" lon="6.67576">
        <ele>283.00885</ele>
        <time>2010-10-10T10:39:46Z</time>
      </trkpt>
      <trkpt lat="43.56122" lon="6.67587">
        <ele>282.825195</ele>
        <time>2010-10-10T10:39:49Z</time>
      </trkpt>
      <trkpt lat="43.56128" lon="6.67602">
        <ele>282.672882</ele>
        <time>2010-10-10T10:39:53Z</time>
      </trkpt>
      <trkpt lat="43.56135" lon="6.67621">
        <ele>282.525848</ele>
        <time>2010-10-10T10:39:58Z</time>
      </trkpt>
      <trkpt lat="43.56141" lon="6.6769">
        <ele>283.51413</ele>
        <time>2010-10-10T10:40:16Z</time>
      </trkpt>
      <trkpt lat="43.56133" lon="6.67705">
        <ele>283.332153</ele>
        <time>2010-10-10T10:40:19Z</time>
      </trkpt>
      <trkpt lat="43.5609" lon="6.67816">
        <ele>281.787201</ele>
        <time>2010-10-10T10:40:38Z</time>
      </trkpt>
      <trkpt lat="43.56071" lon="6.67864">
        <ele>281.687927</ele>
        <time>2010-10-10T10:40:47Z</time>
      </trkpt>
      <trkpt lat="43.56013" lon="6.68012">
        <ele>282.991943</ele>
        <time>2010-10-10T10:41:13Z</time>
      </trkpt>
      <trkpt lat="43.5598" lon="6.68138">
        <ele>287.010956</ele>
        <time>2010-10-10T10:41:35Z</time>
      </trkpt>
      <trkpt lat="43.55972" lon="6.682">
        <ele>289.890961</ele>
        <time>2010-10-10T10:41:47Z</time>
      </trkpt>
      <trkpt lat="43.55972" lon="6.68222">
        <ele>290.289795</ele>
        <time>2010-10-10T10:41:52Z</time>
      </trkpt>
      <trkpt lat="43.55978" lon="6.68276">
        <ele>291.156006</ele>
        <time>2010-10-10T10:42:05Z</time>
      </trkpt>
      <trkpt lat="43.56021" lon="6.68389">
        <ele>291.817993</ele>
        <time>2010-10-10T10:42:35Z</time>
      </trkpt>
      <trkpt lat="43.56023" lon="6.684">
        <ele>292.006653</ele>
        <time>2010-10-10T10:42:38Z</time>
      </trkpt>
      <trkpt lat="43.56047" lon="6.68503">
        <ele>294.553711</ele>
        <time>2010-10-10T10:43:04Z</time>
      </trkpt>
      <trkpt lat="43.56068" lon="6.68619">
        <ele>300.284698</ele>
        <time>2010-10-10T10:43:33Z</time>
      </trkpt>
      <trkpt lat="43.56073" lon="6.68645">
        <ele>302.227417</ele>
        <time>2010-10-10T10:43:41Z</time>
      </trkpt>
      <trkpt lat="43.56077" lon="6.68662">
        <ele>303.705902</ele>
        <time>2010-10-10T10:43:47Z</time>
      </trkpt>
      <trkpt lat="43.56081" lon="6.68692">
        <ele>306.426758</ele>
        <time>2010-10-10T10:43:57Z</time>
      </trkpt>
      <trkpt lat="43.56081" lon="6.68694">
        <ele>306.59906</ele>
        <time>2010-10-10T10:43:58Z</time>
      </trkpt>
      <trkpt lat="43.5609" lon="6.68713">
        <ele>309.793488</ele>
        <time>2010-10-10T10:44:05Z</time>
      </trkpt>
      <trkpt lat="43.56092" lon="6.68728">
        <ele>311.681274</ele>
        <time>2010-10-10T10:44:10Z</time>
      </trkpt>
      <trkpt lat="43.56094" lon="6.68748">
        <ele>313.712006</ele>
        <time>2010-10-10T10:44:17Z</time>
      </trkpt>
      <trkpt lat="43.56094" lon="6.68765">
        <ele>314.972321</ele>
        <time>2010-10-10T10:44:23Z</time>
      </trkpt>
      <trkpt lat="43.56094" lon="6.6878">
        <ele>316.047119</ele>
        <time>2010-10-10T10:44:29Z</time>
      </trkpt>
      <trkpt lat="43.56092" lon="6.68797">
        <ele>316.667633</ele>
        <time>2010-10-10T10:44:35Z</time>
      </trkpt>
      <trkpt lat="43.5609" lon="6.68801">
        <ele>316.14267</ele>
        <time>2010-10-10T10:44:37Z</time>
      </trkpt>
      <trkpt lat="43.56083" lon="6.6881">
        <ele>315.078613</ele>
        <time>2010-10-10T10:44:40Z</time>
      </trkpt>
      <trkpt lat="43.56075" lon="6.68827">
        <ele>314.128845</ele>
        <time>2010-10-10T10:44:45Z</time>
      </trkpt>
      <trkpt lat="43.56053" lon="6.68885">
        <ele>311.172791</ele>
        <time>2010-10-10T10:45:01Z</time>
      </trkpt>
      <trkpt lat="43.56049" lon="6.68896">
        <ele>310.619781</ele>
        <time>2010-10-10T10:45:04Z</time>
      </trkpt>
      <trkpt lat="43.56025" lon="6.68958">
        <ele>309.516113</ele>
        <time>2010-10-10T10:45:13Z</time>
      </trkpt>
      <trkpt lat="43.55995" lon="6.69005">
        <ele>308.221375</ele>
        <time>2010-10-10T10:45:20Z</time>
      </trkpt>
      <trkpt lat="43.5598" lon="6.69024">
        <ele>309.491272</ele>
        <time>2010-10-10T10:45:23Z</time>
      </trkpt>
      <trkpt lat="43.55968" lon="6.69042">
        <ele>310.181366</ele>
        <time>2010-10-10T10:45:27Z</time>
      </trkpt>
      <trkpt lat="43.55965" lon="6.69046">
        <ele>309.792297</ele>
        <time>2010-10-10T10:45:28Z</time>
      </trkpt>
      <trkpt lat="43.55944" lon="6.6907">
        <ele>307.999817</ele>
        <time>2010-10-10T10:45:35Z</time>
      </trkpt>
      <trkpt lat="43.55937" lon="6.69078">
        <ele>307.813904</ele>
        <time>2010-10-10T10:45:37Z</time>
      </trkpt>
      <trkpt lat="43.55925" lon="6.69091">
        <ele>307.978302</ele>
        <time>2010-10-10T10:45:41Z</time>
      </trkpt>
      <trkpt lat="43.55922" lon="6.69102">
        <ele>307.014374</ele>
        <time>2010-10-10T10:45:43Z</time>
      </trkpt>
      <trkpt lat="43.55922" lon="6.69119">
        <ele>305.732697</ele>
        <time>2010-10-10T10:45:46Z</time>
      </trkpt>
      <trkpt lat="43.55929" lon="6.69132">
        <ele>304.811432</ele>
        <time>2010-10-10T10:45:48Z</time>
      </trkpt>
      <trkpt lat="43.55937" lon="6.69142">
        <ele>304.169189</ele>
        <time>2010-10-10T10:45:50Z</time>
      </trkpt>
      <trkpt lat="43.5595" lon="6.69164">
        <ele>303.555328</ele>
        <time>2010-10-10T10:45:53Z</time>
      </trkpt>
      <trkpt lat="43.55955" lon="6.69181">
        <ele>303.568268</ele>
        <time>2010-10-10T10:45:55Z</time>
      </trkpt>
      <trkpt lat="43.55974" lon="6.69258">
        <ele>304.018005</ele>
        <time>2010-10-10T10:46:08Z</time>
      </trkpt>
      <trkpt lat="43.55998" lon="6.69348">
        <ele>305.696014</ele>
        <time>2010-10-10T10:46:26Z</time>
      </trkpt>
      <trkpt lat="43.56008" lon="6.69454">
        <ele>307.554749</ele>
        <time>2010-10-10T10:46:52Z</time>
      </trkpt>
      <trkpt lat="43.5598" lon="6.69488">
        <ele>309.578278</ele>
        <time>2010-10-10T10:47:03Z</time>
      </trkpt>
      <trkpt lat="43.55946" lon="6.69522">
        <ele>313.04126</ele>
        <time>2010-10-10T10:47:16Z</time>
      </trkpt>
      <trkpt lat="43.5594" lon="6.6952">
        <ele>313.234467</ele>
        <time>2010-10-10T10:47:19Z</time>
      </trkpt>
      <trkpt lat="43.55933" lon="6.6952">
        <ele>313.534546</ele>
        <time>2010-10-10T10:47:23Z</time>
      </trkpt>
      <trkpt lat="43.5592" lon="6.69524">
        <ele>314.386993</ele>
        <time>2010-10-10T10:47:29Z</time>
      </trkpt>
      <trkpt lat="43.55895" lon="6.69542">
        <ele>315.433899</ele>
        <time>2010-10-10T10:47:43Z</time>
      </trkpt>
      <trkpt lat="43.55888" lon="6.69546">
        <ele>315.603027</ele>
        <time>2010-10-10T10:47:46Z</time>
      </trkpt>
      <trkpt lat="43.55882" lon="6.69554">
        <ele>316.142456</ele>
        <time>2010-10-10T10:47:52Z</time>
      </trkpt>
      <trkpt lat="43.55875" lon="6.69565">
        <ele>316.999603</ele>
        <time>2010-10-10T10:47:58Z</time>
      </trkpt>
      <trkpt lat="43.55871" lon="6.69585">
        <ele>318.535675</ele>
        <time>2010-10-10T10:48:05Z</time>
      </trkpt>
      <trkpt lat="43.5586" lon="6.69711">
        <ele>323.043823</ele>
        <time>2010-10-10T10:48:39Z</time>
      </trkpt>
      <trkpt lat="43.5586" lon="6.69715">
        <ele>323.17868</ele>
        <time>2010-10-10T10:48:40Z</time>
      </trkpt>
      <trkpt lat="43.55867" lon="6.69741">
        <ele>323.828766</ele>
        <time>2010-10-10T10:48:47Z</time>
      </trkpt>
      <trkpt lat="43.55869" lon="6.69758">
        <ele>324.315155</ele>
        <time>2010-10-10T10:48:52Z</time>
      </trkpt>
      <trkpt lat="43.55867" lon="6.69769">
        <ele>324.664185</ele>
        <time>2010-10-10T10:48:55Z</time>
      </trkpt>
      <trkpt lat="43.55856" lon="6.69797">
        <ele>324.877533</ele>
        <time>2010-10-10T10:49:03Z</time>
      </trkpt>
      <trkpt lat="43.55854" lon="6.69803">
        <ele>324.919434</ele>
        <time>2010-10-10T10:49:05Z</time>
      </trkpt>
      <trkpt lat="43.55852" lon="6.69823">
        <ele>324.949768</ele>
        <time>2010-10-10T10:49:10Z</time>
      </trkpt>
      <trkpt lat="43.55856" lon="6.69851">
        <ele>325.763367</ele>
        <time>2010-10-10T10:49:17Z</time>
      </trkpt>
      <trkpt lat="43.55852" lon="6.69868">
        <ele>326.696228</ele>
        <time>2010-10-10T10:49:22Z</time>
      </trkpt>
      <trkpt lat="43.55824" lon="6.69932">
        <ele>330.556335</ele>
        <time>2010-10-10T10:49:44Z</time>
      </trkpt>
      <trkpt lat="43.55819" lon="6.69943">
        <ele>331.319885</ele>
        <time>2010-10-10T10:49:48Z</time>
      </trkpt>
      <trkpt lat="43.55809" lon="6.69979">
        <ele>332.661713</ele>
        <time>2010-10-10T10:50:00Z</time>
      </trkpt>
      <trkpt lat="43.55807" lon="6.69984">
        <ele>332.872711</ele>
        <time>2010-10-10T10:50:02Z</time>
      </trkpt>
      <trkpt lat="43.55802" lon="6.69992">
        <ele>333.313629</ele>
        <time>2010-10-10T10:50:05Z</time>
      </trkpt>
      <trkpt lat="43.55785" lon="6.70022">
        <ele>333.326508</ele>
        <time>2010-10-10T10:50:17Z</time>
      </trkpt>
      <trkpt lat="43.55749" lon="6.70097">
        <ele>331.471497</ele>
        <time>2010-10-10T10:50:35Z</time>
      </trkpt>
      <trkpt lat="43.55731" lon="6.7011">
        <ele>331.736664</ele>
        <time>2010-10-10T10:50:40Z</time>
      </trkpt>
      <trkpt lat="43.55721" lon="6.70119">
        <ele>332.181763</ele>
        <time>2010-10-10T10:50:43Z</time>
      </trkpt>
      <trkpt lat="43.55716" lon="6.70136">
        <ele>333.076721</ele>
        <time>2010-10-10T10:50:47Z</time>
      </trkpt>
      <trkpt lat="43.55714" lon="6.70142">
        <ele>333.438599</ele>
        <time>2010-10-10T10:50:48Z</time>
      </trkpt>
      <trkpt lat="43.55723" lon="6.7017">
        <ele>334.543274</ele>
        <time>2010-10-10T10:50:55Z</time>
      </trkpt>
      <trkpt lat="43.55725" lon="6.70172">
        <ele>334.589752</ele>
        <time>2010-10-10T10:50:56Z</time>
      </trkpt>
      <trkpt lat="43.55742" lon="6.70183">
        <ele>334.655182</ele>
        <time>2010-10-10T10:51:03Z</time>
      </trkpt>
      <trkpt lat="43.55744" lon="6.70185">
        <ele>334.70163</ele>
        <time>2010-10-10T10:51:04Z</time>
      </trkpt>
      <trkpt lat="43.55751" lon="6.70196">
        <ele>334.809998</ele>
        <time>2010-10-10T10:51:06Z</time>
      </trkpt>
      <trkpt lat="43.558" lon="6.70297">
        <ele>336.02243</ele>
        <time>2010-10-10T10:51:28Z</time>
      </trkpt>
      <trkpt lat="43.55815" lon="6.70348">
        <ele>337.072632</ele>
        <time>2010-10-10T10:51:41Z</time>
      </trkpt>
      <trkpt lat="43.55834" lon="6.70408">
        <ele>338.123718</ele>
        <time>2010-10-10T10:51:58Z</time>
      </trkpt>
      <trkpt lat="43.55847" lon="6.70432">
        <ele>337.628754</ele>
        <time>2010-10-10T10:52:04Z</time>
      </trkpt>
      <trkpt lat="43.55852" lon="6.70439">
        <ele>337.386566</ele>
        <time>2010-10-10T10:52:05Z</time>
      </trkpt>
      <trkpt lat="43.55867" lon="6.70454">
        <ele>336.274658</ele>
        <time>2010-10-10T10:52:08Z</time>
      </trkpt>
      <trkpt lat="43.55895" lon="6.70477">
        <ele>334.906067</ele>
        <time>2010-10-10T10:52:13Z</time>
      </trkpt>
      <trkpt lat="43.56004" lon="6.70587">
        <ele>330.999908</ele>
        <time>2010-10-10T10:52:37Z</time>
      </trkpt>
      <trkpt lat="43.56053" lon="6.7064">
        <ele>331.005463</ele>
        <time>2010-10-10T10:52:49Z</time>
      </trkpt>
      <trkpt lat="43.56068" lon="6.70655">
        <ele>330.013855</ele>
        <time>2010-10-10T10:52:53Z</time>
      </trkpt>
      <trkpt lat="43.56081" lon="6.70657">
        <ele>329.088165</ele>
        <time>2010-10-10T10:52:55Z</time>
      </trkpt>
      <trkpt lat="43.56092" lon="6.70668">
        <ele>327.9729</ele>
        <time>2010-10-10T10:52:57Z</time>
      </trkpt>
      <trkpt lat="43.56103" lon="6.70677">
        <ele>326.86792</ele>
        <time>2010-10-10T10:52:59Z</time>
      </trkpt>
      <trkpt lat="43.56122" lon="6.70685">
        <ele>325.059937</ele>
        <time>2010-10-10T10:53:02Z</time>
      </trkpt>
      <trkpt lat="43.56199" lon="6.70711">
        <ele>321.975616</ele>
        <time>2010-10-10T10:53:16Z</time>
      </trkpt>
      <trkpt lat="43.5621" lon="6.70722">
        <ele>321.993713</ele>
        <time>2010-10-10T10:53:18Z</time>
      </trkpt>
      <trkpt lat="43.56261" lon="6.70782">
        <ele>320.965759</ele>
        <time>2010-10-10T10:53:30Z</time>
      </trkpt>
      <trkpt lat="43.56304" lon="6.7081">
        <ele>319.300537</ele>
        <time>2010-10-10T10:53:37Z</time>
      </trkpt>
      <trkpt lat="43.56401" lon="6.70874">
        <ele>315.313934</ele>
        <time>2010-10-10T10:53:53Z</time>
      </trkpt>
      <trkpt lat="43.56407" lon="6.70883">
        <ele>314.965942</ele>
        <time>2010-10-10T10:53:55Z</time>
      </trkpt>
      <trkpt lat="43.56412" lon="6.70893">
        <ele>314.821655</ele>
        <time>2010-10-10T10:53:57Z</time>
      </trkpt>
      <trkpt lat="43.56416" lon="6.70919">
        <ele>314.945709</ele>
        <time>2010-10-10T10:54:02Z</time>
      </trkpt>
      <trkpt lat="43.56444" lon="6.7099">
        <ele>318.824219</ele>
        <time>2010-10-10T10:54:21Z</time>
      </trkpt>
      <trkpt lat="43.5645" lon="6.71005">
        <ele>319.558014</ele>
        <time>2010-10-10T10:54:25Z</time>
      </trkpt>
      <trkpt lat="43.56459" lon="6.71018">
        <ele>320.207397</ele>
        <time>2010-10-10T10:54:29Z</time>
      </trkpt>
      <trkpt lat="43.56504" lon="6.71065">
        <ele>319.565094</ele>
        <time>2010-10-10T10:54:48Z</time>
      </trkpt>
      <trkpt lat="43.56517" lon="6.71078">
        <ele>318.734222</ele>
        <time>2010-10-10T10:54:54Z</time>
      </trkpt>
      <trkpt lat="43.56523" lon="6.71084">
        <ele>318.316925</ele>
        <time>2010-10-10T10:54:57Z</time>
      </trkpt>
      <trkpt lat="43.56551" lon="6.71117">
        <ele>317.217529</ele>
        <time>2010-10-10T10:55:09Z</time>
      </trkpt>
      <trkpt lat="43.56575" lon="6.71142">
        <ele>316.727814</ele>
        <time>2010-10-10T10:55:16Z</time>
      </trkpt>
      <trkpt lat="43.56616" lon="6.71183">
        <ele>315.436707</ele>
        <time>2010-10-10T10:55:29Z</time>
      </trkpt>
      <trkpt lat="43.56628" lon="6.71198">
        <ele>315.324066</ele>
        <time>2010-10-10T10:55:33Z</time>
      </trkpt>
      <trkpt lat="43.56691" lon="6.71278">
        <ele>314.750427</ele>
        <time>2010-10-10T10:55:51Z</time>
      </trkpt>
      <trkpt lat="43.56734" lon="6.7134">
        <ele>314.309143</ele>
        <time>2010-10-10T10:56:04Z</time>
      </trkpt>
      <trkpt lat="43.56727" lon="6.71355">
        <ele>314.818787</ele>
        <time>2010-10-10T10:56:08Z</time>
      </trkpt>
      <trkpt lat="43.56688" lon="6.71406">
        <ele>315.524902</ele>
        <time>2010-10-10T10:56:28Z</time>
      </trkpt>
      <trkpt lat="43.56684" lon="6.71434">
        <ele>314.261261</ele>
        <time>2010-10-10T10:56:35Z</time>
      </trkpt>
      <trkpt lat="43.56688" lon="6.71458">
        <ele>311.285095</ele>
        <time>2010-10-10T10:56:39Z</time>
      </trkpt>
      <trkpt lat="43.56693" lon="6.71505">
        <ele>304.49353</ele>
        <time>2010-10-10T10:56:46Z</time>
      </trkpt>
      <trkpt lat="43.56688" lon="6.71552">
        <ele>300.239044</ele>
        <time>2010-10-10T10:56:52Z</time>
      </trkpt>
      <trkpt lat="43.56676" lon="6.71567">
        <ele>299.135864</ele>
        <time>2010-10-10T10:56:55Z</time>
      </trkpt>
      <trkpt lat="43.56661" lon="6.71582">
        <ele>299.464813</ele>
        <time>2010-10-10T10:56:59Z</time>
      </trkpt>
      <trkpt lat="43.56652" lon="6.71589">
        <ele>299.508057</ele>
        <time>2010-10-10T10:57:01Z</time>
      </trkpt>
      <trkpt lat="43.56643" lon="6.71599">
        <ele>299.431</ele>
        <time>2010-10-10T10:57:04Z</time>
      </trkpt>
      <trkpt lat="43.56639" lon="6.71606">
        <ele>299.330811</ele>
        <time>2010-10-10T10:57:05Z</time>
      </trkpt>
      <trkpt lat="43.56611" lon="6.71623">
        <ele>298.200745</ele>
        <time>2010-10-10T10:57:10Z</time>
      </trkpt>
      <trkpt lat="43.56577" lon="6.71651">
        <ele>296.769501</ele>
        <time>2010-10-10T10:57:16Z</time>
      </trkpt>
      <trkpt lat="43.56566" lon="6.71659">
        <ele>294.899078</ele>
        <time>2010-10-10T10:57:19Z</time>
      </trkpt>
      <trkpt lat="43.56547" lon="6.71666">
        <ele>290.671509</ele>
        <time>2010-10-10T10:57:24Z</time>
      </trkpt>
      <trkpt lat="43.56543" lon="6.71668">
        <ele>289.531433</ele>
        <time>2010-10-10T10:57:25Z</time>
      </trkpt>
      <trkpt lat="43.5653" lon="6.71674">
        <ele>287.228851</ele>
        <time>2010-10-10T10:57:28Z</time>
      </trkpt>
      <trkpt lat="43.56508" lon="6.71687">
        <ele>285.252167</ele>
        <time>2010-10-10T10:57:34Z</time>
      </trkpt>
      <trkpt lat="43.56498" lon="6.71698">
        <ele>284.047455</ele>
        <time>2010-10-10T10:57:36Z</time>
      </trkpt>
      <trkpt lat="43.56478" lon="6.71711">
        <ele>283.675842</ele>
        <time>2010-10-10T10:57:39Z</time>
      </trkpt>
      <trkpt lat="43.5644" lon="6.7173">
        <ele>279.831329</ele>
        <time>2010-10-10T10:57:45Z</time>
      </trkpt>
      <trkpt lat="43.56418" lon="6.71752">
        <ele>283.98114</ele>
        <time>2010-10-10T10:57:49Z</time>
      </trkpt>
      <trkpt lat="43.56395" lon="6.71756">
        <ele>282.36261</ele>
        <time>2010-10-10T10:57:53Z</time>
      </trkpt>
      <trkpt lat="43.56332" lon="6.71754">
        <ele>275.115692</ele>
        <time>2010-10-10T10:58:04Z</time>
      </trkpt>
      <trkpt lat="43.56294" lon="6.71767">
        <ele>271.851074</ele>
        <time>2010-10-10T10:58:10Z</time>
      </trkpt>
      <trkpt lat="43.56279" lon="6.71773">
        <ele>269.479279</ele>
        <time>2010-10-10T10:58:12Z</time>
      </trkpt>
      <trkpt lat="43.56257" lon="6.71784">
        <ele>266.932404</ele>
        <time>2010-10-10T10:58:15Z</time>
      </trkpt>
      <trkpt lat="43.56229" lon="6.71801">
        <ele>265.236023</ele>
        <time>2010-10-10T10:58:19Z</time>
      </trkpt>
      <trkpt lat="43.56204" lon="6.7182">
        <ele>261.522675</ele>
        <time>2010-10-10T10:58:23Z</time>
      </trkpt>
      <trkpt lat="43.56195" lon="6.71842">
        <ele>258.622833</ele>
        <time>2010-10-10T10:58:26Z</time>
      </trkpt>
      <trkpt lat="43.56174" lon="6.71891">
        <ele>254.290985</ele>
        <time>2010-10-10T10:58:32Z</time>
      </trkpt>
      <trkpt lat="43.56169" lon="6.71911">
        <ele>253.538361</ele>
        <time>2010-10-10T10:58:34Z</time>
      </trkpt>
      <trkpt lat="43.56154" lon="6.71934">
        <ele>253.502045</ele>
        <time>2010-10-10T10:58:37Z</time>
      </trkpt>
      <trkpt lat="43.56137" lon="6.71958">
        <ele>250.257813</ele>
        <time>2010-10-10T10:58:40Z</time>
      </trkpt>
      <trkpt lat="43.56131" lon="6.71964">
        <ele>249.286713</ele>
        <time>2010-10-10T10:58:41Z</time>
      </trkpt>
      <trkpt lat="43.56107" lon="6.71983">
        <ele>245.832382</ele>
        <time>2010-10-10T10:58:45Z</time>
      </trkpt>
      <trkpt lat="43.56105" lon="6.71988">
        <ele>245.486877</ele>
        <time>2010-10-10T10:58:46Z</time>
      </trkpt>
      <trkpt lat="43.56101" lon="6.72029">
        <ele>247.337692</ele>
        <time>2010-10-10T10:58:52Z</time>
      </trkpt>
      <trkpt lat="43.56092" lon="6.72033">
        <ele>247.379913</ele>
        <time>2010-10-10T10:58:54Z</time>
      </trkpt>
      <trkpt lat="43.5609" lon="6.72033">
        <ele>247.174179</ele>
        <time>2010-10-10T10:58:55Z</time>
      </trkpt>
      <trkpt lat="43.5606" lon="6.72039">
        <ele>245.978027</ele>
        <time>2010-10-10T10:59:04Z</time>
      </trkpt>
      <trkpt lat="43.56021" lon="6.72054">
        <ele>243.191696</ele>
        <time>2010-10-10T10:59:18Z</time>
      </trkpt>
      <trkpt lat="43.56017" lon="6.72054">
        <ele>243.01181</ele>
        <time>2010-10-10T10:59:19Z</time>
      </trkpt>
      <trkpt lat="43.55944" lon="6.72082">
        <ele>239.956329</ele>
        <time>2010-10-10T10:59:38Z</time>
      </trkpt>
      <trkpt lat="43.55929" lon="6.72086">
        <ele>239.484283</ele>
        <time>2010-10-10T10:59:41Z</time>
      </trkpt>
      <trkpt lat="43.55905" lon="6.72097">
        <ele>238.432846</ele>
        <time>2010-10-10T10:59:46Z</time>
      </trkpt>
      <trkpt lat="43.55899" lon="6.72112">
        <ele>237.962448</ele>
        <time>2010-10-10T10:59:48Z</time>
      </trkpt>
      <trkpt lat="43.55892" lon="6.72129">
        <ele>237.353577</ele>
        <time>2010-10-10T10:59:50Z</time>
      </trkpt>
      <trkpt lat="43.55884" lon="6.72153">
        <ele>237.641052</ele>
        <time>2010-10-10T10:59:53Z</time>
      </trkpt>
      <trkpt lat="43.55826" lon="6.72275">
        <ele>242.342651</ele>
        <time>2010-10-10T11:00:10Z</time>
      </trkpt>
      <trkpt lat="43.55813" lon="6.72275">
        <ele>240.24472</ele>
        <time>2010-10-10T11:00:12Z</time>
      </trkpt>
      <trkpt lat="43.55787" lon="6.7229">
        <ele>237.070221</ele>
        <time>2010-10-10T11:00:17Z</time>
      </trkpt>
      <trkpt lat="43.55772" lon="6.72303">
        <ele>234.313522</ele>
        <time>2010-10-10T11:00:20Z</time>
      </trkpt>
      <trkpt lat="43.55744" lon="6.72318">
        <ele>229.931625</ele>
        <time>2010-10-10T11:00:25Z</time>
      </trkpt>
      <trkpt lat="43.55727" lon="6.72327">
        <ele>228.435806</ele>
        <time>2010-10-10T11:00:28Z</time>
      </trkpt>
      <trkpt lat="43.55723" lon="6.72329">
        <ele>227.61348</ele>
        <time>2010-10-10T11:00:29Z</time>
      </trkpt>
      <trkpt lat="43.55719" lon="6.7234">
        <ele>226.64975</ele>
        <time>2010-10-10T11:00:31Z</time>
      </trkpt>
      <trkpt lat="43.55708" lon="6.72363">
        <ele>224.297134</ele>
        <time>2010-10-10T11:00:35Z</time>
      </trkpt>
      <trkpt lat="43.55699" lon="6.72372">
        <ele>223.782547</ele>
        <time>2010-10-10T11:00:37Z</time>
      </trkpt>
      <trkpt lat="43.55695" lon="6.72374">
        <ele>224.266083</ele>
        <time>2010-10-10T11:00:38Z</time>
      </trkpt>
      <trkpt lat="43.5568" lon="6.72383">
        <ele>225.454788</ele>
        <time>2010-10-10T11:00:44Z</time>
      </trkpt>
      <trkpt lat="43.55659" lon="6.72395">
        <ele>225.079803</ele>
        <time>2010-10-10T11:00:52Z</time>
      </trkpt>
      <trkpt lat="43.55644" lon="6.72398">
        <ele>224.239334</ele>
        <time>2010-10-10T11:00:58Z</time>
      </trkpt>
      <trkpt lat="43.55609" lon="6.72385">
        <ele>220.550186</ele>
        <time>2010-10-10T11:01:11Z</time>
      </trkpt>
      <trkpt lat="43.55568" lon="6.72353">
        <ele>215.538544</ele>
        <time>2010-10-10T11:01:26Z</time>
      </trkpt>
      <trkpt lat="43.55558" lon="6.7235">
        <ele>216.523178</ele>
        <time>2010-10-10T11:01:29Z</time>
      </trkpt>
      <trkpt lat="43.55549" lon="6.72359">
        <ele>217.138367</ele>
        <time>2010-10-10T11:01:32Z</time>
      </trkpt>
      <trkpt lat="43.55532" lon="6.72363">
        <ele>217.442444</ele>
        <time>2010-10-10T11:01:36Z</time>
      </trkpt>
      <trkpt lat="43.55523" lon="6.72368">
        <ele>216.792313</ele>
        <time>2010-10-10T11:01:38Z</time>
      </trkpt>
      <trkpt lat="43.55513" lon="6.72378">
        <ele>214.900726</ele>
        <time>2010-10-10T11:01:41Z</time>
      </trkpt>
      <trkpt lat="43.5548" lon="6.72417">
        <ele>209.047012</ele>
        <time>2010-10-10T11:01:52Z</time>
      </trkpt>
      <trkpt lat="43.55465" lon="6.72415">
        <ele>208.391663</ele>
        <time>2010-10-10T11:01:55Z</time>
      </trkpt>
      <trkpt lat="43.55461" lon="6.72413">
        <ele>208.451141</ele>
        <time>2010-10-10T11:01:56Z</time>
      </trkpt>
      <trkpt lat="43.55438" lon="6.72417">
        <ele>206.933029</ele>
        <time>2010-10-10T11:02:01Z</time>
      </trkpt>
      <trkpt lat="43.55433" lon="6.72417">
        <ele>206.721085</ele>
        <time>2010-10-10T11:02:02Z</time>
      </trkpt>
      <trkpt lat="43.55422" lon="6.72415">
        <ele>206.679672</ele>
        <time>2010-10-10T11:02:05Z</time>
      </trkpt>
      <trkpt lat="43.55416" lon="6.72413">
        <ele>206.840256</ele>
        <time>2010-10-10T11:02:07Z</time>
      </trkpt>
      <trkpt lat="43.55401" lon="6.72413">
        <ele>206.430298</ele>
        <time>2010-10-10T11:02:11Z</time>
      </trkpt>
      <trkpt lat="43.5538" lon="6.72415">
        <ele>205.532791</ele>
        <time>2010-10-10T11:02:17Z</time>
      </trkpt>
      <trkpt lat="43.55373" lon="6.72415">
        <ele>205.34169</ele>
        <time>2010-10-10T11:02:19Z</time>
      </trkpt>
      <trkpt lat="43.55365" lon="6.72417">
        <ele>204.832504</ele>
        <time>2010-10-10T11:02:22Z</time>
      </trkpt>
      <trkpt lat="43.55345" lon="6.72421">
        <ele>203.929977</ele>
        <time>2010-10-10T11:02:28Z</time>
      </trkpt>
      <trkpt lat="43.55345" lon="6.72413">
        <ele>204.812912</ele>
        <time>2010-10-10T11:02:31Z</time>
      </trkpt>
      <trkpt lat="43.55345" lon="6.72406">
        <ele>205.470886</ele>
        <time>2010-10-10T11:02:33Z</time>
      </trkpt>
      <trkpt lat="43.55354" lon="6.72385">
        <ele>208.044174</ele>
        <time>2010-10-10T11:02:42Z</time>
      </trkpt>
      <trkpt lat="43.55358" lon="6.72378">
        <ele>208.955505</ele>
        <time>2010-10-10T11:02:46Z</time>
      </trkpt>
      <trkpt lat="43.55369" lon="6.72374">
        <ele>210.326752</ele>
        <time>2010-10-10T11:02:53Z</time>
      </trkpt>
      <trkpt lat="43.55377" lon="6.72374">
        <ele>211.112045</ele>
        <time>2010-10-10T11:02:58Z</time>
      </trkpt>
      <trkpt lat="43.55388" lon="6.72365">
        <ele>213.407837</ele>
        <time>2010-10-10T11:03:05Z</time>
      </trkpt>
      <trkpt lat="43.55395" lon="6.72357">
        <ele>215.178879</ele>
        <time>2010-10-10T11:03:11Z</time>
      </trkpt>
      <trkpt lat="43.55412" lon="6.7234">
        <ele>219.279968</ele>
        <time>2010-10-10T11:03:23Z</time>
      </trkpt>
      <trkpt lat="43.5542" lon="6.72333">
        <ele>221.103226</ele>
        <time>2010-10-10T11:03:28Z</time>
      </trkpt>
      <trkpt lat="43.55427" lon="6.72323">
        <ele>222.230682</ele>
        <time>2010-10-10T11:03:34Z</time>
      </trkpt>
      <trkpt lat="43.55414" lon="6.72301">
        <ele>222.23645</ele>
        <time>2010-10-10T11:03:43Z</time>
      </trkpt>
      <trkpt lat="43.55405" lon="6.72299">
        <ele>221.529297</ele>
        <time>2010-10-10T11:03:46Z</time>
      </trkpt>
      <trkpt lat="43.55358" lon="6.72307">
        <ele>213.783173</ele>
        <time>2010-10-10T11:03:59Z</time>
      </trkpt>
      <trkpt lat="43.55326" lon="6.72327">
        <ele>208.683868</ele>
        <time>2010-10-10T11:04:08Z</time>
      </trkpt>
      <trkpt lat="43.55324" lon="6.72329">
        <ele>208.31012</ele>
        <time>2010-10-10T11:04:09Z</time>
      </trkpt>
      <trkpt lat="43.55304" lon="6.7234">
        <ele>205.574738</ele>
        <time>2010-10-10T11:04:15Z</time>
      </trkpt>
      <trkpt lat="43.55302" lon="6.72342">
        <ele>205.285278</ele>
        <time>2010-10-10T11:04:16Z</time>
      </trkpt>
      <trkpt lat="43.55287" lon="6.72357">
        <ele>203.93895</ele>
        <time>2010-10-10T11:04:19Z</time>
      </trkpt>
      <trkpt lat="43.55277" lon="6.72374">
        <ele>203.228043</ele>
        <time>2010-10-10T11:04:22Z</time>
      </trkpt>
      <trkpt lat="43.5527" lon="6.7238">
        <ele>202.883774</ele>
        <time>2010-10-10T11:04:25Z</time>
      </trkpt>
      <trkpt lat="43.55266" lon="6.72385">
        <ele>202.609833</ele>
        <time>2010-10-10T11:04:29Z</time>
      </trkpt>
      <trkpt lat="43.55266" lon="6.72385">
        <ele>202.609833</ele>
        <time>2010-10-10T11:04:30Z</time>
      </trkpt>
      <trkpt lat="43.55264" lon="6.72389">
        <ele>202.35817</ele>
        <time>2010-10-10T11:04:35Z</time>
      </trkpt>
      <trkpt lat="43.55259" lon="6.72393">
        <ele>202.019897</ele>
        <time>2010-10-10T11:04:39Z</time>
      </trkpt>
      <trkpt lat="43.55257" lon="6.72398">
        <ele>201.784393</ele>
        <time>2010-10-10T11:04:42Z</time>
      </trkpt>
      <trkpt lat="43.55253" lon="6.72404">
        <ele>201.401031</ele>
        <time>2010-10-10T11:04:47Z</time>
      </trkpt>
      <trkpt lat="43.55242" lon="6.72428">
        <ele>200.241104</ele>
        <time>2010-10-10T11:04:54Z</time>
      </trkpt>
      <trkpt lat="43.55242" lon="6.72434">
        <ele>200.086517</ele>
        <time>2010-10-10T11:04:55Z</time>
      </trkpt>
      <trkpt lat="43.55234" lon="6.72453">
        <ele>199.327164</ele>
        <time>2010-10-10T11:04:58Z</time>
      </trkpt>
      <trkpt lat="43.55219" lon="6.72483">
        <ele>198.012375</ele>
        <time>2010-10-10T11:05:03Z</time>
      </trkpt>
      <trkpt lat="43.5521" lon="6.7249">
        <ele>197.598114</ele>
        <time>2010-10-10T11:05:06Z</time>
      </trkpt>
      <trkpt lat="43.55208" lon="6.72492">
        <ele>197.477707</ele>
        <time>2010-10-10T11:05:07Z</time>
      </trkpt>
      <trkpt lat="43.55201" lon="6.72507">
        <ele>196.587219</ele>
        <time>2010-10-10T11:05:09Z</time>
      </trkpt>
      <trkpt lat="43.55197" lon="6.72513">
        <ele>195.757172</ele>
        <time>2010-10-10T11:05:10Z</time>
      </trkpt>
      <trkpt lat="43.55174" lon="6.7252">
        <ele>193.196228</ele>
        <time>2010-10-10T11:05:15Z</time>
      </trkpt>
      <trkpt lat="43.55163" lon="6.72518">
        <ele>192.40332</ele>
        <time>2010-10-10T11:05:18Z</time>
      </trkpt>
      <trkpt lat="43.55156" lon="6.72516">
        <ele>191.975647</ele>
        <time>2010-10-10T11:05:20Z</time>
      </trkpt>
      <trkpt lat="43.55152" lon="6.72516">
        <ele>191.619598</ele>
        <time>2010-10-10T11:05:21Z</time>
      </trkpt>
      <trkpt lat="43.55148" lon="6.72516">
        <ele>191.273376</ele>
        <time>2010-10-10T11:05:22Z</time>
      </trkpt>
      <trkpt lat="43.55139" lon="6.72516">
        <ele>190.587021</ele>
        <time>2010-10-10T11:05:24Z</time>
      </trkpt>
      <trkpt lat="43.55129" lon="6.72518">
        <ele>189.649261</ele>
        <time>2010-10-10T11:05:27Z</time>
      </trkpt>
      <trkpt lat="43.55118" lon="6.72522">
        <ele>188.681595</ele>
        <time>2010-10-10T11:05:30Z</time>
      </trkpt>
      <trkpt lat="43.55096" lon="6.72535">
        <ele>187.66304</ele>
        <time>2010-10-10T11:05:36Z</time>
      </trkpt>
      <trkpt lat="43.55088" lon="6.72539">
        <ele>187.503021</ele>
        <time>2010-10-10T11:05:38Z</time>
      </trkpt>
      <trkpt lat="43.55081" lon="6.72544">
        <ele>187.348328</ele>
        <time>2010-10-10T11:05:40Z</time>
      </trkpt>
      <trkpt lat="43.55073" lon="6.72546">
        <ele>187.25766</ele>
        <time>2010-10-10T11:05:42Z</time>
      </trkpt>
      <trkpt lat="43.55053" lon="6.72548">
        <ele>188.034622</ele>
        <time>2010-10-10T11:05:46Z</time>
      </trkpt>
      <trkpt lat="43.55045" lon="6.72526">
        <ele>189.220703</ele>
        <time>2010-10-10T11:05:51Z</time>
      </trkpt>
      <trkpt lat="43.55041" lon="6.72498">
        <ele>189.994858</ele>
        <time>2010-10-10T11:05:59Z</time>
      </trkpt>
      <trkpt lat="43.55041" lon="6.7249">
        <ele>190.131927</ele>
        <time>2010-10-10T11:06:01Z</time>
      </trkpt>
      <trkpt lat="43.55043" lon="6.72481">
        <ele>190.323914</ele>
        <time>2010-10-10T11:06:04Z</time>
      </trkpt>
      <trkpt lat="43.55041" lon="6.72473">
        <ele>190.706848</ele>
        <time>2010-10-10T11:06:07Z</time>
      </trkpt>
      <trkpt lat="43.55038" lon="6.72471">
        <ele>190.870102</ele>
        <time>2010-10-10T11:06:08Z</time>
      </trkpt>
      <trkpt lat="43.5503" lon="6.72464">
        <ele>191.449875</ele>
        <time>2010-10-10T11:06:12Z</time>
      </trkpt>
      <trkpt lat="43.55026" lon="6.7246">
        <ele>191.776382</ele>
        <time>2010-10-10T11:06:14Z</time>
      </trkpt>
      <trkpt lat="43.55006" lon="6.72447">
        <ele>193.530884</ele>
        <time>2010-10-10T11:06:22Z</time>
      </trkpt>
      <trkpt lat="43.54993" lon="6.72445">
        <ele>194.523209</ele>
        <time>2010-10-10T11:06:28Z</time>
      </trkpt>
      <trkpt lat="43.54998" lon="6.72464">
        <ele>193.700714</ele>
        <time>2010-10-10T11:06:33Z</time>
      </trkpt>
      <trkpt lat="43.55" lon="6.72473">
        <ele>193.293365</ele>
        <time>2010-10-10T11:06:36Z</time>
      </trkpt>
      <trkpt lat="43.55004" lon="6.72481">
        <ele>192.688385</ele>
        <time>2010-10-10T11:06:39Z</time>
      </trkpt>
      <trkpt lat="43.55015" lon="6.72518">
        <ele>191.525558</ele>
        <time>2010-10-10T11:06:52Z</time>
      </trkpt>
      <trkpt lat="43.55023" lon="6.72548">
        <ele>190.603256</ele>
        <time>2010-10-10T11:07:05Z</time>
      </trkpt>
      <trkpt lat="43.55017" lon="6.72554">
        <ele>191.419296</ele>
        <time>2010-10-10T11:07:10Z</time>
      </trkpt>
      <trkpt lat="43.55015" lon="6.72556">
        <ele>191.76001</ele>
        <time>2010-10-10T11:07:11Z</time>
      </trkpt>
      <trkpt lat="43.55004" lon="6.72552">
        <ele>192.803192</ele>
        <time>2010-10-10T11:07:17Z</time>
      </trkpt>
      <trkpt lat="43.54995" lon="6.72548">
        <ele>193.599991</ele>
        <time>2010-10-10T11:07:23Z</time>
      </trkpt>
      <trkpt lat="43.54987" lon="6.72541">
        <ele>194.511734</ele>
        <time>2010-10-10T11:07:29Z</time>
      </trkpt>
      <trkpt lat="43.54978" lon="6.72535">
        <ele>195.391159</ele>
        <time>2010-10-10T11:07:35Z</time>
      </trkpt>
      <trkpt lat="43.54963" lon="6.72526">
        <ele>196.730301</ele>
        <time>2010-10-10T11:07:46Z</time>
      </trkpt>
      <trkpt lat="43.5495" lon="6.72522">
        <ele>197.774277</ele>
        <time>2010-10-10T11:07:52Z</time>
      </trkpt>
      <trkpt lat="43.54946" lon="6.72531">
        <ele>198.534775</ele>
        <time>2010-10-10T11:07:55Z</time>
      </trkpt>
      <trkpt lat="43.54942" lon="6.72537">
        <ele>199.270615</ele>
        <time>2010-10-10T11:07:58Z</time>
      </trkpt>
      <trkpt lat="43.54935" lon="6.72548">
        <ele>200.237534</ele>
        <time>2010-10-10T11:08:03Z</time>
      </trkpt>
      <trkpt lat="43.54935" lon="6.7255">
        <ele>200.21431</ele>
        <time>2010-10-10T11:08:04Z</time>
      </trkpt>
      <trkpt lat="43.54929" lon="6.72559">
        <ele>200.691406</ele>
        <time>2010-10-10T11:08:10Z</time>
      </trkpt>
      <trkpt lat="43.54927" lon="6.72569">
        <ele>200.609879</ele>
        <time>2010-10-10T11:08:16Z</time>
      </trkpt>
      <trkpt lat="43.54931" lon="6.7258">
        <ele>200.191086</ele>
        <time>2010-10-10T11:08:22Z</time>
      </trkpt>
      <trkpt lat="43.54935" lon="6.72599">
        <ele>199.828293</ele>
        <time>2010-10-10T11:08:30Z</time>
      </trkpt>
      <trkpt lat="43.54935" lon="6.7261">
        <ele>200.420456</ele>
        <time>2010-10-10T11:08:33Z</time>
      </trkpt>
      <trkpt lat="43.54935" lon="6.72614">
        <ele>200.942169</ele>
        <time>2010-10-10T11:08:35Z</time>
      </trkpt>
      <trkpt lat="43.54931" lon="6.72642">
        <ele>204.558441</ele>
        <time>2010-10-10T11:08:56Z</time>
      </trkpt>
      <trkpt lat="43.54933" lon="6.72642">
        <ele>204.432495</ele>
        <time>2010-10-10T11:11:35Z</time>
      </trkpt>
      <trkpt lat="43.5494" lon="6.72644">
        <ele>204.30809</ele>
        <time>2010-10-10T11:11:46Z</time>
      </trkpt>
      <trkpt lat="43.54948" lon="6.7267">
        <ele>206.747803</ele>
        <time>2010-10-10T11:11:54Z</time>
      </trkpt>
      <trkpt lat="43.54944" lon="6.72679">
        <ele>208.41214</ele>
        <time>2010-10-10T11:11:58Z</time>
      </trkpt>
      <trkpt lat="43.54933" lon="6.72689">
        <ele>210.595398</ele>
        <time>2010-10-10T11:12:04Z</time>
      </trkpt>
      <trkpt lat="43.54925" lon="6.72704">
        <ele>212.943405</ele>
        <time>2010-10-10T11:12:11Z</time>
      </trkpt>
      <trkpt lat="43.54918" lon="6.72719">
        <ele>214.915054</ele>
        <time>2010-10-10T11:12:17Z</time>
      </trkpt>
      <trkpt lat="43.54912" lon="6.72741">
        <ele>216.568344</ele>
        <time>2010-10-10T11:12:25Z</time>
      </trkpt>
      <trkpt lat="43.54908" lon="6.72752">
        <ele>217.161133</ele>
        <time>2010-10-10T11:12:29Z</time>
      </trkpt>
      <trkpt lat="43.54901" lon="6.72767">
        <ele>218.098907</ele>
        <time>2010-10-10T11:12:35Z</time>
      </trkpt>
      <trkpt lat="43.54892" lon="6.72775">
        <ele>218.78392</ele>
        <time>2010-10-10T11:12:40Z</time>
      </trkpt>
      <trkpt lat="43.54884" lon="6.7276">
        <ele>217.838303</ele>
        <time>2010-10-10T11:12:48Z</time>
      </trkpt>
      <trkpt lat="43.54882" lon="6.72758">
        <ele>217.694763</ele>
        <time>2010-10-10T11:12:49Z</time>
      </trkpt>
      <trkpt lat="43.54877" lon="6.72754">
        <ele>217.388611</ele>
        <time>2010-10-10T11:12:52Z</time>
      </trkpt>
      <trkpt lat="43.54867" lon="6.72752">
        <ele>217.546997</ele>
        <time>2010-10-10T11:12:58Z</time>
      </trkpt>
      <trkpt lat="43.54856" lon="6.72756">
        <ele>218.387802</ele>
        <time>2010-10-10T11:13:05Z</time>
      </trkpt>
      <trkpt lat="43.54845" lon="6.7276">
        <ele>219.34494</ele>
        <time>2010-10-10T11:13:11Z</time>
      </trkpt>
      <trkpt lat="43.54835" lon="6.72767">
        <ele>220.681</ele>
        <time>2010-10-10T11:13:17Z</time>
      </trkpt>
      <trkpt lat="43.54828" lon="6.72775">
        <ele>222.058426</ele>
        <time>2010-10-10T11:13:22Z</time>
      </trkpt>
      <trkpt lat="43.54809" lon="6.72786">
        <ele>222.831451</ele>
        <time>2010-10-10T11:13:34Z</time>
      </trkpt>
      <trkpt lat="43.54794" lon="6.72797">
        <ele>224.232544</ele>
        <time>2010-10-10T11:13:44Z</time>
      </trkpt>
      <trkpt lat="43.54789" lon="6.72799">
        <ele>224.784393</ele>
        <time>2010-10-10T11:13:46Z</time>
      </trkpt>
      <trkpt lat="43.54789" lon="6.72812">
        <ele>226.476517</ele>
        <time>2010-10-10T11:13:51Z</time>
      </trkpt>
      <trkpt lat="43.54789" lon="6.72814">
        <ele>226.752884</ele>
        <time>2010-10-10T11:13:52Z</time>
      </trkpt>
      <trkpt lat="43.54794" lon="6.7282">
        <ele>226.873032</ele>
        <time>2010-10-10T11:13:55Z</time>
      </trkpt>
      <trkpt lat="43.548" lon="6.72829">
        <ele>226.521439</ele>
        <time>2010-10-10T11:14:00Z</time>
      </trkpt>
      <trkpt lat="43.54805" lon="6.72835">
        <ele>226.064667</ele>
        <time>2010-10-10T11:14:05Z</time>
      </trkpt>
      <trkpt lat="43.54828" lon="6.72891">
        <ele>223.59407</ele>
        <time>2010-10-10T11:14:28Z</time>
      </trkpt>
      <trkpt lat="43.54837" lon="6.72908">
        <ele>223.03743</ele>
        <time>2010-10-10T11:14:35Z</time>
      </trkpt>
      <trkpt lat="43.54841" lon="6.72925">
        <ele>222.206802</ele>
        <time>2010-10-10T11:14:40Z</time>
      </trkpt>
      <trkpt lat="43.54837" lon="6.72947">
        <ele>222.562195</ele>
        <time>2010-10-10T11:14:46Z</time>
      </trkpt>
      <trkpt lat="43.54826" lon="6.72953">
        <ele>223.789963</ele>
        <time>2010-10-10T11:14:50Z</time>
      </trkpt>
      <trkpt lat="43.54815" lon="6.7296">
        <ele>225.816925</ele>
        <time>2010-10-10T11:14:54Z</time>
      </trkpt>
      <trkpt lat="43.54811" lon="6.72971">
        <ele>227.263992</ele>
        <time>2010-10-10T11:14:58Z</time>
      </trkpt>
      <trkpt lat="43.54826" lon="6.72983">
        <ele>226.118683</ele>
        <time>2010-10-10T11:15:05Z</time>
      </trkpt>
      <trkpt lat="43.54835" lon="6.72986">
        <ele>225.196671</ele>
        <time>2010-10-10T11:15:08Z</time>
      </trkpt>
      <trkpt lat="43.5489" lon="6.73007">
        <ele>221.9431</ele>
        <time>2010-10-10T11:15:29Z</time>
      </trkpt>
      <trkpt lat="43.54862" lon="6.73056">
        <ele>227.690552</ele>
        <time>2010-10-10T11:15:37Z</time>
      </trkpt>
      <trkpt lat="43.5486" lon="6.73056">
        <ele>228.167389</ele>
        <time>2010-10-10T11:15:38Z</time>
      </trkpt>
      <trkpt lat="43.54854" lon="6.73061">
        <ele>229.868393</ele>
        <time>2010-10-10T11:15:42Z</time>
      </trkpt>
      <trkpt lat="43.54852" lon="6.73063">
        <ele>230.490479</ele>
        <time>2010-10-10T11:15:43Z</time>
      </trkpt>
      <trkpt lat="43.54847" lon="6.73074">
        <ele>232.181519</ele>
        <time>2010-10-10T11:15:47Z</time>
      </trkpt>
      <trkpt lat="43.54847" lon="6.73082">
        <ele>232.746262</ele>
        <time>2010-10-10T11:15:50Z</time>
      </trkpt>
      <trkpt lat="43.54847" lon="6.73084">
        <ele>232.886765</ele>
        <time>2010-10-10T11:15:51Z</time>
      </trkpt>
      <trkpt lat="43.54852" lon="6.73095">
        <ele>232.272705</ele>
        <time>2010-10-10T11:15:55Z</time>
      </trkpt>
      <trkpt lat="43.54852" lon="6.73104">
        <ele>231.384155</ele>
        <time>2010-10-10T11:15:59Z</time>
      </trkpt>
      <trkpt lat="43.54854" lon="6.73119">
        <ele>229.295898</ele>
        <time>2010-10-10T11:16:05Z</time>
      </trkpt>
      <trkpt lat="43.54852" lon="6.73131">
        <ele>228.481461</ele>
        <time>2010-10-10T11:16:10Z</time>
      </trkpt>
      <trkpt lat="43.54841" lon="6.73136">
        <ele>230.743118</ele>
        <time>2010-10-10T11:16:18Z</time>
      </trkpt>
      <trkpt lat="43.54837" lon="6.73142">
        <ele>231.189713</ele>
        <time>2010-10-10T11:16:20Z</time>
      </trkpt>
      <trkpt lat="43.54817" lon="6.73183">
        <ele>233.207977</ele>
        <time>2010-10-10T11:16:30Z</time>
      </trkpt>
      <trkpt lat="43.54815" lon="6.73187">
        <ele>233.323364</ele>
        <time>2010-10-10T11:16:31Z</time>
      </trkpt>
      <trkpt lat="43.54798" lon="6.73215">
        <ele>235.154114</ele>
        <time>2010-10-10T11:16:37Z</time>
      </trkpt>
      <trkpt lat="43.54789" lon="6.7323">
        <ele>237.556351</ele>
        <time>2010-10-10T11:16:40Z</time>
      </trkpt>
      <trkpt lat="43.54796" lon="6.73239">
        <ele>236.964081</ele>
        <time>2010-10-10T11:16:44Z</time>
      </trkpt>
      <trkpt lat="43.54802" lon="6.73234">
        <ele>235.68335</ele>
        <time>2010-10-10T11:16:46Z</time>
      </trkpt>
      <trkpt lat="43.54817" lon="6.73222">
        <ele>232.249756</ele>
        <time>2010-10-10T11:16:51Z</time>
      </trkpt>
      <trkpt lat="43.54845" lon="6.73209">
        <ele>228.138412</ele>
        <time>2010-10-10T11:16:58Z</time>
      </trkpt>
      <trkpt lat="43.54862" lon="6.73211">
        <ele>226.294861</ele>
        <time>2010-10-10T11:17:01Z</time>
      </trkpt>
      <trkpt lat="43.54901" lon="6.73202">
        <ele>222.058136</ele>
        <time>2010-10-10T11:17:07Z</time>
      </trkpt>
      <trkpt lat="43.54929" lon="6.732">
        <ele>217.410507</ele>
        <time>2010-10-10T11:17:11Z</time>
      </trkpt>
      <trkpt lat="43.5495" lon="6.73207">
        <ele>215.055801</ele>
        <time>2010-10-10T11:17:14Z</time>
      </trkpt>
      <trkpt lat="43.54972" lon="6.73211">
        <ele>210.47966</ele>
        <time>2010-10-10T11:17:17Z</time>
      </trkpt>
      <trkpt lat="43.54978" lon="6.73211">
        <ele>208.860825</ele>
        <time>2010-10-10T11:17:18Z</time>
      </trkpt>
      <trkpt lat="43.54995" lon="6.73219">
        <ele>206.04689</ele>
        <time>2010-10-10T11:17:21Z</time>
      </trkpt>
      <trkpt lat="43.55006" lon="6.73234">
        <ele>204.965424</ele>
        <time>2010-10-10T11:17:23Z</time>
      </trkpt>
      <trkpt lat="43.55017" lon="6.73252">
        <ele>203.389908</ele>
        <time>2010-10-10T11:17:25Z</time>
      </trkpt>
      <trkpt lat="43.55013" lon="6.73277">
        <ele>205.828049</ele>
        <time>2010-10-10T11:17:28Z</time>
      </trkpt>
      <trkpt lat="43.55" lon="6.73299">
        <ele>210.709457</ele>
        <time>2010-10-10T11:17:32Z</time>
      </trkpt>
      <trkpt lat="43.55004" lon="6.7331">
        <ele>210.772842</ele>
        <time>2010-10-10T11:17:34Z</time>
      </trkpt>
      <trkpt lat="43.55004" lon="6.73316">
        <ele>211.453369</ele>
        <time>2010-10-10T11:17:35Z</time>
      </trkpt>
      <trkpt lat="43.55032" lon="6.73314">
        <ele>205.833954</ele>
        <time>2010-10-10T11:17:41Z</time>
      </trkpt>
      <trkpt lat="43.55071" lon="6.73322">
        <ele>201.145844</ele>
        <time>2010-10-10T11:17:48Z</time>
      </trkpt>
      <trkpt lat="43.55077" lon="6.73327">
        <ele>200.875595</ele>
        <time>2010-10-10T11:17:49Z</time>
      </trkpt>
      <trkpt lat="43.5509" lon="6.73337">
        <ele>199.617599</ele>
        <time>2010-10-10T11:17:51Z</time>
      </trkpt>
      <trkpt lat="43.55109" lon="6.73355">
        <ele>195.108856</ele>
        <time>2010-10-10T11:17:54Z</time>
      </trkpt>
      <trkpt lat="43.55114" lon="6.73363">
        <ele>193.756165</ele>
        <time>2010-10-10T11:17:55Z</time>
      </trkpt>
      <trkpt lat="43.55129" lon="6.73393">
        <ele>191.276489</ele>
        <time>2010-10-10T11:17:58Z</time>
      </trkpt>
      <trkpt lat="43.55135" lon="6.73428">
        <ele>190.869476</ele>
        <time>2010-10-10T11:18:01Z</time>
      </trkpt>
      <trkpt lat="43.55144" lon="6.73477">
        <ele>186.116821</ele>
        <time>2010-10-10T11:18:06Z</time>
      </trkpt>
      <trkpt lat="43.55152" lon="6.73501">
        <ele>186.219315</ele>
        <time>2010-10-10T11:18:09Z</time>
      </trkpt>
      <trkpt lat="43.55163" lon="6.73524">
        <ele>189.536453</ele>
        <time>2010-10-10T11:18:16Z</time>
      </trkpt>
      <trkpt lat="43.55169" lon="6.73528">
        <ele>189.464447</ele>
        <time>2010-10-10T11:18:22Z</time>
      </trkpt>
      <trkpt lat="43.55178" lon="6.73522">
        <ele>187.118423</ele>
        <time>2010-10-10T11:18:25Z</time>
      </trkpt>
      <trkpt lat="43.55193" lon="6.73511">
        <ele>183.897781</ele>
        <time>2010-10-10T11:18:29Z</time>
      </trkpt>
      <trkpt lat="43.5521" lon="6.73505">
        <ele>181.518387</ele>
        <time>2010-10-10T11:18:32Z</time>
      </trkpt>
      <trkpt lat="43.5524" lon="6.73535">
        <ele>178.22641</ele>
        <time>2010-10-10T11:18:38Z</time>
      </trkpt>
      <trkpt lat="43.55242" lon="6.73567">
        <ele>178.535217</ele>
        <time>2010-10-10T11:18:42Z</time>
      </trkpt>
      <trkpt lat="43.55242" lon="6.73573">
        <ele>178.716064</ele>
        <time>2010-10-10T11:18:43Z</time>
      </trkpt>
      <trkpt lat="43.55236" lon="6.73593">
        <ele>180.938339</ele>
        <time>2010-10-10T11:18:46Z</time>
      </trkpt>
      <trkpt lat="43.55238" lon="6.73612">
        <ele>180.947296</ele>
        <time>2010-10-10T11:18:51Z</time>
      </trkpt>
      <trkpt lat="43.55242" lon="6.73629">
        <ele>180.433701</ele>
        <time>2010-10-10T11:18:57Z</time>
      </trkpt>
      <trkpt lat="43.55244" lon="6.73649">
        <ele>180.878815</ele>
        <time>2010-10-10T11:19:04Z</time>
      </trkpt>
      <trkpt lat="43.5524" lon="6.7367">
        <ele>183.172012</ele>
        <time>2010-10-10T11:19:11Z</time>
      </trkpt>
      <trkpt lat="43.55232" lon="6.73698">
        <ele>188.343414</ele>
        <time>2010-10-10T11:19:22Z</time>
      </trkpt>
      <trkpt lat="43.55232" lon="6.73717">
        <ele>190.878784</ele>
        <time>2010-10-10T11:19:28Z</time>
      </trkpt>
      <trkpt lat="43.55247" lon="6.73745">
        <ele>192.294022</ele>
        <time>2010-10-10T11:19:42Z</time>
      </trkpt>
      <trkpt lat="43.55257" lon="6.73758">
        <ele>192.878098</ele>
        <time>2010-10-10T11:19:50Z</time>
      </trkpt>
      <trkpt lat="43.55268" lon="6.73775">
        <ele>194.323578</ele>
        <time>2010-10-10T11:19:59Z</time>
      </trkpt>
      <trkpt lat="43.5527" lon="6.73779">
        <ele>194.787537</ele>
        <time>2010-10-10T11:20:01Z</time>
      </trkpt>
      <trkpt lat="43.55272" lon="6.73782">
        <ele>194.769119</ele>
        <time>2010-10-10T11:20:03Z</time>
      </trkpt>
      <trkpt lat="43.55277" lon="6.73788">
        <ele>195.194672</ele>
        <time>2010-10-10T11:20:06Z</time>
      </trkpt>
      <trkpt lat="43.55281" lon="6.73795">
        <ele>195.600266</ele>
        <time>2010-10-10T11:20:10Z</time>
      </trkpt>
      <trkpt lat="43.55287" lon="6.73805">
        <ele>196.406723</ele>
        <time>2010-10-10T11:20:18Z</time>
      </trkpt>
      <trkpt lat="43.55289" lon="6.73807">
        <ele>196.352966</ele>
        <time>2010-10-10T11:20:20Z</time>
      </trkpt>
      <trkpt lat="43.55302" lon="6.73818">
        <ele>195.840302</ele>
        <time>2010-10-10T11:20:28Z</time>
      </trkpt>
      <trkpt lat="43.55311" lon="6.73827">
        <ele>195.695511</ele>
        <time>2010-10-10T11:20:35Z</time>
      </trkpt>
      <trkpt lat="43.55315" lon="6.73831">
        <ele>195.565948</ele>
        <time>2010-10-10T11:20:38Z</time>
      </trkpt>
      <trkpt lat="43.55317" lon="6.73835">
        <ele>195.971832</ele>
        <time>2010-10-10T11:20:40Z</time>
      </trkpt>
      <trkpt lat="43.5532" lon="6.7384">
        <ele>196.357101</ele>
        <time>2010-10-10T11:20:43Z</time>
      </trkpt>
      <trkpt lat="43.55322" lon="6.7384">
        <ele>195.774414</ele>
        <time>2010-10-10T11:20:44Z</time>
      </trkpt>
      <trkpt lat="43.55324" lon="6.73844">
        <ele>196.129913</ele>
        <time>2010-10-10T11:20:46Z</time>
      </trkpt>
      <trkpt lat="43.55343" lon="6.7387">
        <ele>196.266479</ele>
        <time>2010-10-10T11:21:04Z</time>
      </trkpt>
      <trkpt lat="43.55356" lon="6.73889">
        <ele>196.127502</ele>
        <time>2010-10-10T11:21:17Z</time>
      </trkpt>
      <trkpt lat="43.5536" lon="6.73898">
        <ele>196.485123</ele>
        <time>2010-10-10T11:21:22Z</time>
      </trkpt>
      <trkpt lat="43.55358" lon="6.73913">
        <ele>199.702591</ele>
        <time>2010-10-10T11:21:28Z</time>
      </trkpt>
      <trkpt lat="43.55358" lon="6.73925">
        <ele>201.98349</ele>
        <time>2010-10-10T11:21:34Z</time>
      </trkpt>
      <trkpt lat="43.55352" lon="6.7394">
        <ele>205.847687</ele>
        <time>2010-10-10T11:21:40Z</time>
      </trkpt>
      <trkpt lat="43.55354" lon="6.73953">
        <ele>206.58197</ele>
        <time>2010-10-10T11:21:46Z</time>
      </trkpt>
      <trkpt lat="43.55358" lon="6.73958">
        <ele>206.066971</ele>
        <time>2010-10-10T11:21:49Z</time>
      </trkpt>
      <trkpt lat="43.5536" lon="6.73958">
        <ele>205.603928</ele>
        <time>2010-10-10T11:21:50Z</time>
      </trkpt>
      <trkpt lat="43.55369" lon="6.73962">
        <ele>204.472961</ele>
        <time>2010-10-10T11:21:56Z</time>
      </trkpt>
      <trkpt lat="43.55373" lon="6.73964">
        <ele>204.246826</ele>
        <time>2010-10-10T11:21:58Z</time>
      </trkpt>
      <trkpt lat="43.55384" lon="6.7397">
        <ele>203.766602</ele>
        <time>2010-10-10T11:22:05Z</time>
      </trkpt>
      <trkpt lat="43.55388" lon="6.73985">
        <ele>204.816803</ele>
        <time>2010-10-10T11:22:13Z</time>
      </trkpt>
      <trkpt lat="43.55388" lon="6.73988">
        <ele>205.032684</ele>
        <time>2010-10-10T11:22:14Z</time>
      </trkpt>
      <trkpt lat="43.5538" lon="6.74003">
        <ele>207.199158</ele>
        <time>2010-10-10T11:22:23Z</time>
      </trkpt>
      <trkpt lat="43.55371" lon="6.74001">
        <ele>208.273544</ele>
        <time>2010-10-10T11:22:29Z</time>
      </trkpt>
      <trkpt lat="43.55352" lon="6.73994">
        <ele>210.921646</ele>
        <time>2010-10-10T11:22:41Z</time>
      </trkpt>
      <trkpt lat="43.55343" lon="6.73992">
        <ele>212.345474</ele>
        <time>2010-10-10T11:22:46Z</time>
      </trkpt>
      <trkpt lat="43.55324" lon="6.73988">
        <ele>215.657303</ele>
        <time>2010-10-10T11:22:58Z</time>
      </trkpt>
      <trkpt lat="43.55302" lon="6.73973">
        <ele>220.080139</ele>
        <time>2010-10-10T11:23:10Z</time>
      </trkpt>
      <trkpt lat="43.55298" lon="6.73958">
        <ele>220.79541</ele>
        <time>2010-10-10T11:23:16Z</time>
      </trkpt>
      <trkpt lat="43.553" lon="6.73938">
        <ele>219.603531</ele>
        <time>2010-10-10T11:23:23Z</time>
      </trkpt>
      <trkpt lat="43.553" lon="6.73923">
        <ele>217.917221</ele>
        <time>2010-10-10T11:23:29Z</time>
      </trkpt>
      <trkpt lat="43.55296" lon="6.73908">
        <ele>216.853699</ele>
        <time>2010-10-10T11:23:35Z</time>
      </trkpt>
      <trkpt lat="43.55292" lon="6.73898">
        <ele>216.426422</ele>
        <time>2010-10-10T11:23:40Z</time>
      </trkpt>
      <trkpt lat="43.55285" lon="6.73885">
        <ele>216.225052</ele>
        <time>2010-10-10T11:23:46Z</time>
      </trkpt>
      <trkpt lat="43.55274" lon="6.73874">
        <ele>217.490768</ele>
        <time>2010-10-10T11:23:52Z</time>
      </trkpt>
      <trkpt lat="43.55253" lon="6.73859">
        <ele>219.942307</ele>
        <time>2010-10-10T11:24:04Z</time>
      </trkpt>
      <trkpt lat="43.55223" lon="6.7385">
        <ele>224.074615</ele>
        <time>2010-10-10T11:24:18Z</time>
      </trkpt>
      <trkpt lat="43.55212" lon="6.73846">
        <ele>224.308289</ele>
        <time>2010-10-10T11:24:23Z</time>
      </trkpt>
      <trkpt lat="43.55201" lon="6.73844">
        <ele>225.190826</ele>
        <time>2010-10-10T11:24:29Z</time>
      </trkpt>
      <trkpt lat="43.55189" lon="6.7385">
        <ele>228.833939</ele>
        <time>2010-10-10T11:24:35Z</time>
      </trkpt>
      <trkpt lat="43.55176" lon="6.73859">
        <ele>233.012695</ele>
        <time>2010-10-10T11:24:41Z</time>
      </trkpt>
      <trkpt lat="43.55167" lon="6.73861">
        <ele>234.722595</ele>
        <time>2010-10-10T11:24:46Z</time>
      </trkpt>
      <trkpt lat="43.55146" lon="6.73857">
        <ele>236.430084</ele>
        <time>2010-10-10T11:24:57Z</time>
      </trkpt>
      <trkpt lat="43.55139" lon="6.73852">
        <ele>237.13443</ele>
        <time>2010-10-10T11:25:00Z</time>
      </trkpt>
      <trkpt lat="43.55135" lon="6.73846">
        <ele>236.671036</ele>
        <time>2010-10-10T11:25:03Z</time>
      </trkpt>
      <trkpt lat="43.55126" lon="6.73829">
        <ele>234.611938</ele>
        <time>2010-10-10T11:25:10Z</time>
      </trkpt>
      <trkpt lat="43.55122" lon="6.73822">
        <ele>234.148529</ele>
        <time>2010-10-10T11:25:13Z</time>
      </trkpt>
      <trkpt lat="43.5512" lon="6.7382">
        <ele>234.199905</ele>
        <time>2010-10-10T11:25:14Z</time>
      </trkpt>
      <trkpt lat="43.55111" lon="6.73814">
        <ele>234.971558</ele>
        <time>2010-10-10T11:25:18Z</time>
      </trkpt>
      <trkpt lat="43.55077" lon="6.73799">
        <ele>241.839355</ele>
        <time>2010-10-10T11:25:34Z</time>
      </trkpt>
      <trkpt lat="43.55075" lon="6.73786">
        <ele>240.366531</ele>
        <time>2010-10-10T11:25:38Z</time>
      </trkpt>
      <trkpt lat="43.55075" lon="6.73773">
        <ele>239.290756</ele>
        <time>2010-10-10T11:25:42Z</time>
      </trkpt>
      <trkpt lat="43.55073" lon="6.73764">
        <ele>239.186935</ele>
        <time>2010-10-10T11:25:45Z</time>
      </trkpt>
      <trkpt lat="43.55071" lon="6.73758">
        <ele>239.231293</ele>
        <time>2010-10-10T11:25:47Z</time>
      </trkpt>
      <trkpt lat="43.55064" lon="6.73749">
        <ele>240.222549</ele>
        <time>2010-10-10T11:25:52Z</time>
      </trkpt>
      <trkpt lat="43.55053" lon="6.73741">
        <ele>240.297043</ele>
        <time>2010-10-10T11:25:58Z</time>
      </trkpt>
      <trkpt lat="43.55041" lon="6.73743">
        <ele>240.534897</ele>
        <time>2010-10-10T11:26:04Z</time>
      </trkpt>
      <trkpt lat="43.55017" lon="6.73754">
        <ele>243.352356</ele>
        <time>2010-10-10T11:26:17Z</time>
      </trkpt>
      <trkpt lat="43.55" lon="6.73771">
        <ele>246.935104</ele>
        <time>2010-10-10T11:26:28Z</time>
      </trkpt>
      <trkpt lat="43.54991" lon="6.73779">
        <ele>248.901291</ele>
        <time>2010-10-10T11:26:34Z</time>
      </trkpt>
      <trkpt lat="43.54983" lon="6.73786">
        <ele>250.221832</ele>
        <time>2010-10-10T11:26:40Z</time>
      </trkpt>
      <trkpt lat="43.54965" lon="6.73805">
        <ele>252.981155</ele>
        <time>2010-10-10T11:26:53Z</time>
      </trkpt>
      <trkpt lat="43.54946" lon="6.73816">
        <ele>255.018799</ele>
        <time>2010-10-10T11:27:04Z</time>
      </trkpt>
      <trkpt lat="43.54935" lon="6.73818">
        <ele>255.358017</ele>
        <time>2010-10-10T11:27:10Z</time>
      </trkpt>
      <trkpt lat="43.54914" lon="6.73814">
        <ele>255.504181</ele>
        <time>2010-10-10T11:27:20Z</time>
      </trkpt>
      <trkpt lat="43.54901" lon="6.73801">
        <ele>255.721771</ele>
        <time>2010-10-10T11:27:29Z</time>
      </trkpt>
      <trkpt lat="43.54875" lon="6.73767">
        <ele>257.144409</ele>
        <time>2010-10-10T11:27:47Z</time>
      </trkpt>
      <trkpt lat="43.54867" lon="6.7376">
        <ele>257.438354</ele>
        <time>2010-10-10T11:27:52Z</time>
      </trkpt>
      <trkpt lat="43.5486" lon="6.73745">
        <ele>257.163971</ele>
        <time>2010-10-10T11:27:59Z</time>
      </trkpt>
      <trkpt lat="43.54854" lon="6.73734">
        <ele>257.670105</ele>
        <time>2010-10-10T11:28:05Z</time>
      </trkpt>
      <trkpt lat="43.54826" lon="6.73676">
        <ele>259.149902</ele>
        <time>2010-10-10T11:28:24Z</time>
      </trkpt>
      <trkpt lat="43.5482" lon="6.73661">
        <ele>259.005463</ele>
        <time>2010-10-10T11:28:27Z</time>
      </trkpt>
      <trkpt lat="43.54798" lon="6.73582">
        <ele>261.55545</ele>
        <time>2010-10-10T11:28:45Z</time>
      </trkpt>
      <trkpt lat="43.54796" lon="6.73573">
        <ele>261.979156</ele>
        <time>2010-10-10T11:28:47Z</time>
      </trkpt>
      <trkpt lat="43.5477" lon="6.73505">
        <ele>262.252258</ele>
        <time>2010-10-10T11:29:05Z</time>
      </trkpt>
      <trkpt lat="43.54762" lon="6.73479">
        <ele>262.657715</ele>
        <time>2010-10-10T11:29:10Z</time>
      </trkpt>
      <trkpt lat="43.54747" lon="6.73449">
        <ele>261.944489</ele>
        <time>2010-10-10T11:29:16Z</time>
      </trkpt>
      <trkpt lat="43.54725" lon="6.73425">
        <ele>260.741486</ele>
        <time>2010-10-10T11:29:21Z</time>
      </trkpt>
      <trkpt lat="43.54712" lon="6.7338">
        <ele>261.064758</ele>
        <time>2010-10-10T11:29:27Z</time>
      </trkpt>
      <trkpt lat="43.54708" lon="6.73329">
        <ele>258.244568</ele>
        <time>2010-10-10T11:29:33Z</time>
      </trkpt>
      <trkpt lat="43.54706" lon="6.7331">
        <ele>255.757294</ele>
        <time>2010-10-10T11:29:35Z</time>
      </trkpt>
      <trkpt lat="43.54695" lon="6.7326">
        <ele>251.125443</ele>
        <time>2010-10-10T11:29:40Z</time>
      </trkpt>
      <trkpt lat="43.54693" lon="6.73228">
        <ele>250.95192</ele>
        <time>2010-10-10T11:29:43Z</time>
      </trkpt>
      <trkpt lat="43.54699" lon="6.73209">
        <ele>250.526047</ele>
        <time>2010-10-10T11:29:45Z</time>
      </trkpt>
      <trkpt lat="43.54702" lon="6.73198">
        <ele>251.119583</ele>
        <time>2010-10-10T11:29:46Z</time>
      </trkpt>
      <trkpt lat="43.54706" lon="6.73189">
        <ele>251.926163</ele>
        <time>2010-10-10T11:29:47Z</time>
      </trkpt>
      <trkpt lat="43.54708" lon="6.73179">
        <ele>253.001877</ele>
        <time>2010-10-10T11:29:48Z</time>
      </trkpt>
      <trkpt lat="43.54695" lon="6.73119">
        <ele>257.029938</ele>
        <time>2010-10-10T11:29:55Z</time>
      </trkpt>
      <trkpt lat="43.54691" lon="6.73114">
        <ele>257.05838</ele>
        <time>2010-10-10T11:29:56Z</time>
      </trkpt>
      <trkpt lat="43.54659" lon="6.73063">
        <ele>256.893372</ele>
        <time>2010-10-10T11:30:10Z</time>
      </trkpt>
      <trkpt lat="43.54631" lon="6.73024">
        <ele>257.340179</ele>
        <time>2010-10-10T11:30:28Z</time>
      </trkpt>
      <trkpt lat="43.54622" lon="6.73011">
        <ele>256.77002</ele>
        <time>2010-10-10T11:30:34Z</time>
      </trkpt>
      <trkpt lat="43.54616" lon="6.72992">
        <ele>256.237946</ele>
        <time>2010-10-10T11:30:41Z</time>
      </trkpt>
      <trkpt lat="43.54611" lon="6.72973">
        <ele>256.708405</ele>
        <time>2010-10-10T11:30:46Z</time>
      </trkpt>
      <trkpt lat="43.54605" lon="6.72953">
        <ele>257.444366</ele>
        <time>2010-10-10T11:30:49Z</time>
      </trkpt>
      <trkpt lat="43.54573" lon="6.72904">
        <ele>248.712845</ele>
        <time>2010-10-10T11:30:56Z</time>
      </trkpt>
      <trkpt lat="43.54571" lon="6.72895">
        <ele>248.165726</ele>
        <time>2010-10-10T11:30:57Z</time>
      </trkpt>
      <trkpt lat="43.54566" lon="6.72876">
        <ele>246.83046</ele>
        <time>2010-10-10T11:30:59Z</time>
      </trkpt>
      <trkpt lat="43.54575" lon="6.72844">
        <ele>246.552414</ele>
        <time>2010-10-10T11:31:02Z</time>
      </trkpt>
      <trkpt lat="43.54581" lon="6.7282">
        <ele>245.939911</ele>
        <time>2010-10-10T11:31:04Z</time>
      </trkpt>
      <trkpt lat="43.54584" lon="6.72758">
        <ele>243.982971</ele>
        <time>2010-10-10T11:31:09Z</time>
      </trkpt>
      <trkpt lat="43.54581" lon="6.72711">
        <ele>243.739487</ele>
        <time>2010-10-10T11:31:13Z</time>
      </trkpt>
      <trkpt lat="43.54558" lon="6.72677">
        <ele>245.657928</ele>
        <time>2010-10-10T11:31:18Z</time>
      </trkpt>
      <trkpt lat="43.54549" lon="6.72674">
        <ele>246.667725</ele>
        <time>2010-10-10T11:31:20Z</time>
      </trkpt>
      <trkpt lat="43.54541" lon="6.72674">
        <ele>247.64183</ele>
        <time>2010-10-10T11:31:22Z</time>
      </trkpt>
      <trkpt lat="43.54538" lon="6.72672">
        <ele>247.951859</ele>
        <time>2010-10-10T11:31:23Z</time>
      </trkpt>
      <trkpt lat="43.54528" lon="6.72668">
        <ele>249.360703</ele>
        <time>2010-10-10T11:31:28Z</time>
      </trkpt>
      <trkpt lat="43.54523" lon="6.72666">
        <ele>249.967911</ele>
        <time>2010-10-10T11:31:31Z</time>
      </trkpt>
      <trkpt lat="43.54519" lon="6.72662">
        <ele>250.707657</ele>
        <time>2010-10-10T11:31:33Z</time>
      </trkpt>
      <trkpt lat="43.54513" lon="6.72644">
        <ele>252.891571</ele>
        <time>2010-10-10T11:31:40Z</time>
      </trkpt>
      <trkpt lat="43.54513" lon="6.72638">
        <ele>253.288391</ele>
        <time>2010-10-10T11:31:43Z</time>
      </trkpt>
      <trkpt lat="43.54513" lon="6.72627">
        <ele>254.015518</ele>
        <time>2010-10-10T11:31:47Z</time>
      </trkpt>
      <trkpt lat="43.54517" lon="6.72595">
        <ele>255.240997</ele>
        <time>2010-10-10T11:31:59Z</time>
      </trkpt>
      <trkpt lat="43.54526" lon="6.72541">
        <ele>259.323151</ele>
        <time>2010-10-10T11:32:21Z</time>
      </trkpt>
      <trkpt lat="43.54526" lon="6.72537">
        <ele>259.977997</ele>
        <time>2010-10-10T11:32:22Z</time>
      </trkpt>
      <trkpt lat="43.5453" lon="6.72529">
        <ele>260.299561</ele>
        <time>2010-10-10T11:32:26Z</time>
      </trkpt>
      <trkpt lat="43.54534" lon="6.72498">
        <ele>263.243042</ele>
        <time>2010-10-10T11:32:40Z</time>
      </trkpt>
      <trkpt lat="43.54538" lon="6.72475">
        <ele>264.827881</ele>
        <time>2010-10-10T11:32:52Z</time>
      </trkpt>
      <trkpt lat="43.54536" lon="6.72445">
        <ele>268.311066</ele>
        <time>2010-10-10T11:33:05Z</time>
      </trkpt>
      <trkpt lat="43.54536" lon="6.72432">
        <ele>268.265747</ele>
        <time>2010-10-10T11:33:11Z</time>
      </trkpt>
      <trkpt lat="43.54534" lon="6.72419">
        <ele>268.890564</ele>
        <time>2010-10-10T11:33:16Z</time>
      </trkpt>
      <trkpt lat="43.54534" lon="6.72413">
        <ele>268.867889</ele>
        <time>2010-10-10T11:33:19Z</time>
      </trkpt>
      <trkpt lat="43.54532" lon="6.72406">
        <ele>269.515381</ele>
        <time>2010-10-10T11:33:23Z</time>
      </trkpt>
      <trkpt lat="43.54528" lon="6.72387">
        <ele>270.974304</ele>
        <time>2010-10-10T11:33:31Z</time>
      </trkpt>
      <trkpt lat="43.54528" lon="6.7238">
        <ele>271.692413</ele>
        <time>2010-10-10T11:33:35Z</time>
      </trkpt>
      <trkpt lat="43.54528" lon="6.72372">
        <ele>272.651764</ele>
        <time>2010-10-10T11:33:39Z</time>
      </trkpt>
      <trkpt lat="43.5453" lon="6.72359">
        <ele>273.373413</ele>
        <time>2010-10-10T11:33:45Z</time>
      </trkpt>
      <trkpt lat="43.5453" lon="6.72355">
        <ele>273.852234</ele>
        <time>2010-10-10T11:33:47Z</time>
      </trkpt>
      <trkpt lat="43.54547" lon="6.72325">
        <ele>272.920258</ele>
        <time>2010-10-10T11:34:05Z</time>
      </trkpt>
      <trkpt lat="43.54558" lon="6.72303">
        <ele>275.490845</ele>
        <time>2010-10-10T11:34:17Z</time>
      </trkpt>
      <trkpt lat="43.54564" lon="6.72262">
        <ele>283.455048</ele>
        <time>2010-10-10T11:34:30Z</time>
      </trkpt>
      <trkpt lat="43.54568" lon="6.72252">
        <ele>284.119873</ele>
        <time>2010-10-10T11:34:36Z</time>
      </trkpt>
      <trkpt lat="43.54571" lon="6.7225">
        <ele>283.848999</ele>
        <time>2010-10-10T11:34:37Z</time>
      </trkpt>
      <trkpt lat="43.54573" lon="6.72243">
        <ele>284.295776</ele>
        <time>2010-10-10T11:34:40Z</time>
      </trkpt>
      <trkpt lat="43.54575" lon="6.72243">
        <ele>283.62558</ele>
        <time>2010-10-10T11:34:41Z</time>
      </trkpt>
      <trkpt lat="43.54575" lon="6.72228">
        <ele>286.155945</ele>
        <time>2010-10-10T11:34:48Z</time>
      </trkpt>
      <trkpt lat="43.54577" lon="6.72222">
        <ele>286.511322</ele>
        <time>2010-10-10T11:34:51Z</time>
      </trkpt>
      <trkpt lat="43.54579" lon="6.72207">
        <ele>288.24884</ele>
        <time>2010-10-10T11:34:58Z</time>
      </trkpt>
      <trkpt lat="43.54584" lon="6.72196">
        <ele>287.558044</ele>
        <time>2010-10-10T11:35:04Z</time>
      </trkpt>
      <trkpt lat="43.54584" lon="6.72187">
        <ele>288.223541</ele>
        <time>2010-10-10T11:35:08Z</time>
      </trkpt>
      <trkpt lat="43.54581" lon="6.72181">
        <ele>289.726257</ele>
        <time>2010-10-10T11:35:11Z</time>
      </trkpt>
      <trkpt lat="43.54575" lon="6.72159">
        <ele>295.099915</ele>
        <time>2010-10-10T11:35:21Z</time>
      </trkpt>
      <trkpt lat="43.54573" lon="6.72151">
        <ele>297.291748</ele>
        <time>2010-10-10T11:35:25Z</time>
      </trkpt>
      <trkpt lat="43.54575" lon="6.72112">
        <ele>301.652466</ele>
        <time>2010-10-10T11:35:44Z</time>
      </trkpt>
      <trkpt lat="43.54586" lon="6.7208">
        <ele>301.326324</ele>
        <time>2010-10-10T11:36:05Z</time>
      </trkpt>
      <trkpt lat="43.5459" lon="6.72061">
        <ele>301.954193</ele>
        <time>2010-10-10T11:36:17Z</time>
      </trkpt>
      <trkpt lat="43.54588" lon="6.72089">
        <ele>299.059204</ele>
        <time>2010-10-10T11:36:24Z</time>
      </trkpt>
      <trkpt lat="43.54586" lon="6.72095">
        <ele>298.999817</ele>
        <time>2010-10-10T11:36:25Z</time>
      </trkpt>
      <trkpt lat="43.5456" lon="6.72101">
        <ele>310.624084</ele>
        <time>2010-10-10T11:36:29Z</time>
      </trkpt>
      <trkpt lat="43.54521" lon="6.72097">
        <ele>324.176147</ele>
        <time>2010-10-10T11:36:31Z</time>
      </trkpt>
      <trkpt lat="43.54562" lon="6.72108">
        <ele>308.777435</ele>
        <time>2010-10-10T11:36:33Z</time>
      </trkpt>
      <trkpt lat="43.54573" lon="6.72112">
        <ele>302.749176</ele>
        <time>2010-10-10T11:36:35Z</time>
      </trkpt>
      <trkpt lat="43.54577" lon="6.72114">
        <ele>300.235474</ele>
        <time>2010-10-10T11:36:37Z</time>
      </trkpt>
      <trkpt lat="43.54575" lon="6.72127">
        <ele>299.445251</ele>
        <time>2010-10-10T11:36:43Z</time>
      </trkpt>
      <trkpt lat="43.54577" lon="6.72132">
        <ele>297.638977</ele>
        <time>2010-10-10T11:36:45Z</time>
      </trkpt>
      <trkpt lat="43.54571" lon="6.72142">
        <ele>299.630585</ele>
        <time>2010-10-10T11:36:51Z</time>
      </trkpt>
      <trkpt lat="43.54564" lon="6.72157">
        <ele>300.98642</ele>
        <time>2010-10-10T11:36:59Z</time>
      </trkpt>
      <trkpt lat="43.54545" lon="6.72192">
        <ele>303.772064</ele>
        <time>2010-10-10T11:37:18Z</time>
      </trkpt>
      <trkpt lat="43.54534" lon="6.72211">
        <ele>303.997467</ele>
        <time>2010-10-10T11:37:29Z</time>
      </trkpt>
      <trkpt lat="43.54534" lon="6.72211">
        <ele>303.997467</ele>
        <time>2010-10-10T11:37:45Z</time>
      </trkpt>
      <trkpt lat="43.54476" lon="6.72271">
        <ele>314.86734</ele>
        <time>2010-10-10T11:38:08Z</time>
      </trkpt>
      <trkpt lat="43.54474" lon="6.72275">
        <ele>314.278656</ele>
        <time>2010-10-10T11:38:09Z</time>
      </trkpt>
      <trkpt lat="43.54478" lon="6.72265">
        <ele>316.209473</ele>
        <time>2010-10-10T11:38:12Z</time>
      </trkpt>
      <trkpt lat="43.54459" lon="6.72288">
        <ele>316.485535</ele>
        <time>2010-10-10T11:38:20Z</time>
      </trkpt>
      <trkpt lat="43.54457" lon="6.72297">
        <ele>315.448059</ele>
        <time>2010-10-10T11:38:23Z</time>
      </trkpt>
      <trkpt lat="43.54448" lon="6.72307">
        <ele>317.332123</ele>
        <time>2010-10-10T11:38:29Z</time>
      </trkpt>
      <trkpt lat="43.54446" lon="6.7231">
        <ele>318.034973</ele>
        <time>2010-10-10T11:38:31Z</time>
      </trkpt>
      <trkpt lat="43.54446" lon="6.72299">
        <ele>319.94223</ele>
        <time>2010-10-10T11:38:38Z</time>
      </trkpt>
      <trkpt lat="43.54448" lon="6.72297">
        <ele>319.337769</ele>
        <time>2010-10-10T11:38:39Z</time>
      </trkpt>
      <trkpt lat="43.54453" lon="6.7229">
        <ele>318.697327</ele>
        <time>2010-10-10T11:38:43Z</time>
      </trkpt>
      <trkpt lat="43.54455" lon="6.72284">
        <ele>319.150391</ele>
        <time>2010-10-10T11:38:46Z</time>
      </trkpt>
      <trkpt lat="43.54487" lon="6.72241">
        <ele>319.194275</ele>
        <time>2010-10-10T11:39:10Z</time>
      </trkpt>
      <trkpt lat="43.54498" lon="6.72222">
        <ele>319.573425</ele>
        <time>2010-10-10T11:39:17Z</time>
      </trkpt>
      <trkpt lat="43.54532" lon="6.72084">
        <ele>322.637909</ele>
        <time>2010-10-10T11:39:53Z</time>
      </trkpt>
      <trkpt lat="43.54556" lon="6.71962">
        <ele>321.551971</ele>
        <time>2010-10-10T11:40:20Z</time>
      </trkpt>
      <trkpt lat="43.54575" lon="6.7185">
        <ele>321.531403</ele>
        <time>2010-10-10T11:40:37Z</time>
      </trkpt>
      <trkpt lat="43.54601" lon="6.71698">
        <ele>322.355316</ele>
        <time>2010-10-10T11:41:00Z</time>
      </trkpt>
      <trkpt lat="43.54618" lon="6.71593">
        <ele>327.036774</ele>
        <time>2010-10-10T11:41:22Z</time>
      </trkpt>
      <trkpt lat="43.54644" lon="6.71518">
        <ele>327.894318</ele>
        <time>2010-10-10T11:41:47Z</time>
      </trkpt>
      <trkpt lat="43.5465" lon="6.71503">
        <ele>328.073639</ele>
        <time>2010-10-10T11:41:53Z</time>
      </trkpt>
      <trkpt lat="43.54676" lon="6.71408">
        <ele>327.459381</ele>
        <time>2010-10-10T11:42:18Z</time>
      </trkpt>
      <trkpt lat="43.54678" lon="6.71393">
        <ele>327.782654</ele>
        <time>2010-10-10T11:42:22Z</time>
      </trkpt>
      <trkpt lat="43.5468" lon="6.71363">
        <ele>329.240143</ele>
        <time>2010-10-10T11:42:29Z</time>
      </trkpt>
      <trkpt lat="43.54689" lon="6.71299">
        <ele>333.533203</ele>
        <time>2010-10-10T11:42:45Z</time>
      </trkpt>
      <trkpt lat="43.54691" lon="6.71295">
        <ele>333.684784</ele>
        <time>2010-10-10T11:42:46Z</time>
      </trkpt>
      <trkpt lat="43.54691" lon="6.71293">
        <ele>333.922363</ele>
        <time>2010-10-10T11:42:47Z</time>
      </trkpt>
      <trkpt lat="43.54702" lon="6.71271">
        <ele>335.235657</ele>
        <time>2010-10-10T11:42:54Z</time>
      </trkpt>
      <trkpt lat="43.54714" lon="6.7125">
        <ele>336.728119</ele>
        <time>2010-10-10T11:43:03Z</time>
      </trkpt>
      <trkpt lat="43.54732" lon="6.7122">
        <ele>336.588745</ele>
        <time>2010-10-10T11:43:16Z</time>
      </trkpt>
      <trkpt lat="43.54747" lon="6.71185">
        <ele>339.379822</ele>
        <time>2010-10-10T11:43:30Z</time>
      </trkpt>
      <trkpt lat="43.54753" lon="6.7117">
        <ele>341.807404</ele>
        <time>2010-10-10T11:43:37Z</time>
      </trkpt>
      <trkpt lat="43.54753" lon="6.71164">
        <ele>342.407806</ele>
        <time>2010-10-10T11:43:40Z</time>
      </trkpt>
      <trkpt lat="43.54753" lon="6.7116">
        <ele>342.520569</ele>
        <time>2010-10-10T11:43:42Z</time>
      </trkpt>
      <trkpt lat="43.54753" lon="6.71155">
        <ele>342.631744</ele>
        <time>2010-10-10T11:43:44Z</time>
      </trkpt>
      <trkpt lat="43.54755" lon="6.71144">
        <ele>342.865417</ele>
        <time>2010-10-10T11:43:49Z</time>
      </trkpt>
      <trkpt lat="43.54757" lon="6.71136">
        <ele>343.078003</ele>
        <time>2010-10-10T11:43:52Z</time>
      </trkpt>
      <trkpt lat="43.54785" lon="6.7105">
        <ele>340.68457</ele>
        <time>2010-10-10T11:44:17Z</time>
      </trkpt>
      <trkpt lat="43.54805" lon="6.70966">
        <ele>340.691681</ele>
        <time>2010-10-10T11:44:30Z</time>
      </trkpt>
      <trkpt lat="43.5482" lon="6.70866">
        <ele>340.999146</ele>
        <time>2010-10-10T11:44:41Z</time>
      </trkpt>
      <trkpt lat="43.54822" lon="6.7079">
        <ele>340.709869</ele>
        <time>2010-10-10T11:44:48Z</time>
      </trkpt>
      <trkpt lat="43.54822" lon="6.70739">
        <ele>342.019958</ele>
        <time>2010-10-10T11:44:56Z</time>
      </trkpt>
      <trkpt lat="43.54828" lon="6.70675">
        <ele>343.043274</ele>
        <time>2010-10-10T11:45:09Z</time>
      </trkpt>
      <trkpt lat="43.54832" lon="6.70552">
        <ele>341.13913</ele>
        <time>2010-10-10T11:45:36Z</time>
      </trkpt>
      <trkpt lat="43.54832" lon="6.70546">
        <ele>341.011627</ele>
        <time>2010-10-10T11:45:37Z</time>
      </trkpt>
      <trkpt lat="43.54835" lon="6.70531">
        <ele>340.103271</ele>
        <time>2010-10-10T11:45:40Z</time>
      </trkpt>
      <trkpt lat="43.54835" lon="6.70518">
        <ele>339.848877</ele>
        <time>2010-10-10T11:45:42Z</time>
      </trkpt>
      <trkpt lat="43.54837" lon="6.70488">
        <ele>338.35083</ele>
        <time>2010-10-10T11:45:47Z</time>
      </trkpt>
      <trkpt lat="43.54837" lon="6.70471">
        <ele>337.019714</ele>
        <time>2010-10-10T11:45:50Z</time>
      </trkpt>
      <trkpt lat="43.54837" lon="6.70466">
        <ele>336.677582</ele>
        <time>2010-10-10T11:45:51Z</time>
      </trkpt>
      <trkpt lat="43.54813" lon="6.70466">
        <ele>337.72821</ele>
        <time>2010-10-10T11:45:58Z</time>
      </trkpt>
      <trkpt lat="43.54742" lon="6.70503">
        <ele>335.863464</ele>
        <time>2010-10-10T11:46:16Z</time>
      </trkpt>
      <trkpt lat="43.54736" lon="6.70503">
        <ele>335.436401</ele>
        <time>2010-10-10T11:46:17Z</time>
      </trkpt>
      <trkpt lat="43.54725" lon="6.70496">
        <ele>334.43158</ele>
        <time>2010-10-10T11:46:20Z</time>
      </trkpt>
      <trkpt lat="43.54719" lon="6.70479">
        <ele>333.102814</ele>
        <time>2010-10-10T11:46:23Z</time>
      </trkpt>
      <trkpt lat="43.54717" lon="6.70475">
        <ele>332.704773</ele>
        <time>2010-10-10T11:46:24Z</time>
      </trkpt>
      <trkpt lat="43.54708" lon="6.70466">
        <ele>331.59491</ele>
        <time>2010-10-10T11:46:27Z</time>
      </trkpt>
      <trkpt lat="43.54706" lon="6.70466">
        <ele>331.44873</ele>
        <time>2010-10-10T11:46:28Z</time>
      </trkpt>
      <trkpt lat="43.54684" lon="6.70464">
        <ele>330.15451</ele>
        <time>2010-10-10T11:46:34Z</time>
      </trkpt>
      <trkpt lat="43.54614" lon="6.70494">
        <ele>327.153931</ele>
        <time>2010-10-10T11:46:49Z</time>
      </trkpt>
      <trkpt lat="43.54528" lon="6.70546">
        <ele>322.278351</ele>
        <time>2010-10-10T11:46:57Z</time>
      </trkpt>
      <trkpt lat="43.54468" lon="6.70565">
        <ele>317.866211</ele>
        <time>2010-10-10T11:47:05Z</time>
      </trkpt>
      <trkpt lat="43.54438" lon="6.70576">
        <ele>315.497894</ele>
        <time>2010-10-10T11:47:09Z</time>
      </trkpt>
      <trkpt lat="43.54414" lon="6.70567">
        <ele>314.661346</ele>
        <time>2010-10-10T11:47:12Z</time>
      </trkpt>
      <trkpt lat="43.54356" lon="6.70557">
        <ele>311.671661</ele>
        <time>2010-10-10T11:47:19Z</time>
      </trkpt>
      <trkpt lat="43.54328" lon="6.70554">
        <ele>310.429596</ele>
        <time>2010-10-10T11:47:22Z</time>
      </trkpt>
      <trkpt lat="43.54275" lon="6.70552">
        <ele>307.700653</ele>
        <time>2010-10-10T11:47:28Z</time>
      </trkpt>
      <trkpt lat="43.54266" lon="6.70514">
        <ele>311.120209</ele>
        <time>2010-10-10T11:47:33Z</time>
      </trkpt>
      <trkpt lat="43.54268" lon="6.7049">
        <ele>311.368469</ele>
        <time>2010-10-10T11:47:36Z</time>
      </trkpt>
      <trkpt lat="43.54294" lon="6.70297">
        <ele>311.180298</ele>
        <time>2010-10-10T11:48:01Z</time>
      </trkpt>
      <trkpt lat="43.54296" lon="6.70273">
        <ele>311.423615</ele>
        <time>2010-10-10T11:48:04Z</time>
      </trkpt>
      <trkpt lat="43.54352" lon="6.70121">
        <ele>311.984467</ele>
        <time>2010-10-10T11:48:28Z</time>
      </trkpt>
      <trkpt lat="43.54367" lon="6.70087">
        <ele>311.409729</ele>
        <time>2010-10-10T11:48:34Z</time>
      </trkpt>
      <trkpt lat="43.54354" lon="6.70078">
        <ele>311.997284</ele>
        <time>2010-10-10T11:48:37Z</time>
      </trkpt>
      <trkpt lat="43.54347" lon="6.70076">
        <ele>311.733704</ele>
        <time>2010-10-10T11:48:38Z</time>
      </trkpt>
      <trkpt lat="43.54326" lon="6.70069">
        <ele>310.88739</ele>
        <time>2010-10-10T11:48:42Z</time>
      </trkpt>
      <trkpt lat="43.54307" lon="6.70059">
        <ele>309.942719</ele>
        <time>2010-10-10T11:48:45Z</time>
      </trkpt>
      <trkpt lat="43.543" lon="6.70054">
        <ele>309.043701</ele>
        <time>2010-10-10T11:48:46Z</time>
      </trkpt>
      <trkpt lat="43.54275" lon="6.70046">
        <ele>305.428131</ele>
        <time>2010-10-10T11:48:49Z</time>
      </trkpt>
      <trkpt lat="43.54266" lon="6.70044">
        <ele>304.231689</ele>
        <time>2010-10-10T11:48:50Z</time>
      </trkpt>
      <trkpt lat="43.54249" lon="6.70039">
        <ele>301.866669</ele>
        <time>2010-10-10T11:48:52Z</time>
      </trkpt>
      <trkpt lat="43.54217" lon="6.70031">
        <ele>297.371338</ele>
        <time>2010-10-10T11:48:56Z</time>
      </trkpt>
      <trkpt lat="43.54195" lon="6.70027">
        <ele>293.541229</ele>
        <time>2010-10-10T11:48:59Z</time>
      </trkpt>
      <trkpt lat="43.54184" lon="6.70024">
        <ele>291.641632</ele>
        <time>2010-10-10T11:49:01Z</time>
      </trkpt>
      <trkpt lat="43.54178" lon="6.70022">
        <ele>290.55542</ele>
        <time>2010-10-10T11:49:02Z</time>
      </trkpt>
      <trkpt lat="43.54156" lon="6.70003">
        <ele>284.158325</ele>
        <time>2010-10-10T11:49:09Z</time>
      </trkpt>
      <trkpt lat="43.54156" lon="6.69999">
        <ele>284.406128</ele>
        <time>2010-10-10T11:49:10Z</time>
      </trkpt>
      <trkpt lat="43.54159" lon="6.69997">
        <ele>285.295502</ele>
        <time>2010-10-10T11:49:11Z</time>
      </trkpt>
      <trkpt lat="43.54163" lon="6.69988">
        <ele>287.303284</ele>
        <time>2010-10-10T11:49:14Z</time>
      </trkpt>
      <trkpt lat="43.54165" lon="6.69986">
        <ele>288.179413</ele>
        <time>2010-10-10T11:49:15Z</time>
      </trkpt>
      <trkpt lat="43.54165" lon="6.69986">
        <ele>288.179413</ele>
        <time>2010-10-10T11:49:29Z</time>
      </trkpt>
      <trkpt lat="43.54165" lon="6.69986">
        <ele>288.179413</ele>
        <time>2010-10-10T11:49:43Z</time>
      </trkpt>
    </trkseg>
  </trk>
</gpx>